[[{"header":{"parameterUnit":"m.s-1","parameterCategory":1,"la1":31.0,"la2":29.5877,"lo1":-88.7671,"lo2":-86.6584,"dy":0.0162,"dx":0.0185,"nx":115,"ny":88,"refTime":"2024-06-19T12:00:00:Z","depth":0,"parameterNumber":2,"parameterNumberName":"U-component_of_WINDS"},"data":[0.0,0.0,0.0,0.0,0.0,0.0,0.0,0.0,0.0,0.0,0.0,0.0,0.0,0.0,0.0,0.0,0.0,0.0,0.0,0.0,0.0,0.0,0.0,0.0,0.0,0.0,0.0,0.0,0.0,0.0,0.0,0.0,0.0,0.0,0.0,0.0,0.0,0.0,0.0,0.0,0.0,0.0,0.0,0.0,0.0,0.0,0.0,0.0,0.0,0.0,0.0,0.0,0.0,0.0,0.0,0.0,0.0,0.0,0.0,0.0,0.0,0.0,0.0,0.0,0.0,0.0,0.0,0.0,0.0,0.0,0.0,0.0,0.0,0.0,0.0,0.0,0.0,0.0,0.0,0.0,0.0,0.0,0.0,0.0,0.0,0.0,0.0,0.0,0.0,0.0,0.0,0.0,0.0,0.0,0.0,0.0,0.0,0.0,0.0,0.0,0.0,0.0,0.0,0.0,0.0,0.0,0.0,0.0,0.0,0.0,0.0,0.0,0.0,0.0,0.0,0.0,0.0,0.0,0.0,0.0,0.0,0.0,0.0,0.0,0.0,0.0,0.0,0.0,0.0,0.0,0.0,0.0,0.0,0.0,0.0,0.0,0.0,0.0,0.0,0.0,0.0,0.0,0.0,0.0,0.0,0.0,0.0,0.0,0.0,0.0,0.0,0.0,0.0,0.0,0.0,0.0,0.0,0.0,0.0,0.0,0.0,0.0,0.0,0.0,0.0,0.0,0.0,0.0,0.0,0.0,0.0,0.0,0.0,0.0,0.0,0.0,0.0,0.0,0.0,0.0,0.0,0.0,0.0,0.0,0.0,0.0,0.0,0.0,0.0,0.0,0.0,0.0,0.0,0.0,0.0,0.0,0.0,0.0,0.0,0.0,0.0,0.0,0.0,0.0,0.0,0.0,0.0,0.0,0.0,0.0,0.0,0.0,0.0,0.0,0.0,0.0,0.0,0.0,0.0,0.0,0.0,0.0,0.0,0.0,0.0,0.0,0.0,0.0,0.0,0.0,0.0,0.0,0.0,0.0,0.0,0.0,0.0,0.0,0.0,0.0,0.0,0.0,0.0,0.0,0.0,0.0,0.0,0.0,0.0,0.0,0.0,0.0,0.0,0.0,0.0,0.0,0.0,0.0,0.0,0.0,0.0,0.0,0.0,0.0,0.0,0.0,0.0,0.0,0.0,0.0,0.0,0.0,0.0,0.0,0.0,0.0,0.0,0.0,0.0,0.0,0.0,0.0,0.0,0.0,0.0,0.0,0.0,0.0,0.0,0.0,0.0,0.0,0.0,0.0,0.0,0.0,0.0,0.0,0.0,0.0,0.0,0.0,0.0,0.0,0.0,0.0,0.0,0.0,0.0,0.0,0.0,0.0,0.0,0.0,0.0,0.0,0.0,0.0,0.0,0.0,0.0,0.0,0.0,0.0,0.0,0.0,0.0,0.0,0.0,0.0,0.0,0.0,0.0,0.0,0.0,0.0,0.0,0.0,0.0,0.0,0.0,0.0,0.0,0.0,0.0,0.0,0.0,0.0,0.0,0.0,0.0,0.0,0.0,0.0,0.0,0.0,0.0,0.0,0.0,0.0,0.0,0.0,0.0,0.0,0.0,0.0,0.0,0.0,0.0,0.0,0.0,0.0,0.0,0.0,0.0,0.0,0.0,0.0,0.0,0.0,0.0,0.0,0.0,0.0,0.0,0.0,0.0,0.0,0.0,0.0,0.0,0.0,0.0,0.0,0.0,0.0,0.0,0.0,0.0,0.0,0.0,0.0,0.0,0.0,0.0,0.0,0.0,0.0,0.0,0.0,0.0,0.0,0.0,0.0,0.0,0.0,0.0,0.0,0.0,0.0,0.0,0.0,0.0,0.0,0.0,0.0,0.0,0.0,0.0,0.0,0.0,0.0,0.0,0.0,0.0,0.0,0.0,0.0,0.0,0.0,0.0,0.0,0.0,0.0,0.0,0.0,0.0,0.0,0.0,0.0,0.0,0.0,0.0,0.0,0.0,0.0,0.0,0.0,0.0,0.0,0.0,0.0,0.0,0.0,0.0,0.0,0.0,0.0,0.0,0.0,0.0,0.0,0.0,0.0,0.0,0.0,0.0,0.0,0.0,0.0,0.0,0.0,0.0,0.0,0.0,0.0,0.0,0.0,0.0,0.0,0.0,0.0,0.0,0.0,0.0,0.0,0.0,0.0,0.0,0.0,0.0,0.0,0.0,0.0,0.0,0.0,0.0,0.0,0.0,0.0,0.0,0.0,0.0,0.0,0.0,0.0,0.0,0.0,0.0,0.0,0.0,0.0,0.0,0.0,0.0,0.0,0.0,0.0,0.0,0.0,0.0,0.0,0.0,0.0,0.0,0.0,0.0,0.0,0.0,0.0,0.0,0.0,0.0,0.0,0.0,0.0,0.0,0.0,0.0,0.0,0.0,0.0,0.0,0.0,0.0,0.0,0.0,0.0,0.0,0.0,0.0,0.0,0.0,0.0,0.0,0.0,0.0,0.0,0.0,0.0,0.0,0.0,0.0,0.0,0.0,0.0,0.0,0.0,0.0,0.0,0.0,0.0,0.0,0.0,0.0,0.0,0.0,0.0,0.0,0.0,0.0,0.0,0.0,0.0,0.0,0.0,0.0,0.0,0.0,0.0,0.0,0.0,0.0,0.0,0.0,0.0,0.0,0.0,0.0,0.0,0.0,0.0,0.0,0.0,0.0,0.0,0.0,0.0,0.0,0.0,0.0,0.0,0.0,0.0,0.0,0.0,0.0,0.0,0.0,0.0,0.0,0.0,0.0,0.0,0.0,0.0,0.0,0.0,0.0,0.0,0.0,0.0,0.0,0.0,0.0,0.0,0.0,0.0,0.0,0.0,0.0,0.0,0.0,0.0,0.0,0.0,0.0,0.0,0.0,0.0,0.0,0.0,0.0,0.0,0.0,0.0,0.0,0.0,0.0,0.0,0.0,0.0,0.0,0.0,0.0,0.0,0.0,0.0,0.0,0.0,0.0,0.0,0.0,0.0,0.0,0.0,0.0,0.0,0.0,0.0,0.0,0.0,0.0,0.0,0.0,0.0,0.0,0.0,0.0,0.0,0.0,0.0,0.0,0.0,0.0,0.0,0.0,0.0,0.0,0.0,0.0,0.0,0.0,0.0,0.0,0.0,0.0,0.0,0.0,0.0,0.0,0.0,0.0,0.0,0.0,0.0,0.0,0.0,0.0,0.0,0.0,0.0,0.0,0.0,0.0,0.0,0.0,0.0,0.0,0.0,0.0,0.0,0.0,0.0,0.0,0.0,0.0,0.0,0.0,0.0,0.0,0.0,0.0,0.0,0.0,0.0,0.0,0.0,0.0,0.0,0.0,0.0,0.0,0.0,0.0,0.0,0.0,0.0,0.0,0.0,0.0,0.0,0.0,0.0,0.0,0.0,0.0,0.0,0.0,0.0,0.0,0.0,0.0,0.0,0.0,0.0,0.0,0.0,0.0,0.0,0.0,0.0,0.0,0.0,0.0,0.0,0.0,0.0,0.0,0.0,0.0,0.0,0.0,0.0,0.0,0.0,0.0,0.0,0.0,0.0,0.0,0.0,0.0,0.0,0.0,0.0,0.0,0.0,0.0,0.0,0.0,0.0,0.0,0.0,0.0,0.0,0.0,0.0,0.0,0.0,0.0,0.0,0.0,0.0,0.0,0.0,0.0,0.0,0.0,0.0,0.0,0.0,0.0,0.0,0.0,0.0,0.0,0.0,0.0,0.0,0.0,0.0,0.0,0.0,0.0,0.0,0.0,0.0,0.0,0.0,0.0,0.0,0.0,0.0,0.0,0.0,0.0,0.0,0.0,0.0,0.0,0.0,0.0,0.0,0.0,0.0,0.0,0.0,0.0,0.0,0.0,0.0,0.0,0.0,0.0,0.0,0.0,0.0,0.0,0.0,0.0,0.0,0.0,0.0,0.0,0.0,0.0,0.0,0.0,0.0,0.0,0.0,0.0,0.0,0.0,0.0,0.0,0.0,0.0,0.0,0.0,0.0,0.0,0.0,0.0,0.0,0.0,0.0,0.0,0.0,0.0,0.0,0.0,0.0,0.0,0.0,0.0,0.0,0.0,0.0,0.0,0.0,0.0,0.0,0.0,0.0,0.0,0.0,0.0,0.0,0.0,0.0,0.0,0.0,0.0,0.0,0.0,0.0,0.0,0.0,0.0,0.0,0.0,0.0,0.0,0.0,0.0,0.0,0.0,0.0,0.0,0.0,-3.7181,0.0,0.0,0.0,-3.4384,0.0,0.0,0.0,0.0,0.0,0.0,0.0,0.0,0.0,0.0,0.0,0.0,0.0,0.0,0.0,0.0,0.0,0.0,0.0,0.0,0.0,0.0,0.0,0.0,0.0,0.0,0.0,0.0,0.0,0.0,0.0,0.0,0.0,0.0,0.0,0.0,0.0,0.0,0.0,0.0,0.0,0.0,0.0,0.0,0.0,0.0,0.0,0.0,0.0,0.0,0.0,0.0,0.0,0.0,0.0,0.0,0.0,0.0,0.0,0.0,0.0,0.0,0.0,0.0,0.0,0.0,0.0,0.0,0.0,0.0,0.0,0.0,0.0,0.0,0.0,0.0,0.0,0.0,0.0,0.0,0.0,0.0,0.0,0.0,0.0,0.0,0.0,0.0,0.0,0.0,0.0,0.0,0.0,0.0,0.0,0.0,0.0,0.0,0.0,0.0,0.0,0.0,0.0,0.0,0.0,0.0,0.0,0.0,0.0,0.0,-3.899,-3.8865,-3.8232,-3.7047,-3.531,0.0,0.0,0.0,0.0,0.0,0.0,0.0,0.0,0.0,0.0,0.0,0.0,0.0,0.0,0.0,0.0,0.0,0.0,0.0,0.0,0.0,0.0,0.0,0.0,0.0,0.0,0.0,0.0,0.0,0.0,0.0,0.0,0.0,0.0,0.0,0.0,0.0,0.0,0.0,0.0,0.0,0.0,0.0,0.0,0.0,0.0,0.0,0.0,0.0,0.0,0.0,0.0,0.0,0.0,0.0,0.0,0.0,0.0,0.0,0.0,0.0,0.0,0.0,0.0,0.0,0.0,0.0,0.0,0.0,0.0,0.0,0.0,0.0,0.0,0.0,0.0,0.0,0.0,0.0,0.0,0.0,0.0,0.0,0.0,0.0,0.0,0.0,0.0,0.0,0.0,0.0,0.0,0.0,0.0,0.0,0.0,0.0,0.0,0.0,0.0,0.0,0.0,0.0,0.0,0.0,0.0,0.0,0.0,0.0,0.0,0.0,0.0,-3.9613,-3.8316,-3.5488,0.0,0.0,0.0,0.0,0.0,0.0,0.0,0.0,0.0,0.0,0.0,0.0,0.0,0.0,0.0,0.0,0.0,0.0,0.0,0.0,0.0,0.0,0.0,0.0,0.0,0.0,0.0,0.0,0.0,0.0,0.0,0.0,0.0,0.0,0.0,0.0,0.0,0.0,0.0,0.0,0.0,0.0,0.0,0.0,0.0,0.0,0.0,0.0,0.0,0.0,0.0,0.0,0.0,0.0,0.0,0.0,0.0,0.0,0.0,0.0,0.0,0.0,0.0,0.0,0.0,0.0,0.0,0.0,0.0,0.0,0.0,0.0,0.0,0.0,0.0,0.0,0.0,0.0,0.0,0.0,0.0,0.0,0.0,0.0,0.0,0.0,0.0,0.0,0.0,0.0,0.0,0.0,0.0,0.0,0.0,0.0,0.0,0.0,0.0,0.0,0.0,0.0,0.0,0.0,0.0,0.0,0.0,0.0,0.0,0.0,-4.0568,-3.9731,-3.9804,0.0,-3.448,0.0,0.0,0.0,0.0,0.0,0.0,0.0,0.0,0.0,0.0,0.0,0.0,0.0,0.0,0.0,0.0,0.0,0.0,0.0,0.0,0.0,0.0,0.0,0.0,0.0,0.0,0.0,0.0,0.0,0.0,0.0,0.0,0.0,0.0,0.0,0.0,0.0,0.0,0.0,0.0,0.0,0.0,0.0,0.0,0.0,0.0,0.0,0.0,0.0,0.0,0.0,0.0,0.0,0.0,0.0,0.0,0.0,0.0,0.0,0.0,0.0,0.0,0.0,0.0,0.0,0.0,0.0,0.0,0.0,0.0,0.0,0.0,0.0,0.0,0.0,0.0,0.0,0.0,0.0,0.0,0.0,0.0,0.0,0.0,0.0,0.0,0.0,0.0,0.0,0.0,0.0,0.0,0.0,0.0,0.0,0.0,0.0,0.0,0.0,0.0,0.0,0.0,0.0,0.0,0.0,0.0,0.0,0.0,0.0,0.0,-4.0973,-4.0658,-3.9314,-3.7383,0.0,0.0,0.0,0.0,0.0,0.0,0.0,0.0,0.0,0.0,0.0,0.0,0.0,0.0,0.0,0.0,0.0,0.0,0.0,0.0,0.0,0.0,0.0,0.0,0.0,0.0,0.0,0.0,0.0,0.0,0.0,0.0,0.0,0.0,0.0,0.0,0.0,0.0,0.0,0.0,0.0,0.0,0.0,0.0,0.0,0.0,0.0,0.0,0.0,0.0,0.0,0.0,0.0,0.0,0.0,0.0,0.0,0.0,0.0,0.0,0.0,0.0,0.0,0.0,0.0,0.0,0.0,0.0,0.0,0.0,0.0,0.0,0.0,0.0,0.0,0.0,0.0,0.0,0.0,0.0,0.0,0.0,0.0,0.0,0.0,0.0,0.0,0.0,0.0,0.0,0.0,0.0,0.0,0.0,0.0,0.0,0.0,0.0,0.0,0.0,0.0,0.0,0.0,0.0,0.0,0.0,0.0,0.0,0.0,0.0,-4.1177,-4.1258,-4.127,-3.9513,-3.7556,-3.5442,0.0,0.0,0.0,0.0,0.0,0.0,0.0,0.0,0.0,0.0,0.0,0.0,0.0,0.0,0.0,0.0,0.0,0.0,0.0,0.0,0.0,0.0,0.0,0.0,0.0,0.0,0.0,0.0,0.0,0.0,0.0,0.0,0.0,0.0,0.0,0.0,0.0,0.0,0.0,0.0,0.0,0.0,0.0,0.0,0.0,0.0,0.0,0.0,0.0,0.0,0.0,0.0,0.0,0.0,0.0,0.0,0.0,0.0,0.0,0.0,0.0,0.0,0.0,0.0,0.0,0.0,0.0,0.0,0.0,0.0,0.0,0.0,0.0,0.0,0.0,0.0,0.0,0.0,0.0,0.0,0.0,0.0,0.0,0.0,0.0,0.0,0.0,0.0,0.0,0.0,0.0,0.0,0.0,0.0,0.0,0.0,0.0,0.0,0.0,0.0,0.0,0.0,0.0,0.0,0.0,0.0,0.0,0.0,-4.122,-4.1326,-4.1376,-4.1482,-4.0877,-3.9015,0.0,0.0,0.0,0.0,0.0,0.0,0.0,0.0,0.0,0.0,0.0,0.0,0.0,0.0,0.0,0.0,0.0,0.0,0.0,0.0,0.0,0.0,0.0,0.0,0.0,0.0,0.0,0.0,0.0,0.0,0.0,0.0,0.0,0.0,0.0,0.0,0.0,0.0,0.0,0.0,0.0,0.0,0.0,0.0,0.0,0.0,0.0,0.0,0.0,0.0,0.0,0.0,0.0,0.0,0.0,0.0,0.0,0.0,0.0,0.0,0.0,0.0,0.0,0.0,0.0,0.0,0.0,0.0,0.0,0.0,0.0,0.0,0.0,0.0,0.0,0.0,0.0,0.0,0.0,0.0,0.0,0.0,0.0,0.0,0.0,0.0,0.0,0.0,0.0,0.0,0.0,0.0,0.0,0.0,0.0,0.0,0.0,0.0,0.0,0.0,0.0,0.0,0.0,0.0,0.0,0.0,0.0,0.0,0.0,-4.202,-4.2783,-4.2696,-4.1778,-4.0584,-3.86,0.0,0.0,0.0,0.0,0.0,0.0,0.0,0.0,0.0,0.0,0.0,0.0,0.0,0.0,0.0,0.0,0.0,0.0,0.0,0.0,0.0,0.0,0.0,0.0,0.0,0.0,0.0,0.0,0.0,0.0,0.0,0.0,0.0,0.0,0.0,0.0,0.0,0.0,0.0,0.0,0.0,0.0,0.0,0.0,0.0,0.0,0.0,0.0,0.0,0.0,0.0,0.0,0.0,0.0,0.0,0.0,0.0,0.0,0.0,0.0,0.0,0.0,0.0,0.0,0.0,0.0,0.0,0.0,0.0,0.0,0.0,0.0,0.0,0.0,0.0,0.0,0.0,0.0,0.0,0.0,0.0,0.0,0.0,0.0,0.0,0.0,0.0,0.0,0.0,0.0,0.0,0.0,0.0,0.0,0.0,0.0,0.0,0.0,0.0,0.0,0.0,0.0,0.0,0.0,0.0,0.0,0.0,0.0,0.0,-4.2131,0.0,-4.3464,-4.195,-4.0876,-3.9044,0.0,0.0,0.0,0.0,0.0,0.0,0.0,0.0,0.0,0.0,0.0,0.0,0.0,0.0,0.0,0.0,0.0,0.0,0.0,0.0,0.0,0.0,0.0,0.0,0.0,0.0,0.0,0.0,0.0,0.0,0.0,0.0,0.0,0.0,0.0,0.0,0.0,0.0,0.0,0.0,0.0,0.0,0.0,0.0,0.0,0.0,0.0,0.0,0.0,0.0,0.0,0.0,0.0,0.0,0.0,0.0,0.0,0.0,0.0,0.0,0.0,0.0,0.0,0.0,0.0,0.0,0.0,0.0,0.0,0.0,0.0,0.0,0.0,0.0,0.0,0.0,0.0,0.0,0.0,0.0,0.0,0.0,0.0,0.0,0.0,0.0,0.0,0.0,0.0,0.0,0.0,0.0,0.0,0.0,0.0,0.0,0.0,0.0,0.0,0.0,0.0,0.0,0.0,0.0,0.0,0.0,0.0,0.0,-4.0534,-4.1483,-4.3252,-4.3466,-4.2015,-4.1987,-4.0507,0.0,0.0,0.0,0.0,0.0,0.0,0.0,0.0,0.0,0.0,0.0,0.0,0.0,0.0,0.0,0.0,0.0,0.0,0.0,0.0,0.0,0.0,0.0,0.0,0.0,0.0,0.0,0.0,0.0,0.0,0.0,0.0,0.0,0.0,0.0,0.0,0.0,0.0,0.0,0.0,0.0,0.0,0.0,0.0,0.0,0.0,0.0,0.0,0.0,0.0,0.0,0.0,0.0,0.0,0.0,0.0,0.0,0.0,0.0,0.0,0.0,0.0,0.0,0.0,0.0,0.0,0.0,0.0,0.0,0.0,0.0,0.0,0.0,0.0,0.0,0.0,0.0,0.0,0.0,0.0,0.0,0.0,0.0,0.0,0.0,0.0,0.0,0.0,0.0,0.0,0.0,0.0,0.0,0.0,0.0,0.0,0.0,0.0,0.0,0.0,0.0,0.0,0.0,0.0,0.0,0.0,0.0,0.0,0.0,-4.3434,-4.3399,-4.3566,-4.3888,-4.2207,-4.0283,0.0,0.0,0.0,0.0,0.0,0.0,0.0,0.0,0.0,0.0,0.0,0.0,0.0,0.0,0.0,0.0,0.0,0.0,0.0,0.0,0.0,0.0,0.0,0.0,0.0,0.0,0.0,0.0,0.0,0.0,0.0,0.0,0.0,0.0,0.0,0.0,0.0,0.0,0.0,0.0,0.0,0.0,0.0,0.0,0.0,0.0,0.0,0.0,0.0,0.0,0.0,0.0,0.0,0.0,0.0,0.0,0.0,0.0,0.0,0.0,0.0,0.0,0.0,0.0,0.0,0.0,0.0,0.0,0.0,0.0,0.0,0.0,0.0,0.0,0.0,0.0,0.0,0.0,0.0,0.0,0.0,0.0,0.0,0.0,0.0,0.0,0.0,0.0,0.0,0.0,0.0,0.0,0.0,0.0,0.0,0.0,0.0,0.0,0.0,0.0,0.0,0.0,0.0,0.0,0.0,0.0,0.0,0.0,0.0,-4.5637,-4.4799,-4.4739,-4.5667,-4.4053,-4.2005,-3.9565,0.0,0.0,0.0,0.0,0.0,0.0,0.0,0.0,0.0,0.0,0.0,0.0,0.0,0.0,0.0,0.0,0.0,0.0,0.0,0.0,0.0,0.0,0.0,0.0,0.0,0.0,0.0,0.0,0.0,0.0,0.0,0.0,0.0,0.0,0.0,0.0,0.0,0.0,0.0,0.0,0.0,0.0,0.0,0.0,0.0,0.0,0.0,0.0,0.0,0.0,0.0,0.0,0.0,0.0,0.0,0.0,0.0,0.0,0.0,0.0,0.0,0.0,0.0,0.0,0.0,0.0,0.0,0.0,0.0,0.0,0.0,0.0,0.0,0.0,0.0,0.0,0.0,0.0,0.0,0.0,0.0,0.0,0.0,0.0,0.0,0.0,0.0,0.0,0.0,0.0,0.0,0.0,0.0,0.0,0.0,0.0,0.0,0.0,0.0,0.0,0.0,0.0,0.0,0.0,0.0,0.0,0.0,0.0,-4.8116,-4.7277,-4.6945,-4.7248,-4.7004,-4.5188,0.0,0.0,0.0,0.0,0.0,0.0,0.0,0.0,0.0,0.0,0.0,0.0,0.0,0.0,0.0,0.0,0.0,0.0,0.0,0.0,0.0,0.0,0.0,0.0,0.0,0.0,0.0,0.0,0.0,0.0,0.0,0.0,0.0,0.0,0.0,0.0,0.0,0.0,0.0,0.0,0.0,0.0,0.0,0.0,0.0,0.0,0.0,0.0,0.0,0.0,0.0,0.0,0.0,0.0,0.0,0.0,0.0,0.0,0.0,0.0,0.0,0.0,0.0,0.0,0.0,0.0,0.0,0.0,0.0,0.0,0.0,0.0,0.0,0.0,0.0,0.0,0.0,0.0,0.0,0.0,0.0,0.0,0.0,0.0,0.0,0.0,0.0,0.0,0.0,0.0,0.0,0.0,0.0,0.0,0.0,0.0,0.0,0.0,0.0,0.0,0.0,0.0,0.0,0.0,0.0,0.0,0.0,0.0,0.0,-4.9808,-5.0288,-5.0322,-4.9918,-4.7556,-4.5541,0.0,0.0,0.0,0.0,0.0,0.0,0.0,0.0,0.0,0.0,0.0,0.0,0.0,0.0,0.0,0.0,0.0,0.0,0.0,0.0,0.0,0.0,0.0,0.0,0.0,0.0,0.0,0.0,0.0,0.0,0.0,0.0,0.0,0.0,0.0,0.0,0.0,0.0,0.0,0.0,0.0,0.0,0.0,0.0,0.0,0.0,0.0,0.0,0.0,0.0,0.0,0.0,0.0,0.0,0.0,0.0,0.0,0.0,0.0,0.0,0.0,0.0,0.0,0.0,0.0,0.0,0.0,0.0,0.0,0.0,0.0,0.0,0.0,0.0,0.0,0.0,0.0,0.0,0.0,0.0,0.0,0.0,0.0,0.0,0.0,0.0,0.0,0.0,0.0,0.0,0.0,0.0,0.0,0.0,0.0,0.0,0.0,0.0,0.0,0.0,0.0,0.0,0.0,0.0,0.0,0.0,0.0,0.0,-4.9256,-5.1607,-5.2926,-5.3636,-5.3734,-4.9737,-4.6901,0.0,0.0,0.0,0.0,0.0,0.0,0.0,0.0,0.0,0.0,0.0,0.0,0.0,0.0,0.0,0.0,0.0,0.0,0.0,0.0,0.0,0.0,0.0,0.0,0.0,0.0,0.0,0.0,0.0,0.0,0.0,0.0,0.0,0.0,0.0,0.0,0.0,0.0,0.0,0.0,0.0,0.0,0.0,0.0,0.0,0.0,0.0,0.0,0.0,0.0,0.0,0.0,0.0,0.0,0.0,0.0,0.0,0.0,0.0,0.0,0.0,0.0,0.0,0.0,0.0,0.0,0.0,0.0,0.0,0.0,0.0,0.0,0.0,0.0,0.0,0.0,0.0,0.0,0.0,0.0,0.0,0.0,0.0,0.0,0.0,0.0,0.0,0.0,0.0,0.0,0.0,0.0,0.0,0.0,0.0,0.0,0.0,0.0,0.0,0.0,0.0,0.0,0.0,0.0,0.0,0.0,0.0,0.0,-5.1349,-5.3234,-5.5082,-5.6509,-5.7321,-5.2607,-4.8852,0.0,0.0,0.0,0.0,0.0,0.0,0.0,0.0,0.0,0.0,0.0,0.0,0.0,0.0,0.0,0.0,0.0,0.0,0.0,0.0,0.0,0.0,0.0,0.0,0.0,0.0,0.0,0.0,0.0,0.0,0.0,0.0,0.0,0.0,0.0,0.0,0.0,0.0,0.0,0.0,0.0,0.0,0.0,0.0,0.0,0.0,0.0,0.0,0.0,0.0,0.0,0.0,0.0,0.0,0.0,0.0,0.0,0.0,0.0,0.0,0.0,0.0,0.0,0.0,0.0,0.0,0.0,0.0,0.0,0.0,0.0,0.0,0.0,0.0,0.0,0.0,0.0,0.0,0.0,0.0,0.0,0.0,0.0,0.0,0.0,0.0,0.0,0.0,0.0,0.0,0.0,0.0,0.0,0.0,0.0,0.0,0.0,0.0,0.0,0.0,0.0,0.0,0.0,0.0,0.0,0.0,0.0,0.0,-5.2318,-5.4315,-5.6042,-5.7164,-5.7639,-5.3336,-5.0124,0.0,0.0,0.0,0.0,0.0,0.0,0.0,0.0,0.0,0.0,0.0,0.0,0.0,0.0,0.0,0.0,0.0,0.0,0.0,0.0,0.0,0.0,0.0,0.0,0.0,0.0,0.0,0.0,0.0,0.0,0.0,0.0,0.0,0.0,0.0,0.0,0.0,0.0,0.0,0.0,0.0,0.0,0.0,0.0,0.0,0.0,0.0,0.0,-4.7715,0.0,0.0,0.0,0.0,0.0,0.0,0.0,0.0,0.0,0.0,0.0,0.0,0.0,0.0,0.0,0.0,0.0,0.0,0.0,0.0,0.0,0.0,0.0,0.0,0.0,0.0,0.0,0.0,0.0,0.0,0.0,0.0,0.0,0.0,0.0,0.0,0.0,0.0,0.0,0.0,0.0,0.0,0.0,0.0,0.0,0.0,0.0,0.0,0.0,0.0,0.0,0.0,0.0,0.0,0.0,0.0,0.0,0.0,0.0,-5.2927,-5.5644,-5.6683,-5.7509,-5.799,-5.41,-5.0926,0.0,0.0,0.0,0.0,0.0,0.0,0.0,0.0,0.0,0.0,0.0,0.0,0.0,0.0,0.0,0.0,0.0,0.0,0.0,0.0,0.0,0.0,0.0,0.0,0.0,0.0,0.0,0.0,0.0,0.0,0.0,0.0,0.0,0.0,0.0,0.0,0.0,0.0,0.0,0.0,0.0,0.0,0.0,0.0,0.0,0.0,0.0,0.0,0.0,0.0,0.0,0.0,0.0,0.0,0.0,0.0,0.0,0.0,0.0,0.0,0.0,0.0,0.0,0.0,0.0,0.0,0.0,0.0,0.0,0.0,0.0,0.0,0.0,0.0,0.0,0.0,0.0,0.0,0.0,0.0,0.0,0.0,0.0,0.0,0.0,0.0,0.0,0.0,0.0,0.0,0.0,0.0,0.0,0.0,0.0,0.0,0.0,0.0,0.0,0.0,0.0,0.0,0.0,0.0,0.0,0.0,0.0,-5.0057,-5.3376,-5.6907,-5.7284,-5.7694,-5.824,-5.4611,-5.1335,-4.8674,0.0,0.0,0.0,0.0,0.0,0.0,0.0,0.0,0.0,0.0,0.0,0.0,0.0,0.0,0.0,0.0,0.0,0.0,0.0,0.0,0.0,0.0,0.0,0.0,0.0,0.0,0.0,0.0,0.0,0.0,0.0,0.0,0.0,0.0,0.0,0.0,0.0,0.0,-4.3651,-4.5295,0.0,0.0,0.0,0.0,0.0,0.0,0.0,0.0,-4.7816,0.0,0.0,0.0,0.0,0.0,0.0,0.0,0.0,0.0,0.0,0.0,0.0,0.0,0.0,0.0,0.0,0.0,0.0,0.0,0.0,0.0,0.0,0.0,0.0,0.0,0.0,0.0,0.0,0.0,0.0,0.0,0.0,0.0,0.0,0.0,0.0,0.0,0.0,0.0,0.0,0.0,0.0,0.0,0.0,0.0,0.0,0.0,0.0,0.0,0.0,0.0,0.0,0.0,0.0,0.0,0.0,-4.9415,-5.0904,-5.3663,-5.7868,-5.8114,-5.7686,-5.6596,-5.4013,-5.1062,-4.7875,0.0,0.0,0.0,0.0,0.0,0.0,0.0,0.0,0.0,0.0,0.0,0.0,0.0,0.0,0.0,0.0,0.0,0.0,0.0,0.0,0.0,0.0,0.0,0.0,0.0,0.0,0.0,0.0,0.0,0.0,0.0,0.0,0.0,0.0,0.0,0.0,0.0,0.0,0.0,-4.7098,-4.7633,0.0,0.0,0.0,0.0,0.0,0.0,0.0,0.0,-4.9179,0.0,0.0,0.0,0.0,0.0,0.0,0.0,0.0,0.0,0.0,0.0,0.0,0.0,0.0,0.0,0.0,0.0,0.0,0.0,0.0,0.0,0.0,0.0,0.0,0.0,0.0,0.0,0.0,0.0,0.0,0.0,0.0,0.0,0.0,0.0,0.0,0.0,0.0,0.0,0.0,0.0,0.0,0.0,0.0,0.0,0.0,0.0,0.0,0.0,0.0,0.0,0.0,0.0,0.0,0.0,-4.8734,-5.1051,-5.3854,-5.7222,-5.7621,-5.7431,-5.6695,-5.3608,-5.075,0.0,0.0,0.0,0.0,0.0,0.0,0.0,0.0,0.0,0.0,0.0,0.0,0.0,0.0,0.0,0.0,0.0,0.0,0.0,0.0,0.0,0.0,0.0,0.0,0.0,0.0,0.0,0.0,0.0,0.0,0.0,0.0,0.0,0.0,0.0,0.0,0.0,0.0,0.0,0.0,-4.7927,-4.8524,-5.0283,0.0,0.0,0.0,0.0,0.0,0.0,-4.999,-4.9728,0.0,0.0,0.0,0.0,0.0,0.0,0.0,0.0,0.0,0.0,0.0,0.0,0.0,0.0,0.0,0.0,0.0,0.0,0.0,0.0,0.0,0.0,0.0,0.0,0.0,0.0,0.0,0.0,0.0,0.0,0.0,0.0,0.0,0.0,0.0,0.0,0.0,0.0,0.0,0.0,0.0,0.0,0.0,0.0,0.0,0.0,0.0,0.0,0.0,0.0,0.0,0.0,0.0,0.0,0.0,-4.7895,-5.0728,-5.3608,-5.6415,-5.6603,-5.6567,-5.6351,-5.2891,-5.0128,0.0,0.0,0.0,0.0,0.0,0.0,0.0,0.0,0.0,0.0,0.0,0.0,0.0,0.0,0.0,0.0,0.0,0.0,0.0,0.0,0.0,0.0,0.0,0.0,0.0,0.0,0.0,0.0,0.0,0.0,0.0,0.0,0.0,0.0,0.0,0.0,0.0,0.0,0.0,0.0,0.0,-4.9443,-5.1075,-5.0134,0.0,0.0,0.0,0.0,-4.9898,-5.04,0.0,0.0,0.0,0.0,0.0,0.0,0.0,0.0,0.0,0.0,0.0,0.0,0.0,0.0,0.0,0.0,0.0,0.0,0.0,0.0,0.0,0.0,0.0,0.0,0.0,0.0,0.0,0.0,0.0,0.0,0.0,0.0,0.0,0.0,0.0,0.0,0.0,0.0,0.0,0.0,0.0,0.0,0.0,0.0,0.0,0.0,0.0,0.0,0.0,0.0,0.0,0.0,0.0,0.0,0.0,0.0,-4.8536,-4.9872,-5.245,-5.6221,-5.5332,-5.44,-5.3735,-5.1289,-4.8876,0.0,0.0,0.0,0.0,0.0,0.0,0.0,0.0,0.0,0.0,0.0,0.0,0.0,0.0,0.0,0.0,0.0,0.0,0.0,0.0,0.0,0.0,0.0,0.0,0.0,0.0,0.0,0.0,0.0,0.0,0.0,0.0,0.0,0.0,0.0,0.0,0.0,0.0,0.0,0.0,0.0,-5.0259,-5.2158,-5.1596,-5.1,0.0,0.0,-5.2543,-5.321,-5.3397,0.0,0.0,0.0,0.0,0.0,0.0,0.0,0.0,0.0,0.0,0.0,0.0,0.0,0.0,0.0,0.0,0.0,0.0,0.0,0.0,0.0,0.0,0.0,0.0,0.0,0.0,0.0,0.0,0.0,0.0,0.0,0.0,0.0,0.0,0.0,0.0,0.0,0.0,0.0,0.0,0.0,0.0,0.0,0.0,0.0,0.0,0.0,0.0,0.0,0.0,0.0,0.0,0.0,0.0,0.0,-4.4569,-4.7352,-4.9682,-5.2012,-5.4243,-5.3908,-5.3503,-5.3195,-5.043,-4.8041,0.0,0.0,0.0,0.0,0.0,0.0,0.0,0.0,0.0,0.0,0.0,0.0,0.0,0.0,0.0,0.0,0.0,0.0,0.0,0.0,0.0,0.0,0.0,0.0,0.0,0.0,0.0,0.0,0.0,0.0,0.0,0.0,0.0,0.0,0.0,0.0,0.0,0.0,0.0,0.0,0.0,0.0,-5.1706,-5.1905,0.0,0.0,0.0,-5.2957,-5.1865,0.0,0.0,0.0,0.0,0.0,0.0,0.0,0.0,0.0,0.0,0.0,0.0,0.0,0.0,0.0,0.0,0.0,0.0,0.0,0.0,0.0,0.0,0.0,0.0,0.0,0.0,0.0,0.0,0.0,0.0,0.0,0.0,0.0,0.0,0.0,0.0,0.0,0.0,0.0,0.0,0.0,0.0,0.0,0.0,0.0,0.0,0.0,0.0,0.0,0.0,0.0,0.0,0.0,0.0,0.0,0.0,0.0,-4.6282,-4.9423,-5.1586,-5.2596,-5.2476,-5.2487,-5.2692,-5.0003,0.0,0.0,0.0,0.0,0.0,0.0,0.0,0.0,0.0,0.0,0.0,0.0,0.0,0.0,0.0,0.0,0.0,0.0,0.0,0.0,0.0,0.0,0.0,0.0,0.0,0.0,0.0,-3.5735,0.0,0.0,0.0,0.0,0.0,0.0,0.0,0.0,0.0,0.0,0.0,0.0,0.0,0.0,-5.1206,-5.1215,-5.2144,-5.2933,0.0,0.0,-5.3288,-5.1573,-5.367,-5.4126,0.0,0.0,0.0,0.0,0.0,0.0,0.0,0.0,0.0,0.0,0.0,0.0,0.0,0.0,0.0,0.0,0.0,0.0,0.0,0.0,0.0,0.0,0.0,0.0,0.0,0.0,0.0,0.0,0.0,0.0,0.0,0.0,0.0,0.0,0.0,0.0,0.0,0.0,0.0,0.0,0.0,0.0,0.0,0.0,0.0,0.0,0.0,0.0,0.0,0.0,0.0,0.0,0.0,0.0,-4.4528,-4.6234,-4.8764,-5.0892,-5.2387,-5.1123,-5.0857,-5.1736,-5.0115,-4.7827,0.0,0.0,0.0,0.0,0.0,0.0,0.0,0.0,0.0,0.0,0.0,0.0,0.0,0.0,0.0,0.0,0.0,0.0,0.0,0.0,0.0,0.0,0.0,0.0,0.0,0.0,0.0,0.0,0.0,0.0,0.0,0.0,0.0,0.0,0.0,0.0,0.0,0.0,0.0,0.0,0.0,-5.1206,-5.1215,-5.265,-5.4022,0.0,-5.4375,-5.4102,-5.4745,-5.5688,-5.5205,-5.1693,0.0,0.0,0.0,0.0,0.0,0.0,0.0,0.0,0.0,0.0,0.0,0.0,0.0,0.0,0.0,0.0,0.0,0.0,0.0,0.0,0.0,0.0,0.0,0.0,0.0,0.0,0.0,0.0,0.0,0.0,0.0,0.0,0.0,0.0,0.0,0.0,0.0,0.0,0.0,0.0,0.0,0.0,0.0,0.0,0.0,0.0,0.0,0.0,0.0,0.0,0.0,0.0,0.0,-4.3474,-4.4687,-4.8194,-5.0328,-5.0916,-5.0418,-5.0352,-5.075,-4.9701,-4.7626,0.0,0.0,0.0,0.0,0.0,0.0,0.0,0.0,0.0,0.0,0.0,0.0,0.0,0.0,0.0,0.0,0.0,0.0,0.0,0.0,0.0,0.0,0.0,0.0,0.0,0.0,0.0,0.0,-4.0593,-4.0833,-4.1515,0.0,0.0,0.0,0.0,0.0,0.0,0.0,0.0,0.0,0.0,-5.1444,-5.2572,-5.3816,0.0,0.0,-5.4883,-5.4433,-5.3712,-5.432,-5.3736,-5.0298,-4.9772,0.0,0.0,0.0,0.0,0.0,0.0,0.0,0.0,0.0,0.0,0.0,0.0,0.0,0.0,0.0,0.0,0.0,0.0,0.0,0.0,0.0,0.0,0.0,0.0,0.0,0.0,0.0,0.0,0.0,0.0,0.0,0.0,0.0,0.0,0.0,0.0,0.0,0.0,0.0,0.0,0.0,0.0,0.0,0.0,0.0,0.0,0.0,0.0,0.0,0.0,0.0,0.0,-4.2943,-4.4061,-4.7941,-4.9978,-4.9959,-5.0025,-5.0095,-5.0139,-4.963,-4.7868,0.0,0.0,0.0,0.0,0.0,0.0,0.0,0.0,0.0,0.0,0.0,0.0,0.0,0.0,0.0,0.0,0.0,0.0,0.0,0.0,0.0,0.0,0.0,0.0,0.0,0.0,0.0,0.0,-4.1879,-4.199,-4.199,0.0,0.0,0.0,0.0,0.0,0.0,0.0,0.0,0.0,0.0,-5.1985,-5.2796,-5.3693,-5.4186,-5.3973,-5.3764,-5.3303,-5.2353,-5.2957,-5.2606,-4.9995,0.0,0.0,0.0,0.0,0.0,0.0,0.0,0.0,0.0,0.0,0.0,0.0,0.0,0.0,0.0,0.0,0.0,0.0,0.0,0.0,0.0,0.0,0.0,0.0,0.0,0.0,0.0,-3.7179,0.0,0.0,-3.4568,0.0,0.0,0.0,0.0,0.0,0.0,0.0,0.0,0.0,0.0,0.0,0.0,0.0,0.0,0.0,0.0,0.0,0.0,0.0,0.0,0.0,0.0,-4.3197,-4.4876,-4.8187,-4.9893,-4.9893,-4.9959,-4.9999,-4.9999,-5.0107,-4.8659,-4.5458,0.0,0.0,0.0,0.0,0.0,0.0,0.0,0.0,0.0,0.0,0.0,0.0,0.0,0.0,0.0,0.0,0.0,0.0,0.0,0.0,0.0,0.0,0.0,0.0,0.0,0.0,-4.0965,-4.1525,-4.199,0.0,0.0,0.0,0.0,0.0,0.0,0.0,0.0,0.0,-4.9309,-5.1768,-5.2916,-5.134,-5.1878,-5.2249,-5.1497,-5.0707,-5.0424,-5.1219,-5.2041,-5.2314,0.0,0.0,0.0,0.0,0.0,0.0,0.0,0.0,0.0,0.0,0.0,0.0,0.0,0.0,0.0,0.0,0.0,0.0,0.0,0.0,0.0,0.0,0.0,0.0,0.0,0.0,0.0,-3.7916,-3.6694,0.0,0.0,0.0,0.0,0.0,0.0,0.0,0.0,0.0,0.0,0.0,-4.1887,-4.2737,0.0,0.0,0.0,0.0,0.0,0.0,0.0,0.0,0.0,0.0,0.0,0.0,-4.2981,-4.4213,-4.794,-4.9893,-4.9893,-4.9925,-4.9965,-4.9986,-5.0057,-4.8605,-4.5496,0.0,0.0,0.0,0.0,0.0,0.0,0.0,0.0,0.0,0.0,0.0,0.0,0.0,0.0,0.0,0.0,0.0,0.0,0.0,0.0,0.0,0.0,0.0,0.0,0.0,-4.1723,0.0,0.0,0.0,0.0,0.0,0.0,0.0,0.0,0.0,0.0,0.0,-4.9304,-5.0265,-5.064,-5.0839,-5.0917,-5.1229,-5.1574,0.0,0.0,0.0,0.0,0.0,0.0,0.0,0.0,0.0,0.0,0.0,0.0,0.0,0.0,-4.9054,-4.7382,-4.6652,-4.6633,-4.7754,0.0,0.0,0.0,0.0,0.0,0.0,0.0,0.0,0.0,0.0,0.0,0.0,0.0,0.0,-3.9632,0.0,-3.7719,0.0,0.0,0.0,0.0,0.0,0.0,0.0,0.0,-4.3088,-4.3978,-4.4088,-4.4895,-4.5114,0.0,-4.4586,-4.2923,0.0,0.0,0.0,0.0,0.0,0.0,0.0,0.0,-4.3163,-4.4152,-4.7559,-4.9422,-4.9462,-4.9476,-4.9356,-4.9092,-4.8833,-4.7646,-4.5357,-4.3187,-4.0975,0.0,0.0,0.0,0.0,0.0,0.0,0.0,0.0,0.0,0.0,0.0,0.0,0.0,0.0,0.0,0.0,0.0,0.0,0.0,0.0,0.0,0.0,0.0,-4.204,0.0,0.0,0.0,0.0,0.0,0.0,0.0,0.0,0.0,-4.9026,-4.9294,-4.9854,-5.1114,-5.075,-5.0411,-5.0465,0.0,0.0,0.0,0.0,0.0,0.0,0.0,-4.8927,-4.8105,-4.8748,-4.9604,-5.0447,-5.0987,-5.1294,-5.1308,0.0,0.0,-4.9175,-4.8865,-4.9281,-5.0333,-5.0561,-5.0887,-5.2019,-5.1804,-5.1394,0.0,0.0,0.0,0.0,0.0,0.0,0.0,0.0,-4.3036,-4.2769,0.0,-4.0269,0.0,0.0,0.0,0.0,0.0,-4.1221,0.0,0.0,-4.5824,-4.6551,-4.5838,-4.5873,-4.5873,-4.586,-4.5453,-4.4802,-4.3992,-4.3099,0.0,0.0,0.0,0.0,0.0,0.0,-4.3837,-4.4781,-4.7221,-4.8536,-4.8691,-4.8717,-4.8287,-4.7466,-4.672,-4.5995,-4.5141,-4.3561,-4.1914,-4.0231,-3.7987,0.0,0.0,0.0,0.0,0.0,0.0,0.0,0.0,0.0,0.0,0.0,0.0,0.0,0.0,0.0,0.0,0.0,0.0,0.0,0.0,-4.1234,0.0,0.0,0.0,0.0,0.0,0.0,0.0,0.0,0.0,0.0,-4.83,-4.9106,-5.022,-5.1643,0.0,0.0,0.0,0.0,-4.8839,-4.6448,-4.6075,-4.6212,-4.6337,-4.8389,-5.0256,-5.1035,0.0,0.0,-5.3949,-5.2519,-5.1588,-5.1497,-5.2286,-5.245,-5.1655,-5.146,-5.1483,-5.1578,-5.1645,-5.1572,-5.1609,-5.198,-5.1824,-4.678,0.0,0.0,0.0,0.0,-4.3693,-4.4303,-4.5445,-4.4999,-4.4607,-4.4193,-4.2784,0.0,0.0,0.0,0.0,0.0,0.0,-4.329,-4.4596,-4.5658,-4.6337,-4.6676,-4.7252,-4.752,-4.7502,-4.7361,-4.7192,-4.6941,-4.6367,-4.3926,-3.9823,0.0,0.0,0.0,0.0,-4.3955,-4.5453,-4.7994,-4.9046,-4.8517,-4.8645,-4.8268,-4.7416,-4.6682,-4.62,-4.5976,-4.4947,-4.3618,-4.1952,-4.0633,0.0,0.0,0.0,0.0,0.0,0.0,0.0,0.0,0.0,0.0,0.0,0.0,0.0,0.0,0.0,0.0,0.0,0.0,0.0,-4.1017,-4.1942,-4.2446,0.0,0.0,0.0,0.0,0.0,0.0,0.0,0.0,0.0,-4.9188,-4.9382,-4.9461,0.0,0.0,-4.8159,-4.7057,-4.7465,-4.7821,-4.7692,-4.7753,0.0,-4.942,-4.9753,-4.9943,-5.0192,-5.192,-5.3186,-5.2931,-5.4059,-5.5011,-5.4987,-5.5225,-5.5298,-5.5023,-5.4016,-5.3495,-5.3943,-5.4146,-5.442,-5.4966,-5.5103,-5.5083,-4.8764,-4.7064,-4.5815,-4.5606,-4.598,-4.5695,-4.6551,-4.8086,-4.7461,-4.7082,-4.685,-4.5481,-4.3829,-4.2011,-4.1023,0.0,0.0,0.0,-4.41,-4.5512,-4.5904,-4.6333,-4.6702,-4.7163,-4.7483,-4.7553,-4.7699,-4.7763,-4.7717,-4.6924,-4.5039,-4.2134,0.0,0.0,-4.0756,-4.3263,-4.5071,-4.6139,-4.7988,-4.8807,-4.8409,-4.7956,-4.7605,-4.7409,-4.6316,-4.5752,-4.5733,-4.5276,-4.4547,-4.3559,-4.2392,-4.094,0.0,0.0,0.0,0.0,0.0,0.0,0.0,0.0,0.0,0.0,0.0,-3.8064,-3.6548,0.0,0.0,0.0,-3.9824,-4.1271,-4.2216,-4.2877,0.0,0.0,0.0,0.0,0.0,0.0,0.0,-4.654,-4.7571,-4.8512,-4.91,-4.9076,-4.9225,-4.9815,-4.8875,-4.7927,-4.7424,0.0,-4.8198,-4.8372,-4.8428,-4.8928,-5.0305,-5.0681,-5.1121,-5.2181,-5.2935,-5.3611,-5.3975,-5.5355,-5.6349,-5.6388,-5.6388,-5.6383,-5.6386,-5.5547,-5.5069,-5.5605,-5.5735,-5.5977,-5.6491,-5.6604,-5.6604,-4.9975,-4.8996,-4.6122,-4.6239,-4.8199,-4.7551,-4.8883,-5.1415,-4.9958,-4.9762,-5.026,-4.8158,-4.6594,-4.5417,-4.2979,0.0,-4.4196,-4.4359,-4.5117,-4.6298,-4.6488,-4.6447,-4.6211,-4.6211,-4.6297,-4.6501,-4.6791,-4.6887,-4.673,-4.5605,-4.496,-4.4811,-4.5608,-4.4806,-4.2621,-4.505,-4.6451,-4.652,-4.7338,-4.7975,-4.8357,-4.7002,-4.6607,-4.7264,-4.5805,-4.499,-4.4895,-4.4895,-4.4895,-4.4838,-4.3426,-4.2223,-4.1323,0.0,0.0,0.0,0.0,0.0,0.0,0.0,0.0,0.0,0.0,0.0,0.0,0.0,0.0,-4.1014,-4.2037,0.0,-4.3874,-4.4076,0.0,0.0,0.0,-4.4891,-4.6479,-4.6758,-4.7126,-4.797,0.0,0.0,-4.8458,-4.8493,-4.937,-5.1776,-5.0635,-4.9591,-4.961,-4.9552,-4.9417,-4.8662,-4.8643,-4.9071,-5.0291,-5.1552,-5.3169,-5.5184,-5.5489,-5.5165,-5.5741,-5.6104,-5.6194,-5.6226,-5.622,-5.622,-5.622,-5.6186,-5.6332,-5.6403,-5.6464,-5.6479,-5.6595,-5.6606,-5.6606,-4.9422,-4.863,-4.789,-4.813,-4.9061,-4.9277,-4.9788,-5.0401,-4.9861,-4.9713,-4.9854,-4.9299,-4.8244,-4.6755,-4.5558,-4.5551,-4.6452,-4.5965,-4.6217,-4.6976,-4.6523,-4.6277,-4.6211,-4.6211,-4.5936,-4.5481,-4.5541,-4.5357,-4.4951,-4.4627,-4.3957,-4.3036,-4.4001,-4.3688,-4.2136,-4.3373,-4.4342,-4.4965,-4.6086,-4.7252,-4.8324,-4.7456,-4.6838,-4.6487,-4.6108,-4.5577,-4.4933,-4.4895,-4.4895,-4.4876,-4.3959,-4.3031,-4.2159,-3.8786,0.0,0.0,0.0,0.0,0.0,0.0,0.0,0.0,0.0,-3.947,-3.685,0.0,-4.0617,0.0,-4.2961,-4.5242,-4.6069,-4.6253,0.0,0.0,-4.5718,-4.6161,-4.698,-4.7953,-4.8388,-4.7843,-4.8456,-4.8981,-4.9148,-4.9166,-4.9652,-5.0959,-4.9784,-4.8701,-4.872,-4.9301,-4.9629,-4.9533,-5.0422,-5.1591,-5.2438,-5.3491,-5.4389,-5.5025,-5.5009,-5.5014,-5.5201,-5.5773,-5.6214,-5.6214,-5.6214,-5.6214,-5.6214,-5.6219,-5.6258,-5.634,-5.6401,-5.6464,-5.6577,-5.6612,-5.6614,-4.9513,-4.8565,-4.9232,-4.8886,-4.7995,-4.8985,-4.9597,-4.9871,-4.9407,-4.9021,-4.8679,-4.889,-4.8697,-4.8146,-4.7561,-4.7343,-4.7404,-4.6828,-4.6723,-4.6934,-4.598,-4.5456,-4.5356,-4.5025,-4.4691,-4.4393,-4.4375,-4.429,-4.4135,-4.4231,-4.4112,-4.3746,-4.4456,-4.4212,-4.3164,-4.3196,-4.3505,-4.4033,-4.5399,-4.682,-4.8219,-4.7641,-4.6836,-4.5865,-4.5542,-4.472,-4.331,-4.3587,-4.3455,-4.2723,-4.2621,-4.2192,-4.1283,-3.8812,-3.739,0.0,0.0,0.0,0.0,0.0,0.0,0.0,0.0,0.0,0.0,0.0,-4.2705,-4.2811,-4.5218,-4.6813,-4.6888,-4.6957,-4.6948,-4.6828,-4.7041,-4.7456,-4.8102,-4.8835,-4.9112,-4.8663,-4.9073,-4.9465,-4.9595,-4.9748,-5.0048,-5.0595,-5.0005,-4.951,-4.9544,-4.995,-5.0221,-5.0279,-5.1351,-5.2655,-5.3865,-5.4484,-5.4929,-5.5219,-5.5067,-5.4944,-5.5312,-5.5777,-5.6117,-5.6097,-5.6117,-5.6117,-5.6117,-5.6117,-5.6141,-5.6239,-5.6285,-5.6352,-5.6484,-5.6554,-5.6605,-4.9771,-4.8714,-5.0052,-4.9082,-4.6788,-4.7918,-4.8653,-4.9021,-4.8346,-4.783,-4.7463,-4.7866,-4.8541,-4.9358,-4.9089,-4.8603,-4.7976,-4.7367,-4.6924,-4.6527,-4.5251,-4.447,-4.4121,-4.35,-4.3227,-4.3308,-4.3308,-4.3399,-4.357,-4.3812,-4.4226,-4.482,-4.5058,-4.4781,-4.4021,-4.3352,-4.3158,-4.3511,-4.5021,-4.6507,-4.7904,-4.7259,-4.6312,-4.5133,-4.4481,-4.3233,-4.135,-4.1933,-4.1673,-4.031,-4.0931,-4.1094,-4.0525,-3.885,-3.8016,0.0,-3.6679,0.0,0.0,0.0,0.0,0.0,0.0,0.0,0.0,-4.4646,-4.5382,-4.69,-4.7762,-4.7953,-4.735,-4.7312,-4.7556,-4.8212,-4.8321,-4.8599,-4.9256,-4.9399,-4.9472,-4.9637,-4.9665,-4.973,-4.9848,-5.0145,-5.0309,-5.0406,-5.0587,-5.0645,-5.0835,-5.0832,-5.0879,-5.1033,-5.1912,-5.3265,-5.4581,-5.4967,-5.5219,-5.576,-5.5451,-5.5219,-5.5838,-5.5973,-5.6012,-5.6012,-5.602,-5.602,-5.6003,-5.6012,-5.6001,-5.5968,-5.5966,-5.6071,-5.6325,-5.6347,-5.6461,-4.8944,-4.9086,-4.9389,-4.9406,-4.9214,-4.8235,-4.7011,-4.5626,-4.5259,-4.6091,-4.764,-4.7731,-4.8577,-4.9838,-4.9798,-4.9717,-4.951,-4.8187,-4.7237,-4.6544,-4.507,-4.4034,-4.3414,-4.3258,-4.2886,-4.2331,-4.2279,-4.2087,-4.1719,-4.1742,-4.1651,-4.1389,-4.1626,-4.1449,-4.0921,0.0,0.0,0.0,-4.446,-4.5678,-4.6481,-4.5046,-4.396,-4.3382,-4.3044,0.0,-4.1441,-4.1705,-4.1831,-4.1632,-4.1966,0.0,0.0,0.0,0.0,0.0,0.0,0.0,0.0,0.0,0.0,0.0,-4.3866,-4.415,-4.4266,-4.5388,-4.6584,-4.7612,-4.8352,-4.8957,-4.9441,-4.9478,-4.9311,-4.8826,-4.8903,-4.9078,-4.9225,-4.9321,-4.943,-4.9457,-4.9457,-4.9544,-4.9702,-4.9798,-4.9981,-5.0298,-5.0446,-5.0577,-5.0773,-5.083,-5.1169,-5.1873,-5.3188,-5.4581,-5.5625,-5.5722,-5.5752,-5.5954,-5.5915,-5.5838,-5.5954,-5.6003,-5.6003,-5.6003,-5.6003,-5.5993,-5.5965,-5.6003,-5.5711,-5.5199,-5.5098,-5.5404,-5.6206,-5.5889,-5.568,-4.8543,0.0,-4.8793,-4.8541,0.0,-4.7279,-4.5862,-4.4182,-4.5052,-4.6286,-4.7655,-4.731,-4.7775,-4.8838,-4.8493,-4.8338,-4.8252,-4.6734,-4.582,-4.5389,-4.3897,-4.2982,-4.2603,-4.224,-4.1843,-4.1481,-4.1464,-4.1304,-4.1059,-4.114,-4.1237,-4.1391,-4.1635,-4.2025,-4.253,-4.3375,-4.3782,-4.3678,-4.445,-4.5433,-4.6506,-4.5758,-4.4928,-4.4081,-4.3973,0.0,0.0,0.0,0.0,0.0,0.0,0.0,0.0,0.0,0.0,-4.4266,-4.3132,-4.2846,-4.385,-4.4899,-4.5866,-4.6623,-4.8075,-4.8267,-4.6666,-4.8348,-4.9371,-4.9068,-4.9315,-4.9485,-4.9503,-4.9522,-4.9355,-4.8964,-4.8995,-4.9046,-4.9062,-4.911,-4.9141,-4.916,-4.9141,-4.919,-4.9315,-4.9465,-4.9622,-4.9865,-5.0062,-5.0206,-5.0353,-5.0644,-5.1294,-5.2594,-5.3876,-5.5064,-5.581,-5.6003,-5.5984,-5.6003,-5.6003,-5.6003,-5.6003,-5.6003,-5.6003,-5.5965,-5.5702,-5.5412,-5.5374,-5.5084,-5.4639,-5.426,-5.4189,-5.4349,-5.4921,-5.4772,-5.4669,-4.8193,-4.8257,-4.8289,-4.7653,-4.6564,-4.6447,-4.5484,-4.4067,0.0,0.0,0.0,-4.682,-4.701,-4.7655,-4.7217,-4.6941,-4.6717,-4.5337,-4.457,-4.4225,-4.2723,-4.1947,-4.1792,-4.1188,-4.0981,-4.1101,-4.1101,-4.1084,-4.1101,-4.1255,-4.1615,-4.2131,-4.2375,-4.3302,-4.4847,-4.587,-4.5904,-4.4983,-4.4706,-4.5253,-4.6588,-4.6453,-4.5842,-4.48,-4.4803,-4.4033,-4.2332,-4.2985,-4.278,-4.148,-4.2306,-4.285,-4.2879,-4.2984,-4.3553,-4.4623,-4.4536,-4.5186,-4.688,-4.7748,-4.8969,-5.0659,-5.2046,-5.1899,-4.9707,-5.1435,-5.1936,-5.032,-5.0135,-4.9837,-4.9187,-4.9113,-4.9187,-4.9317,-4.9355,-4.9373,-4.9355,-4.9355,-4.9446,-4.9336,-4.9446,-4.928,-4.9203,-4.9386,-4.9559,-4.9618,-4.9769,-4.992,-5.0158,-5.0823,-5.1769,-5.3075,-5.4308,-5.5262,-5.5764,-5.5764,-5.5793,-5.5687,-5.558,-5.5541,-5.5531,-5.5531,-5.5531,-5.5412,-5.4987,-5.4639,-5.4523,-5.4078,-5.3459,-5.3285,-5.3265,-5.3236,-5.3146,-5.3267,-5.3501,-4.7371,-4.7803,-4.7787,-4.7916,-4.8017,-4.7398,-4.6642,-4.5786,-4.4991,-4.5027,-4.5759,-4.6328,-4.701,-4.7707,-4.8241,-4.812,-4.751,-4.6682,-4.5561,-4.4242,-4.2723,-4.1671,-4.1067,-4.0963,-4.124,-4.1802,-4.1843,-4.1861,-4.1861,-4.1868,-4.165,-4.119,-4.1314,-4.2329,-4.4015,-4.5076,-4.5834,-4.6247,-4.5192,-4.4822,-4.5252,-4.3772,-4.3025,-4.3033,-4.2907,-4.2649,-4.2392,-4.281,-4.2905,-4.2741,-4.3147,-4.3998,-4.5343,-4.4791,-4.545,-4.7571,-4.704,-4.6836,-4.7392,-4.8678,-5.025,-5.2104,-5.3144,-5.3181,-5.2215,-5.2401,-5.1899,-5.032,-5.0153,-5.006,-4.9913,-4.993,-5.0228,-5.0859,-5.1026,-5.1045,-5.0952,-5.0933,-5.0933,-5.0915,-5.1045,-5.0692,-5.006,-5.0002,-5.0138,-5.0277,-5.0047,-4.9845,-5.0775,-5.1856,-5.2719,-5.3407,-5.4699,-5.5654,-5.574,-5.5248,-5.492,-5.4814,-5.4263,-5.3963,-5.398,-5.398,-5.3988,-5.3915,-5.3818,-5.371,-5.3691,-5.3614,-5.3091,-5.255,-5.2376,-5.2198,-5.1617,-5.1586,-5.208,-4.6458,-4.6652,-4.6668,-4.6775,-4.6952,-4.629,-4.5809,-4.5408,-4.4322,-4.455,-4.5624,-4.5885,-4.6121,-4.6379,-4.5975,-4.5579,-4.5199,-4.4027,-4.313,-4.243,-4.174,-4.1464,-4.1492,-4.1498,-4.1912,-4.262,-4.2654,-4.2654,-4.262,-4.2223,-4.1826,-4.155,-4.2009,-4.2756,-4.3698,-4.4966,-4.5884,-4.6363,-4.6084,-4.5976,-4.6072,-4.5261,-4.4907,-4.5036,-4.4907,-4.486,-4.4886,-4.506,-4.5129,-4.515,-4.5477,-4.5941,-4.649,-4.6341,-4.6731,-4.7848,-4.7529,-4.7408,-4.7738,-4.8972,-5.0544,-5.2419,-5.294,-5.32,-5.3274,-5.2865,-5.2085,-5.0952,-5.0803,-5.0803,-5.0803,-5.0803,-5.0971,-5.1361,-5.1398,-5.1398,-5.1398,-5.1398,-5.1398,-5.1398,-5.1398,-5.1231,-5.0859,-5.0803,-5.0839,-5.0976,-5.0658,-5.0754,-5.1321,-5.2294,-5.316,-5.3724,-5.4795,-5.538,-5.5239,-5.4882,-5.4448,-5.4043,-5.3657,-5.3434,-5.3414,-5.3395,-5.3384,-5.3383,-5.3082,-5.2773,-5.2735,-5.2329,-5.1912,-5.1705,-5.1493,-5.1261,-5.1003,-5.1004,-5.1433,-4.5812,-4.5812,-4.5812,-4.5812,-4.5742,-4.5094,-4.4769,-4.4561,-4.3786,-4.4099,-4.5,-4.499,-4.493,-4.4753,-4.382,-4.3177,-4.2689,-4.1709,-4.1091,-4.0871,-4.0992,-4.1385,-4.1901,-4.2098,-4.2573,-4.3228,-4.3398,-4.3398,-4.3236,-4.276,-4.2344,-4.2137,-4.281,-4.3272,-4.3451,-4.4995,-4.593,-4.6137,-4.6572,-4.6865,-4.6929,-4.6957,-4.698,-4.6998,-4.698,-4.6998,-4.6998,-4.6998,-4.6998,-4.702,-4.7249,-4.7272,-4.7043,-4.7249,-4.7381,-4.7381,-4.7381,-4.7554,-4.7907,-4.8941,-5.0244,-5.1693,-5.2174,-5.2676,-5.3252,-5.303,-5.2456,-5.1807,-5.1658,-5.1676,-5.1676,-5.1676,-5.1751,-5.1899,-5.1936,-5.2029,-5.1955,-5.1936,-5.1936,-5.1936,-5.1936,-5.1936,-5.1695,-5.1491,-5.1174,-5.0803,-5.1138,-5.1449,-5.1544,-5.2154,-5.2931,-5.3574,-5.4428,-5.4768,-5.434,-5.4015,-5.3687,-5.3118,-5.2848,-5.2655,-5.2645,-5.2732,-5.276,-5.2615,-5.2229,-5.1871,-5.1747,-5.1342,-5.0973,-5.096,-5.0968,-5.0841,-5.0612,-5.04,-5.0711,-4.5812,-4.5812,-4.5776,-4.5812,-4.5701,-4.5013,-4.4367,-4.3868,-4.3522,-4.3089,-4.2858,-4.3366,-4.353,-4.3345,-4.3726,-4.3077,-4.1677,-4.1977,-4.16,-4.0809,-4.1274,-4.1587,-4.1707,-4.2423,-4.3022,-4.3396,-4.388,-4.3889,-4.3598,-4.3838,-4.3337,-4.2258,-4.281,-4.3207,-4.342,-4.4937,-4.5776,-4.5837,-4.6112,-4.6381,-4.6637,-4.6888,-4.6998,-4.6998,-4.6998,-4.6998,-4.6998,-4.6998,-4.6998,-4.6998,-4.7025,-4.7043,-4.702,-4.7043,-4.7048,-4.7048,-4.7066,-4.7201,-4.7569,-4.8598,-4.9314,-4.9592,-5.0874,-5.1784,-5.2234,-5.2843,-5.3019,-5.2585,-5.2475,-5.2475,-5.2494,-5.2494,-5.2754,-5.3292,-5.3423,-5.359,-5.3478,-5.359,-5.359,-5.359,-5.3348,-5.3311,-5.2475,-5.1825,-5.0859,-4.9819,-5.0711,-5.1212,-5.0837,-5.1263,-5.176,-5.2262,-5.3219,-5.3652,-5.3123,-5.2502,-5.2308,-5.2039,-5.1453,-5.1251,-5.126,-5.1192,-5.1009,-5.1499,-5.1169,-5.1054,-5.1024,-5.084,-5.0812,-5.0782,-5.0713,-5.0548,-4.9876,-4.9351,-4.951,-4.5098,-4.5098,-4.5098,-4.5247,-4.5337,-4.4642,-4.4239,-4.3945,-4.3412,-4.3042,-4.2855,-4.3127,-4.2941,-4.2423,-4.2659,-4.1894,-4.0545,-4.1066,-4.0895,-4.02,-4.0774,-4.1289,-4.1733,-4.2055,-4.265,-4.3425,-4.3715,-4.3827,-4.3794,-4.3589,-4.3059,-4.245,-4.3082,-4.3366,-4.331,-4.4344,-4.4732,-4.4298,-4.4948,-4.5373,-4.5547,-4.6318,-4.6842,-4.6998,-4.6998,-4.6998,-4.6998,-4.6998,-4.6998,-4.6998,-4.6998,-4.6998,-4.6998,-4.6998,-4.6998,-4.6998,-4.6998,-4.707,-4.7276,-4.7699,-4.819,-4.8674,-4.9307,-5.0156,-5.1209,-5.1631,-5.2003,-5.2624,-5.3024,-5.3311,-5.3311,-5.3311,-5.3441,-5.3738,-5.3813,-5.3813,-5.3813,-5.3813,-5.3813,-5.3794,-5.3385,-5.2995,-5.2587,-5.1899,-5.1156,-5.0506,-5.1026,-5.1101,-5.0933,-5.1212,-5.1191,-5.1011,-5.1532,-5.1982,-5.1948,-5.1855,-5.1557,-5.1239,-5.0933,-5.0702,-5.0683,-5.0693,-5.0731,-5.073,-5.0759,-5.074,-5.0769,-5.074,-5.072,-5.0604,-5.0186,-4.9787,-4.8998,-4.9003,-4.9502,-4.461,-4.461,-4.461,-4.4761,-4.4962,-4.4278,-4.3998,-4.3956,-4.3267,-4.2951,-4.2951,-4.2951,-4.2449,-4.1688,-4.1649,-4.0934,-3.9784,-4.0199,-4.018,-3.9761,-4.0482,-4.1173,-4.1659,-4.1994,-4.243,-4.304,-4.327,-4.3525,-4.3756,-4.3106,-4.2685,-4.2706,-4.3149,-4.3272,-4.3117,-4.3735,-4.3804,-4.3345,-4.4116,-4.4518,-4.4572,-4.5694,-4.6518,-4.6754,-4.6778,-4.6778,-4.6795,-4.6847,-4.6865,-4.6795,-4.6842,-4.6865,-4.6778,-4.6795,-4.6778,-4.6795,-4.6778,-4.6801,-4.6858,-4.6858,-4.7117,-4.7732,-4.7969,-4.866,-4.9774,-5.039,-5.1063,-5.1986,-5.2849,-5.3287,-5.3716,-5.3698,-5.3716,-5.3698,-5.3736,-5.3661,-5.3401,-5.355,-5.3512,-5.3124,-5.2715,-5.2308,-5.1918,-5.1342,-5.0859,-5.058,-5.0599,-5.0711,-5.0711,-5.0618,-5.0432,-4.9893,-5.0004,-5.0341,-5.0808,-5.0951,-5.0806,-5.0684,-5.0451,-5.0525,-5.0594,-5.0614,-5.0442,-5.0308,-5.0519,-5.0327,-4.9827,-4.9875,-5.0183,-4.9922,-4.9563,-4.9067,-4.8505,-4.8877,-4.9134,-4.461,-4.461,-4.461,-4.461,-4.4564,-4.3954,-4.3661,-4.3713,-4.2992,-4.2684,-4.273,-4.2715,-4.1903,-4.078,-4.1357,-4.0621,-3.9266,-3.9721,-3.9798,-3.958,-4.0729,-4.136,-4.1455,-4.2319,-4.252,-4.2253,-4.2661,-4.3089,-4.3373,-4.2774,-4.2613,-4.2835,-4.2897,-4.2795,-4.2598,-4.3136,-4.345,-4.3072,-4.3708,-4.3981,-4.3753,-4.4993,-4.5858,-4.6046,-4.6235,-4.6266,-4.6213,-4.6477,-4.6501,-4.6242,-4.6477,-4.6501,-4.6284,-4.6259,-4.6277,-4.6259,-4.6259,-4.6277,-4.6242,-4.6284,-4.6295,-4.6418,-4.6987,-4.7587,-4.8169,-4.9223,-5.0185,-5.0872,-5.1501,-5.2232,-5.3166,-5.3346,-5.3461,-5.3481,-5.3482,-5.3133,-5.2485,-5.2986,-5.2708,-5.1821,-5.184,-5.1526,-5.0361,-5.0155,-4.9821,-4.9374,-4.9077,-4.9151,-4.9227,-4.9151,-4.9097,-4.9096,-4.9073,-4.9137,-4.9456,-4.993,-4.9987,-4.9993,-5.0178,-5.0161,-5.0317,-5.0355,-5.0046,-4.9856,-5.0048,-4.9721,-4.8817,-4.8606,-4.8971,-4.8951,-4.8844,-4.8437,-4.8309,-4.8317,-4.8632,-4.461,-4.461,-4.461,-4.461,-4.4579,-4.4348,-4.4271,-4.4225,-4.3987,-4.3864,-4.3879,-4.3864,-4.3125,-4.1848,-4.2096,-4.0926,-3.8889,-3.9802,-3.9973,-3.9612,-4.0403,-4.0816,-4.0847,-4.1166,-4.1392,-4.1522,-4.1672,-4.1965,-4.2269,-4.2216,-4.2169,-4.218,-4.2398,-4.2177,-4.1607,-4.1671,-4.1514,-4.1052,-4.1671,-4.1961,-4.1946,-4.304,-4.3752,-4.3889,-4.5389,-4.5736,-4.477,-4.5763,-4.6097,-4.5508,-4.6027,-4.6308,-4.6211,-4.6211,-4.6211,-4.6211,-4.6211,-4.6137,-4.5988,-4.5938,-4.5862,-4.5718,-4.5936,-4.643,-4.6995,-4.7605,-4.8461,-4.9655,-4.9781,-5.0269,-5.1396,-5.2368,-5.2993,-5.2959,-5.2821,-5.2575,-5.2299,-5.2115,-5.1709,-5.1192,-5.0988,-5.0287,-4.9529,-4.914,-4.9029,-4.8788,-4.8695,-4.8714,-4.8714,-4.8695,-4.8713,-4.8714,-4.8714,-4.8785,-4.8978,-4.9352,-4.9588,-4.9768,-4.9853,-4.9569,-4.9549,-4.9572,-4.9341,-4.867,-4.8941,-4.9106,-4.826,-4.8644,-4.8759,-4.8471,-4.8325,-4.8575,-4.8304,-4.8707,-4.8945,-4.461,-4.461,-4.461,-4.461,-4.461,-4.461,-4.461,-4.461,-4.461,-4.461,-4.4541,-4.4394,-4.3633,-4.2694,-4.2371,-4.1217,-3.937,-4.0074,-4.0243,-3.989,-4.029,-4.0489,-4.0489,-4.0489,-4.0627,-4.0901,-4.0901,-4.1088,-4.1423,-4.1654,-4.1614,-4.1363,-4.1715,-4.1382,-4.0602,-4.0506,-4.0248,-3.9852,-4.0417,-4.0718,-4.0627,-4.1656,-4.2025,-4.1961,-4.382,-4.4617,-4.3709,-4.4743,-4.5233,-4.4939,-4.518,-4.5408,-4.5578,-4.5815,-4.5938,-4.5938,-4.593,-4.5879,-4.5701,-4.5693,-4.5615,-4.5423,-4.5414,-4.5673,-4.6173,-4.6458,-4.7313,-4.8189,-4.8504,-4.8653,-4.9488,-5.0605,-5.1401,-5.1547,-5.1581,-5.1428,-5.121,-5.1071,-5.091,-5.0542,-4.9915,-4.9233,-4.8716,-4.8624,-4.8624,-4.8587,-4.8587,-4.8587,-4.8587,-4.8587,-4.8587,-4.8587,-4.8605,-4.8641,-4.862,-4.8712,-4.9003,-4.9189,-4.9381,-4.9065,-4.8651,-4.8663,-4.8383,-4.7723,-4.7601,-4.7895,-4.8241,-4.8654,-4.8586,-4.8259,-4.8625,-4.9028,-4.9104,-4.9364,-4.944,-4.4572,-4.4572,-4.461,-4.461,-4.461,-4.461,-4.4594,-4.4533,-4.4548,-4.4471,-4.4249,-4.3855,-4.3171,-4.254,-4.1955,-4.1186,-4.0459,-4.0443,-4.0459,-4.0413,-4.0474,-4.0489,-4.0489,-4.0489,-4.0505,-4.0558,-4.0539,-4.073,-4.1104,-4.114,-4.0995,-4.0689,-4.0879,-4.0526,-3.9561,-3.975,-3.9847,-3.9674,-4.0164,-4.0277,-3.9878,-4.095,-4.1087,-4.0115,-4.1577,-4.2672,-4.3026,-4.3419,-4.385,-4.4084,-4.386,-4.3808,-4.4465,-4.5019,-4.5372,-4.5459,-4.545,-4.5423,-4.5423,-4.545,-4.545,-4.5414,-4.5414,-4.5432,-4.5621,-4.6104,-4.6623,-4.6953,-4.7282,-4.7679,-4.7823,-4.8286,-4.8876,-4.9264,-4.9834,-4.9757,-4.9443,-4.9989,-5.0453,-4.9685,-4.9026,-4.8568,-4.8531,-4.8532,-4.855,-4.8532,-4.855,-4.8532,-4.855,-4.855,-4.855,-4.8569,-4.8532,-4.8495,-4.8255,-4.805,-4.8287,-4.8517,-4.8701,-4.8611,-4.7889,-4.7645,-4.7233,-4.6685,-4.7111,-4.7401,-4.8039,-4.8414,-4.8654,-4.8567,-4.9067,-4.9529,-4.974,-4.9846,-4.9702,-4.4381,-4.4435,-4.4549,-4.461,-4.461,-4.461,-4.4379,-4.3947,-4.3917,-4.367,-4.3233,-4.3002,-4.254,-4.2001,-4.1678,-4.1201,-4.0536,-4.0489,-4.0489,-4.0489,-4.0489,-4.0489,-4.0489,-4.0489,-4.0489,-4.0489,-4.0489,-4.0574,-4.073,-4.0969,-4.0608,-3.9768,-3.985,-3.9323,-3.8214,-3.8393,-3.8505,-3.8504,-3.889,-3.9001,-3.8821,-3.9506,-3.9626,-3.9365,-4.0053,-4.0601,-4.079,-4.2387,-4.3074,-4.2768,-4.3091,-4.3592,-4.4173,-4.4518,-4.4872,-4.5328,-4.5414,-4.5414,-4.5397,-4.5414,-4.5414,-4.5414,-4.5414,-4.5414,-4.5414,-4.5621,-4.6035,-4.6406,-4.6345,-4.6276,-4.6744,-4.654,-4.7099,-4.8574,-4.8722,-4.8767,-4.8724,-4.8942,-4.8946,-4.8765,-4.849,-4.8381,-4.8363,-4.8382,-4.8382,-4.8383,-4.8383,-4.8402,-4.8401,-4.842,-4.8401,-4.8401,-4.8346,-4.8237,-4.7997,-4.75,-4.7258,-4.7474,-4.7677,-4.7652,-4.7021,-4.6652,-4.6185,-4.6184,-4.6587,-4.7185,-4.7771,-4.8373,-4.8759,-4.9106,-4.9635,-4.9962,-5.0183,-5.0,-4.9567,-4.3996,-4.3732,-4.4174,-4.4174,-4.395,-4.4212,-4.3975,-4.3431,-4.3385,-4.298,-4.2444,-4.2107,-4.1807,-4.1479,-4.1218,-4.0885,-4.052,-4.0489,-4.0489,-4.0489,-4.0489,-4.0489,-4.0489,-4.0489,-4.0489,-4.0489,-4.0489,-4.0489,-4.0474,-4.0436,-3.992,-3.9054,-3.9171,-3.8654,-3.7473,-3.7789,-3.8027,-3.7979,-3.8148,-3.8262,-3.842,-3.8628,-3.8766,-3.8832,-3.9169,-3.9348,-3.9528,-4.1035,-4.1775,-4.1732,-4.244,-4.3048,-4.3254,-4.3605,-4.4121,-4.4509,-4.4837,-4.4975,-4.5027,-4.5225,-4.5414,-4.5414,-4.5414,-4.5414,-4.5414,-4.5414,-4.5673,-4.5949,-4.5725,-4.5604,-4.5949,-4.5742,-4.6065,-4.7152,-4.7368,-4.7611,-4.7935,-4.7913,-4.7806,-4.7767,-4.7752,-4.7793,-4.7775,-4.7975,-4.8034,-4.8035,-4.8191,-4.8324,-4.8324,-4.8324,-4.8287,-4.8158,-4.7921,-4.7812,-4.7702,-4.7095,-4.634,-4.6391,-4.6548,-4.6314,-4.5874,-4.5851,-4.56,-4.5946,-4.6316,-4.7339,-4.8012,-4.9021,-4.9637,-4.9958,-5.0028,-4.9865,-4.974,-4.924,-4.8759,-4.3284,-4.2666,-4.3472,-4.3269,-4.2706,-4.3403,-4.3324,-4.2864,-4.2804,-4.2387,-4.1771,-4.1237,-4.1081,-4.1056,-4.0633,-4.0443,-4.0455,-4.0489,-4.0489,-4.0489,-4.0489,-4.0489,-4.0489,-4.0489,-4.0489,-4.0489,-4.0489,-4.0489,-4.0459,-3.9924,-3.92,-3.8774,-3.8849,-3.8418,-3.7592,-3.8041,-3.8313,-3.8109,-3.8019,-3.8162,-3.8363,-3.8363,-3.8335,-3.8335,-3.8776,-3.8969,-3.8931,-3.9338,-3.9967,-4.0711,-4.1636,-4.1911,-4.175,-4.2491,-4.308,-4.3304,-4.3871,-4.4173,-4.4397,-4.4854,-4.5225,-4.5225,-4.5328,-4.5414,-4.5414,-4.5414,-4.5432,-4.5535,-4.5449,-4.5414,-4.5483,-4.5432,-4.551,-4.5493,-4.6137,-4.6565,-4.6829,-4.6949,-4.7066,-4.7022,-4.6931,-4.6931,-4.7066,-4.7356,-4.7506,-4.7611,-4.7856,-4.7995,-4.8172,-4.8134,-4.8212,-4.7956,-4.7553,-4.7076,-4.6856,-4.6232,-4.5478,-4.5255,-4.5487,-4.5445,-4.5214,-4.5217,-4.5725,-4.6023,-4.6379,-4.7394,-4.835,-4.9283,-4.9916,-5.0073,-4.9904,-4.9547,-4.9144,-4.8721,-4.8019,-4.1573,-4.1406,-4.1765,-4.1807,-4.1571,-4.1833,-4.1668,-4.1279,-4.1219,-4.0973,-4.0535,-4.0345,-4.0213,-4.0309,-4.0263,-4.0347,-4.0296,-4.0385,-4.0489,-4.0489,-4.0489,-4.0489,-4.0489,-4.0489,-4.0489,-4.0489,-4.0489,-4.0489,-4.0443,-3.9767,-3.9385,-3.9231,-3.8822,-3.8484,-3.8223,-3.859,-3.8811,-3.8685,-3.8397,-3.8326,-3.8382,-3.8187,-3.7902,-3.7759,-3.8483,-3.8525,-3.795,-3.7911,-3.8623,-3.9766,-4.0167,-4.0598,-4.0894,-4.1486,-4.204,-4.2552,-4.3116,-4.35,-4.3621,-4.4207,-4.4578,-4.4665,-4.513,-4.5397,-4.5414,-4.5414,-4.5414,-4.5414,-4.5414,-4.5414,-4.5414,-4.5414,-4.5414,-4.5476,-4.5854,-4.6211,-4.6387,-4.6678,-4.6908,-4.6908,-4.6863,-4.6817,-4.684,-4.6959,-4.7089,-4.7133,-4.7248,-4.737,-4.7568,-4.7713,-4.7662,-4.7458,-4.7076,-4.6415,-4.5847,-4.5223,-4.4671,-4.4284,-4.4464,-4.4918,-4.482,-4.4885,-4.5788,-4.665,-4.6871,-4.7668,-4.8499,-4.939,-4.9746,-4.9974,-4.9446,-4.8928,-4.8769,-4.8423,-4.7519,-4.0561,-4.0204,-4.0718,-4.0718,-4.0448,-4.0802,-4.0524,-3.9953,-3.983,-3.9397,-3.8848,-3.8679,-3.8752,-3.8826,-3.8936,-3.9139,-3.937,-3.9427,-3.9707,-4.0141,-4.0141,-4.0296,-4.042,-4.0489,-4.0489,-4.0489,-4.0489,-4.0489,-4.0305,-3.9585,-3.9277,-3.9323,-3.8846,-3.8523,-3.8477,-3.898,-3.9163,-3.898,-3.8764,-3.8716,-3.8824,-3.8374,-3.8294,-3.8221,-3.8628,-3.8358,-3.7859,-3.7575,-3.7854,-3.8546,-3.8882,-3.9199,-3.9616,-4.0184,-4.0666,-4.1139,-4.1912,-4.2457,-4.2713,-4.3554,-4.4276,-4.4449,-4.4992,-4.5328,-4.5414,-4.5414,-4.5414,-4.5414,-4.5414,-4.5414,-4.5414,-4.5414,-4.5414,-4.545,-4.5693,-4.5854,-4.5862,-4.6087,-4.6242,-4.6249,-4.6249,-4.6249,-4.6273,-4.6442,-4.656,-4.6672,-4.684,-4.6816,-4.6802,-4.6955,-4.6889,-4.6529,-4.6304,-4.5718,-4.5278,-4.4746,-4.4948,-4.4506,-4.4744,-4.4997,-4.5178,-4.523,-4.6003,-4.6979,-4.7356,-4.7845,-4.8572,-4.9145,-4.9378,-4.933,-4.8776,-4.8391,-4.8201,-4.7548,-4.6714,-3.9826,-3.9135,-3.9942,-3.9826,-3.9241,-3.986,-3.9508,-3.878,-3.8555,-3.8002,-3.7257,-3.6972,-3.7281,-3.7151,-3.7587,-3.7572,-3.8063,-3.8213,-3.8738,-3.9205,-3.9523,-3.9702,-4.0091,-4.0091,-4.0126,-4.0161,-4.0351,-4.0385,-4.009,-3.9177,-3.9031,-3.9259,-3.8923,-3.8585,-3.8708,-3.9216,-3.9382,-3.9146,-3.9071,-3.9153,-3.9219,-3.8826,-3.8669,-3.8874,-3.8623,-3.856,-3.8355,-3.7977,-3.7643,-3.7564,-3.7849,-3.8075,-3.8205,-3.8761,-3.9094,-3.9388,-4.0366,-4.1035,-4.1366,-4.2627,-4.3691,-4.3613,-4.4306,-4.5032,-4.4763,-4.4687,-4.4791,-4.5042,-4.525,-4.5259,-4.5414,-4.5414,-4.5414,-4.5423,-4.5423,-4.5423,-4.5414,-4.5414,-4.5414,-4.538,-4.5389,-4.5303,-4.5494,-4.5708,-4.5972,-4.5698,-4.5899,-4.5811,-4.5685,-4.5676,-4.5519,-4.5192,-4.5033,-4.4986,-4.4656,-4.4343,-4.4893,-4.5186,-4.5663,-4.603,-4.6341,-4.6487,-4.6744,-4.7222,-4.7682,-4.8033,-4.8401,-4.8799,-4.9034,-4.8774,-4.8319,-4.7876,-4.7448,-4.6431,-4.553,-3.8362,-3.8181,-3.8408,-3.8362,-3.8147,-3.7904,-3.7762,-3.7657,-3.7208,-3.6958,-3.685,-3.6841,-3.6841,-3.6933,-3.6972,-3.7281,-3.7343,-3.751,-3.7965,-3.8354,-3.845,-3.8716,-3.906,-3.9133,-3.9147,-3.9292,-3.9666,-3.9859,-3.9687,-3.9482,-3.9336,-3.9428,-3.9321,-3.9046,-3.88,-3.9644,-3.997,-3.9516,-3.9393,-3.946,-3.9435,-3.912,-3.8839,-3.8832,-3.8629,-3.8814,-3.9044,-3.8627,-3.8271,-3.8167,-3.7869,-3.771,-3.7812,-3.8123,-3.8363,-3.8548,-3.8909,-3.9351,-3.9582,-4.0713,-4.1372,-4.1227,-4.2245,-4.2717,-4.2652,-4.2855,-4.3314,-4.3955,-4.4414,-4.4724,-4.5198,-4.538,-4.5302,-4.5284,-4.5328,-4.5363,-4.5414,-4.5414,-4.5414,-4.5311,-4.4941,-4.4751,-4.5242,-4.4811,-4.4852,-4.4774,-4.4717,-4.4652,-4.4548,-4.4443,-4.4195,-4.3918,-4.403,-4.4031,-4.409,-4.4199,-4.5168,-4.5865,-4.6471,-4.6893,-4.7187,-4.7298,-4.7371,-4.7665,-4.8088,-4.8345,-4.8439,-4.8495,-4.873,-4.8288,-4.79,-4.7423,-4.6779,-4.559,-4.4903,-3.79,-3.79,-3.79,-3.79,-3.7795,-3.726,-3.6911,-3.6708,-3.6178,-3.5855,-3.5737,-3.5722,-3.5709,-3.5722,-3.5843,-3.5963,-3.632,-3.683,-3.7165,-3.7396,-3.7434,-3.7639,-3.7895,-3.791,-3.7962,-3.8686,-3.909,-3.9271,-3.9236,-3.9199,-3.9203,-3.9581,-3.9523,-3.9551,-3.9459,-4.012,-4.0274,-4.0043,-3.9951,-3.9967,-3.9927,-3.9473,-3.9168,-3.9018,-3.8952,-3.9152,-3.94,-3.8831,-3.8554,-3.8388,-3.8135,-3.7951,-3.7919,-3.799,-3.8027,-3.8098,-3.8241,-3.8423,-3.8727,-3.9539,-4.0233,-3.9799,-4.089,-4.1309,-4.1481,-4.1549,-4.221,-4.3139,-4.3654,-4.3968,-4.4601,-4.4679,-4.4722,-4.4801,-4.4801,-4.4948,-4.5294,-4.5397,-4.5414,-4.5259,-4.4803,-4.4613,-4.4509,-4.4207,-4.388,-4.3877,-4.386,-4.3781,-4.3286,-4.3168,-4.2969,-4.2835,-4.3015,-4.3176,-4.3375,-4.409,-4.5498,-4.6361,-4.7186,-4.7572,-4.7884,-4.7866,-4.781,-4.8086,-4.8269,-4.8288,-4.8363,-4.8401,-4.842,-4.8217,-4.7814,-4.7133,-4.6312,-4.5374,-4.4887,-3.79,-3.79,-3.79,-3.79,-3.7808,-3.726,-3.6671,-3.6114,-3.5534,-3.5115,-3.4518,-3.4397,-3.4634,-3.4481,-3.4522,-3.4688,-3.5141,-3.5723,-3.6215,-3.6373,-3.6373,-3.6688,-3.6936,-3.694,-3.7211,-3.8464,-3.8634,-3.8634,-3.8656,-3.8662,-3.8923,-3.9294,-3.9434,-3.9318,-3.9853,-4.0289,-4.0263,-4.0117,-4.029,-4.0397,-4.0366,-3.9924,-3.9693,-3.9677,-3.9644,-3.9659,-3.9644,-3.9244,-3.8908,-3.8816,-3.8816,-3.8816,-3.8697,-3.8287,-3.7966,-3.7951,-3.7983,-3.7902,-3.791,-3.8695,-3.9343,-3.9373,-3.9946,-4.0339,-4.0332,-4.0353,-4.1033,-4.1991,-4.2674,-4.3076,-4.3664,-4.3819,-4.3909,-4.4051,-4.4086,-4.4379,-4.4801,-4.5017,-4.4905,-4.5276,-4.4596,-4.4121,-4.3966,-4.369,-4.3327,-4.3,-4.3,-4.2886,-4.2431,-4.21,-4.2056,-4.2108,-4.2338,-4.29,-4.3151,-4.4499,-4.5824,-4.6522,-4.751,-4.7937,-4.8249,-4.8196,-4.8086,-4.8177,-4.8306,-4.8324,-4.8324,-4.8343,-4.8309,-4.8199,-4.7684,-4.6953,-4.6102,-4.5208,-4.4874,-3.79,-3.79,-3.79,-3.79,-3.7795,-3.726,-3.6658,-3.607,-3.5534,-3.4959,-3.4463,-3.4397,-3.4397,-3.4397,-3.4397,-3.4439,-3.4647,-3.4964,-3.5127,-3.5386,-3.5467,-3.5777,-3.6324,-3.6417,-3.6758,-3.725,-3.7772,-3.8037,-3.8173,-3.848,-3.8523,-3.8337,-3.8725,-3.8871,-3.8797,-3.9128,-3.9792,-3.9788,-4.0121,-4.0385,-4.0289,-4.0197,-4.0109,-4.0109,-4.0094,-4.0194,-4.0274,-4.0197,-4.0151,-4.0151,-4.0166,-4.012,-3.9847,-3.9036,-3.8328,-3.7899,-3.7685,-3.7498,-3.7264,-3.7514,-3.7545,-3.7374,-3.7856,-3.8149,-3.815,-3.8275,-3.9269,-4.0544,-4.1586,-4.2253,-4.3032,-4.2942,-4.3379,-4.37,-4.3765,-4.3723,-4.3519,-4.364,-4.4018,-4.475,-4.4156,-4.344,-4.3217,-4.2907,-4.2408,-4.215,-4.2174,-4.2319,-4.2237,-4.1864,-4.1624,-4.169,-4.1793,-4.2467,-4.3087,-4.4811,-4.6275,-4.6571,-4.7308,-4.7892,-4.8152,-4.8267,-4.8324,-4.8287,-4.8287,-4.8324,-4.8324,-4.8324,-4.8288,-4.8253,-4.7536,-4.6765,-4.6152,-4.5527,-4.4772,-3.79,-3.79,-3.79,-3.7717,-3.7416,-3.7142,-3.6658,-3.607,-3.5534,-3.5142,-3.4829,-3.4554,-3.4397,-3.4397,-3.4397,-3.4397,-3.4397,-3.4397,-3.4522,-3.4743,-3.4784,-3.5072,-3.5737,-3.5938,-3.6298,-3.6719,-3.7173,-3.7443,-3.7481,-3.8037,-3.8111,-3.812,-3.848,-3.8574,-3.8412,-3.8907,-3.917,-3.9289,-3.9698,-3.9915,-3.9687,-3.9651,-3.9737,-4.0021,-4.0106,-4.0211,-4.047,-4.0489,-4.0489,-4.0474,-4.0474,-4.0489,-4.029,-3.9905,-3.9231,-3.8569,-3.7923,-3.7415,-3.6999,-3.7092,-3.6847,-3.663,-3.6861,-3.694,-3.697,-3.7199,-3.7894,-3.9218,-4.0823,-4.1412,-4.1132,-4.1486,-4.1981,-4.2505,-4.2746,-4.2942,-4.3189,-4.3268,-4.3594,-4.393,-4.3057,-4.244,-4.2413,-4.2001,-4.1467,-4.1285,-4.136,-4.1667,-4.1985,-4.1923,-4.1716,-4.2144,-4.2404,-4.3022,-4.3695,-4.4999,-4.6288,-4.6661,-4.7033,-4.7606,-4.7875,-4.7915,-4.8132,-4.8268,-4.8287,-4.8229,-4.8324,-4.8324,-4.8324,-4.8251,-4.7609,-4.6967,-4.6452,-4.5825,-4.5118,-3.79,-3.79,-3.79,-3.7625,-3.7233,-3.7194,-3.6776,-3.6109,-3.5652,-3.5312,-3.5051,-3.4646,-3.4397,-3.4397,-3.4397,-3.4397,-3.4397,-3.4397,-3.4397,-3.4439,-3.4439,-3.4701,-3.5113,-3.544,-3.5817,-3.6258,-3.6522,-3.6822,-3.7134,-3.7519,-3.7696,-3.7753,-3.8196,-3.8509,-3.8517,-3.8524,-3.8634,-3.8943,-3.9199,-3.9235,-3.8929,-3.8819,-3.9017,-3.9451,-3.9523,-3.9788,-4.0211,-4.0246,-4.0385,-4.0455,-4.0489,-4.0489,-4.0489,-4.0489,-4.0228,-3.9598,-3.8554,-3.8,-3.76,-3.7353,-3.72,-3.7153,-3.6969,-3.6969,-3.7077,-3.7419,-3.7685,-3.848,-3.9625,-4.0391,-3.9718,-3.975,-4.0443,-4.1165,-4.1498,-4.1705,-4.2439,-4.2616,-4.2316,-4.22,-4.1654,-4.1631,-4.1776,-4.1439,-4.0933,-4.1077,-4.117,-4.1896,-4.2196,-4.2332,-4.2373,-4.2936,-4.3402,-4.3903,-4.4512,-4.5111,-4.6074,-4.6486,-4.6807,-4.7234,-4.7378,-4.7446,-4.7695,-4.7937,-4.8055,-4.8015,-4.8152,-4.8305,-4.8324,-4.8141,-4.7663,-4.7223,-4.6764,-4.6324,-4.5753,-3.79,-3.79,-3.79,-3.7861,-3.7756,-3.7756,-3.7129,-3.6188,-3.6018,-3.5417,-3.4724,-3.445,-3.4397,-3.4397,-3.4397,-3.4397,-3.4397,-3.4397,-3.4397,-3.4397,-3.4397,-3.4605,-3.5031,-3.5113,-3.544,-3.5764,-3.5884,-3.631,-3.6744,-3.7017,-3.7134,-3.7211,-3.7327,-3.7467,-3.7962,-3.8,-3.8285,-3.8671,-3.8819,-3.8819,-3.8745,-3.8708,-3.876,-3.887,-3.8943,-3.9199,-3.9717,-3.9859,-4.0036,-4.042,-4.0489,-4.0489,-4.0489,-4.0489,-4.0474,-4.0197,-3.9708,-3.9031,-3.8492,-3.8138,-3.8031,-3.8,-3.8077,-3.8231,-3.8154,-3.8385,-3.8404,-3.7587,-3.8585,-3.9014,-3.8853,-3.8801,-3.9404,-4.0135,-4.0756,-4.0769,-4.1138,-4.1997,-4.1679,-4.125,-4.0929,-4.1177,-4.1391,-4.0933,-4.0544,-4.0749,-4.1116,-4.1875,-4.2577,-4.2842,-4.3107,-4.3664,-4.3991,-4.448,-4.4761,-4.545,-4.5782,-4.6249,-4.6465,-4.673,-4.689,-4.7008,-4.7248,-4.7464,-4.7591,-4.7836,-4.8035,-4.8172,-4.8267,-4.8196,-4.792,-4.7571,-4.7149,-4.6709,-4.6287,-3.7518,-3.79,-3.79,-3.7704,-3.7442,-3.7743,-3.7416,-3.6671,-3.6227,-3.5835,-3.5273,-3.4633,-3.4397,-3.4397,-3.4397,-3.4397,-3.4397,-3.4397,-3.4397,-3.4397,-3.4397,-3.4522,-3.4729,-3.4949,-3.5236,-3.5358,-3.5602,-3.5844,-3.6284,-3.6561,-3.6733,-3.6993,-3.6978,-3.7134,-3.75,-3.7419,-3.7519,-3.7696,-3.7772,-3.7947,-3.8113,-3.8,-3.7962,-3.8263,-3.8315,-3.8634,-3.909,-3.9574,-3.9753,-4.0106,-4.0281,-4.0489,-4.0489,-4.0489,-4.0489,-4.0459,-4.0243,-3.9721,-3.9121,-3.8754,-3.8631,-3.8554,-3.8554,-3.8462,-3.8585,-3.8785,-3.8877,-3.8185,-3.8708,-3.8874,-3.8681,-3.8869,-3.9534,-4.0118,-4.0337,-4.0649,-4.0725,-4.0861,-4.1089,-4.0634,-4.0307,-4.068,-4.0927,-4.0632,-4.0578,-4.1053,-4.1478,-4.2202,-4.3125,-4.3913,-4.4172,-4.4431,-4.4673,-4.4914,-4.5088,-4.5441,-4.5475,-4.5778,-4.5778,-4.607,-4.6387,-4.6584,-4.6776,-4.6981,-4.716,-4.7442,-4.7816,-4.8093,-4.8229,-4.8267,-4.8306,-4.7938,-4.759,-4.7186,-4.6709,-3.6781,-3.7366,-3.7716,-3.7652,-3.7273,-3.7717,-3.7456,-3.6737,-3.6292,-3.594,-3.5508,-3.4763,-3.4397,-3.4397,-3.4397,-3.4397,-3.4397,-3.4397,-3.4397,-3.4397,-3.4397,-3.4397,-3.4522,-3.4784,-3.4908,-3.4962,-3.51,-3.5386,-3.5642,-3.5898,-3.6298,-3.685,-3.6811,-3.7041,-3.7217,-3.7352,-3.7444,-3.7458,-3.7444,-3.7526,-3.7586,-3.7275,-3.7352,-3.7544,-3.7734,-3.7947,-3.856,-3.8907,-3.9199,-3.9559,-3.9773,-3.9985,-4.0176,-4.0211,-4.0351,-4.042,-4.0397,-4.0213,-3.9767,-3.9398,-3.9044,-3.9016,-3.9016,-3.9216,-3.9105,-3.9016,-3.8862,-3.8816,-3.9123,-3.9062,-3.88,-3.8956,-3.9391,-3.9827,-4.0177,-4.0641,-4.0976,-4.0928,-4.0849,-4.0595,-4.0356,-4.0315,-4.0463,-4.0332,-4.0585,-4.1233,-4.1882,-4.2583,-4.3505,-4.4541,-4.4707,-4.4797,-4.4892,-4.5022,-4.5127,-4.5266,-4.53,-4.5371,-4.5371,-4.5502,-4.5862,-4.607,-4.6217,-4.6418,-4.6678,-4.6981,-4.7335,-4.7754,-4.8172,-4.8248,-4.8324,-4.8324,-4.803,-4.7626,-4.7186,-3.5715,-3.5906,-3.7273,-3.7782,-3.7704,-3.7887,-3.7188,-3.6243,-3.6092,-3.5452,-3.4737,-3.4437,-3.4397,-3.4397,-3.4397,-3.4397,-3.4397,-3.4397,-3.4397,-3.4397,-3.4397,-3.4397,-3.4439,-3.4494,-3.4535,-3.4535,-3.478,-3.4959,-3.5058,-3.5329,-3.5805,-3.6312,-3.6377,-3.7002,-3.744,-3.7606,-3.7782,-3.7796,-3.785,-3.7622,-3.7444,-3.7197,-3.7141,-3.7113,-3.7162,-3.7366,-3.7924,-3.8165,-3.8412,-3.8855,-3.9075,-3.9343,-3.9666,-3.9717,-3.9895,-4.0246,-4.0351,-4.0278,-4.0163,-4.0166,-4.029,-4.0305,-4.0228,-4.0059,-3.9997,-4.0228,-4.0043,-3.9505,-3.9662,-3.9354,-3.8908,-3.8646,-3.9393,-3.974,-4.0137,-4.0313,-4.0602,-4.0658,-4.0593,-4.0507,-4.0444,-4.04,-4.0515,-4.049,-4.0664,-4.1309,-4.2444,-4.3147,-4.3882,-4.4739,-4.4838,-4.492,-4.4937,-4.4998,-4.4998,-4.5086,-4.5194,-4.5247,-4.5291,-4.5318,-4.5459,-4.5598,-4.576,-4.5938,-4.62,-4.6495,-4.6822,-4.7182,-4.7588,-4.8093,-4.8287,-4.8209,-4.8248,-4.803,-4.7645,-3.5174,-3.5667,-3.625,-3.6487,-3.6474,-3.6134,-3.6006,-3.5885,-3.5262,-3.48,-3.4356,-3.4397,-3.4397,-3.4397,-3.4397,-3.4397,-3.4397,-3.4397,-3.4397,-3.4397,-3.4397,-3.4397,-3.4397,-3.4437,-3.4397,-3.4502,-3.4753,-3.474,-3.4686,-3.5004,-3.5257,-3.5629,-3.5872,-3.6374,-3.6947,-3.7826,-3.8183,-3.8441,-3.8496,-3.8354,-3.8213,-3.7709,-3.754,-3.754,-3.7077,-3.7123,-3.7366,-3.7749,-3.8,-3.8263,-3.856,-3.8855,-3.909,-3.9126,-3.9451,-3.9895,-4.0001,-4.0141,-4.0385,-4.0455,-4.0489,-4.0489,-4.0474,-4.0489,-4.0489,-4.0489,-4.0413,-4.0166,-4.0043,-3.9782,-3.9813,-3.9736,-3.9985,-4.0093,-4.0151,-4.0243,-4.0336,-4.0459,-4.0509,-4.0473,-4.0476,-4.0461,-4.064,-4.0861,-4.1051,-4.142,-4.2629,-4.3679,-4.4142,-4.4592,-4.4648,-4.4759,-4.4786,-4.4896,-4.4923,-4.5005,-4.5069,-4.514,-4.5211,-4.5238,-4.522,-4.5274,-4.5441,-4.5555,-4.5684,-4.597,-4.6249,-4.656,-4.7026,-4.763,-4.7915,-4.7957,-4.8075,-4.8209,-4.7935,-3.4409,-3.4896,-3.4908,-3.5089,-3.5289,-3.4967,-3.4888,-3.4901,-3.4243,-3.3824,-3.3797,-3.3784,-3.3924,-3.4063,-3.4118,-3.4272,-3.4314,-3.4397,-3.4397,-3.4476,-3.458,-3.4633,-3.4659,-3.4685,-3.4763,-3.4776,-3.4946,-3.5028,-3.4478,-3.5012,-3.5265,-3.5319,-3.5461,-3.6044,-3.7069,-3.8032,-3.8797,-3.8922,-3.9142,-3.9029,-3.886,-3.8229,-3.7864,-3.7751,-3.7288,-3.7046,-3.7134,-3.7352,-3.7544,-3.7734,-3.7962,-3.83,-3.8435,-3.8598,-3.8855,-3.9199,-3.9451,-3.9631,-3.9915,-4.0335,-4.0455,-4.0489,-4.0489,-4.0489,-4.0489,-4.0489,-4.0443,-4.0459,-4.0459,-4.0489,-4.0489,-4.0351,-4.029,-4.032,-4.0336,-4.0413,-4.0428,-4.0489,-4.0489,-4.0493,-4.0497,-4.05,-4.0541,-4.0792,-4.1213,-4.156,-4.2341,-4.3122,-4.3446,-4.3856,-4.4191,-4.435,-4.4536,-4.4703,-4.4841,-4.4896,-4.4923,-4.4978,-4.5049,-4.5076,-4.5113,-4.514,-4.5123,-4.5257,-4.5363,-4.5468,-4.5658,-4.5903,-4.6543,-4.7226,-4.7399,-4.7548,-4.7527,-4.7609,-4.7816,-3.3381,-3.3331,-3.3431,-3.3953,-3.467,-3.4785,-3.4232,-3.3613,-3.337,-3.3007,-3.2612,-3.2519,-3.2884,-3.3338,-3.3462,-3.3692,-3.4121,-3.425,-3.4237,-3.4283,-3.4611,-3.5007,-3.5148,-3.5093,-3.4907,-3.5204,-3.5351,-3.5142,-3.4502,-3.5286,-3.5434,-3.545,-3.5647,-3.6183,-3.7512,-3.9088,-3.9566,-3.921,-3.9522,-3.9313,-3.8921,-3.8291,-3.7982,-3.78,-3.7456,-3.7175,-3.707,-3.725,-3.7353,-3.7264,-3.725,-3.7544,-3.7834,-3.791,-3.8211,-3.8745,-3.8782,-3.8855,-3.895,-3.9915,-4.0281,-4.0385,-4.0385,-4.0489,-4.0489,-4.0489,-4.0489,-4.0489,-4.0489,-4.0489,-4.0489,-4.0489,-4.0489,-4.0489,-4.0489,-4.0489,-4.0489,-4.0489,-4.0489,-4.0489,-4.0489,-4.0489,-4.0489,-4.065,-4.1229,-4.1724,-4.2283,-4.2645,-4.2847,-4.3122,-4.3529,-4.3752,-4.4001,-4.4248,-4.4418,-4.4692,-4.4803,-4.4831,-4.4886,-4.494,-4.4968,-4.4978,-4.4978,-4.5005,-4.5059,-4.5194,-4.522,-4.5283,-4.591,-4.6501,-4.6931,-4.7066,-4.7004,-4.7071,-4.7356,-3.3058,-3.2734,-3.3119,-3.3267,-3.3276,-3.3289,-3.3315,-3.3404,-3.3223,-3.2786,-3.24,-3.2302,-3.2604,-3.299,-3.291,-3.3052,-3.3514,-3.3539,-3.3539,-3.3658,-3.4192,-3.4616,-3.4838,-3.484,-3.4865,-3.5275,-3.5534,-3.5504,-3.5038,-3.5822,-3.6018,-3.5992,-3.6232,-3.6854,-3.7624,-3.8678,-3.9009,-3.921,-3.9374,-3.9308,-3.9106,-3.8477,-3.8061,-3.8019,-3.7692,-3.7321,-3.7027,-3.7251,-3.7332,-3.7094,-3.7052,-3.7261,-3.7398,-3.7423,-3.7649,-3.8075,-3.8225,-3.8397,-3.8671,-3.9256,-3.9559,-3.9844,-4.0211,-4.0351,-4.0489,-4.0489,-4.0489,-4.0489,-4.0489,-4.0489,-4.0489,-4.0489,-4.0489,-4.0489,-4.0489,-4.0489,-4.0489,-4.0489,-4.0489,-4.0489,-4.0489,-4.0489,-4.0489,-4.0489,-4.0956,-4.1209,-4.1608,-4.2109,-4.238,-4.2583,-4.2862,-4.3075,-4.3303,-4.3647,-4.3927,-4.4219,-4.448,-4.4536,-4.4665,-4.4803,-4.4831,-4.4831,-4.4858,-4.4858,-4.4886,-4.4913,-4.5005,-4.514,-4.531,-4.5743,-4.6224,-4.6631,-4.6707,-4.6799,-4.7022,-3.2695,-3.2745,-3.2908,-3.2925,-3.2753,-3.2569,-3.2607,-3.2641,-3.2277,-3.1893,-3.1608,-3.1761,-3.2159,-3.2511,-3.2625,-3.2812,-3.3285,-3.3342,-3.3375,-3.3416,-3.3882,-3.4445,-3.4645,-3.4568,-3.4971,-3.5396,-3.5776,-3.5815,-3.5626,-3.6528,-3.6711,-3.6632,-3.6998,-3.74,-3.7894,-3.8371,-3.8769,-3.9015,-3.9179,-3.9312,-3.9043,-3.8669,-3.8209,-3.8033,-3.769,-3.7229,-3.7129,-3.7251,-3.7552,-3.7312,-3.7377,-3.747,-3.7386,-3.7366,-3.7423,-3.7567,-3.7849,-3.8059,-3.8361,-3.8792,-3.9032,-3.898,-3.9595,-3.9985,-4.0126,-4.0176,-4.0351,-4.042,-4.0455,-4.0489,-4.0489,-4.0489,-4.0489,-4.0489,-4.0489,-4.0489,-4.0489,-4.0489,-4.0489,-4.0489,-4.0489,-4.0489,-4.0489,-4.0489,-4.0646,-4.0768,-4.0888,-4.1409,-4.1884,-4.2029,-4.2173,-4.2332,-4.2629,-4.2984,-4.3363,-4.3752,-4.3972,-4.4179,-4.4338,-4.448,-4.4682,-4.4709,-4.4737,-4.4737,-4.472,-4.4776,-4.4913,-4.5059,-4.5177,-4.5372,-4.5692,-4.6052,-4.6346,-4.6442,-4.6537,-3.2252,-3.3069,-3.2633,-3.2784,-3.3128,-3.2695,-3.2032,-3.1123,-3.0572,-3.0376,-3.0342,-3.0974,-3.1564,-3.2119,-3.2533,-3.2978,-3.3443,-3.3548,-3.3548,-3.3706,-3.3978,-3.4417,-3.4572,-3.459,-3.4835,-3.5432,-3.5745,-3.5659,-3.6007,-3.6393,-3.6671,-3.6994,-3.7267,-3.7586,-3.7906,-3.8232,-3.8512,-3.8647,-3.8827,-3.8948,-3.8805,-3.8536,-3.8271,-3.7989,-3.7587,-3.7139,-3.7044,-3.7277,-3.7427,-3.7673,-3.8127,-3.819,-3.8116,-3.7934,-3.754,-3.7453,-3.7788,-3.8009,-3.8212,-3.8671,-3.8457,-3.8393,-3.8595,-3.9076,-3.9487,-3.9753,-4.0036,-4.0281,-4.0385,-4.0455,-4.0489,-4.0489,-4.0489,-4.0489,-4.0489,-4.0489,-4.0489,-4.0489,-4.0489,-4.0489,-4.0489,-4.0489,-4.0489,-4.0489,-4.0489,-4.0558,-4.0681,-4.0715,-4.1158,-4.1343,-4.1492,-4.1591,-4.1933,-4.2347,-4.2738,-4.3122,-4.3333,-4.3499,-4.3873,-4.4064,-4.431,-4.4497,-4.4497,-4.4497,-4.4553,-4.4654,-4.4776,-4.4886,-4.4978,-4.5177,-4.5372,-4.5503,-4.5794,-4.576,-4.5837,-3.1834,-3.2088,-3.2319,-3.2734,-3.3201,-3.2707,-3.217,-3.1513,-3.1008,-3.0778,-3.079,-3.0939,-3.1539,-3.2294,-3.2191,-3.2521,-3.2769,-3.2874,-3.2874,-3.3121,-3.3608,-3.404,-3.4198,-3.4198,-3.4469,-3.4844,-3.5099,-3.518,-3.5256,-3.5771,-3.6383,-3.6777,-3.6959,-3.7294,-3.7703,-3.8037,-3.807,-3.8161,-3.833,-3.8421,-3.8392,-3.8114,-3.8016,-3.7809,-3.7798,-3.7369,-3.7267,-3.7665,-3.7836,-3.7979,-3.8131,-3.813,-3.7976,-3.8299,-3.8452,-3.8438,-3.8564,-3.8635,-3.8621,-3.8783,-3.8592,-3.8079,-3.8118,-3.8422,-3.8937,-3.9343,-3.9646,-3.9895,-4.0091,-4.0161,-4.0161,-4.0196,-4.0196,-4.0211,-4.0246,-4.0351,-4.0385,-4.0455,-4.0455,-4.0489,-4.0489,-4.0489,-4.0489,-4.0489,-4.0489,-4.0489,-4.0489,-4.0489,-4.0558,-4.0802,-4.0922,-4.1057,-4.1276,-4.1706,-4.2013,-4.2363,-4.2614,-4.2862,-4.3229,-4.3515,-4.3693,-4.3885,-4.4105,-4.4338,-4.4525,-4.4598,-4.4626,-4.4737,-4.4858,-4.4896,-4.5042,-4.514,-4.522,-4.53,-4.5371,-3.1362,-3.1913,-3.2015,-3.2544,-3.3139,-3.2707,-3.2294,-3.1984,-3.1525,-3.1306,-3.1282,-3.1536,-3.1926,-3.2411,-3.2457,-3.2655,-3.2886,-3.2946,-3.2946,-3.3039,-3.312,-3.3525,-3.374,-3.3746,-3.4041,-3.433,-3.464,-3.4832,-3.4964,-3.5313,-3.5928,-3.62,-3.6238,-3.6734,-3.7168,-3.74,-3.7657,-3.7795,-3.7946,-3.79,-3.788,-3.7819,-3.7804,-3.7793,-3.7985,-3.7641,-3.7431,-3.788,-3.8009,-3.809,-3.8189,-3.8516,-3.8434,-3.8738,-3.9086,-3.9099,-3.9254,-3.9268,-3.9268,-3.9282,-3.8775,-3.8187,-3.792,-3.7919,-3.8169,-3.8449,-3.8892,-3.9292,-3.9544,-3.9758,-3.9793,-3.9793,-3.9793,-3.9809,-3.995,-4.0141,-4.0281,-4.0385,-4.0455,-4.0489,-4.0489,-4.0489,-4.0489,-4.0489,-4.0489,-4.0489,-4.0489,-4.0489,-4.0489,-4.0593,-4.0646,-4.0715,-4.087,-4.1109,-4.1393,-4.1673,-4.1917,-4.2237,-4.2614,-4.2892,-4.3075,-4.3453,-4.3839,-4.4236,-4.457,-4.4598,-4.457,-4.4654,-4.4737,-4.4776,-4.4831,-4.494,-4.5059,-4.5194,-4.5247,-3.1054,-3.2359,-3.1924,-3.2403,-3.3162,-3.2776,-3.2569,-3.2489,-3.2158,-3.1846,-3.1903,-3.2259,-3.2454,-3.2733,-3.2902,-3.3074,-3.3155,-3.3155,-3.3143,-3.3269,-3.3247,-3.3431,-3.3381,-3.3358,-3.3665,-3.4105,-3.435,-3.434,-3.5078,-3.5187,-3.509,-3.5475,-3.5511,-3.5893,-3.6521,-3.6628,-3.6922,-3.7505,-3.7611,-3.7657,-3.7854,-3.792,-3.7887,-3.7815,-3.7546,-3.7179,-3.7256,-3.7479,-3.775,-3.8082,-3.8468,-3.9019,-3.9068,-3.8964,-3.9243,-3.9606,-3.9803,-3.9859,-3.9859,-3.9859,-3.9226,-3.8594,-3.8004,-3.7955,-3.8136,-3.8077,-3.8464,-3.8797,-3.9106,-3.9467,-3.9599,-3.9771,-3.9861,-3.977,-3.976,-3.9913,-3.9996,-4.0191,-4.0455,-4.0489,-4.0489,-4.0489,-4.0489,-4.0489,-4.0489,-4.0489,-4.0489,-4.0489,-4.0489,-4.0489,-4.0489,-4.0489,-4.0612,-4.0768,-4.0836,-4.1091,-4.1294,-4.1608,-4.1949,-4.2237,-4.2395,-4.2953,-4.3647,-4.3943,-4.4207,-4.4468,-4.4525,-4.4598,-4.4626,-4.4654,-4.4709,-4.4748,-4.4886,-4.5032,-4.5167,-3.1669,-3.2409,-3.2757,-3.3069,-3.3269,-3.3155,-3.3074,-3.3086,-3.2994,-3.2661,-3.2386,-3.2466,-3.2718,-3.3051,-3.3178,-3.3281,-3.3281,-3.3281,-3.3281,-3.3281,-3.3281,-3.3281,-3.3281,-3.3281,-3.3469,-3.3469,-3.3607,-3.3744,-3.404,-3.4089,-3.4176,-3.4641,-3.4727,-3.5078,-3.5798,-3.5846,-3.6238,-3.6956,-3.7015,-3.7307,-3.7749,-3.7854,-3.7887,-3.7861,-3.7652,-3.7612,-3.7658,-3.773,-3.8047,-3.8411,-3.8585,-3.8885,-3.9207,-3.9109,-3.9378,-3.9866,-4.0136,-4.0208,-4.0307,-4.0237,-3.9817,-3.9353,-3.8875,-3.8636,-3.8427,-3.8078,-3.8077,-3.8405,-3.8739,-3.9161,-3.948,-3.9706,-3.9868,-3.9679,-3.9535,-3.9607,-3.9649,-3.998,-4.0385,-4.042,-4.042,-4.042,-4.042,-4.0455,-4.0489,-4.0489,-4.0489,-4.0489,-4.0489,-4.0489,-4.0489,-4.0489,-4.0489,-4.0593,-4.0593,-4.0646,-4.0888,-4.0888,-4.1125,-4.1409,-4.1722,-4.2316,-4.2953,-4.3423,-4.3781,-4.3914,-4.415,-4.4525,-4.457,-4.4468,-4.4626,-4.4682,-4.4737,-4.4848,-4.5022,-3.171,-3.242,-3.2734,-3.3058,-3.3281,-3.3281,-3.3281,-3.3281,-3.3281,-3.3132,-3.2917,-3.2868,-3.3017,-3.3281,-3.3281,-3.3281,-3.3281,-3.3281,-3.3281,-3.3281,-3.3281,-3.3281,-3.3281,-3.3281,-3.3331,-3.3281,-3.3281,-3.3331,-3.3281,-3.3331,-3.3656,-3.393,-3.3979,-3.4311,-3.4981,-3.5126,-3.5463,-3.6191,-3.6178,-3.6628,-3.7353,-3.7611,-3.7854,-3.79,-3.79,-3.79,-3.79,-3.79,-3.8024,-3.833,-3.8466,-3.8692,-3.8944,-3.9098,-3.933,-3.961,-3.9881,-4.017,-4.0314,-4.0346,-4.0095,-3.962,-3.9507,-3.9211,-3.8382,-3.809,-3.8442,-3.8753,-3.8767,-3.9151,-3.9165,-3.9326,-3.9341,-3.9262,-3.9175,-3.9147,-3.918,-3.9343,-3.9508,-3.9544,-3.9631,-3.9773,-3.9824,-4.0036,-4.0141,-4.0489,-4.0489,-4.047,-4.047,-4.0489,-4.0489,-4.0489,-4.0489,-4.0489,-4.0524,-4.0524,-4.0593,-4.0524,-4.0489,-4.0956,-4.1459,-4.1804,-4.2237,-4.2769,-4.3106,-4.3183,-4.3486,-4.3931,-4.4105,-4.3972,-4.4265,-4.4598,-4.4598,-4.4581,-4.4803,-3.1187,-3.2044,-3.2207,-3.2583,-3.3058,-3.3281,-3.3281,-3.3281,-3.3281,-3.3281,-3.3235,-3.3235,-3.3281,-3.3281,-3.3281,-3.3281,-3.3281,-3.3281,-3.3281,-3.3281,-3.3281,-3.3281,-3.3281,-3.3281,-3.3281,-3.3281,-3.3281,-3.3281,-3.3281,-3.3281,-3.3281,-3.3281,-3.3431,-3.3656,-3.4066,-3.4348,-3.4653,-3.5223,-3.5511,-3.5893,-3.6581,-3.732,-3.7657,-3.7795,-3.79,-3.79,-3.79,-3.79,-3.79,-3.8024,-3.8253,-3.8376,-3.8602,-3.8868,-3.9046,-3.9261,-3.9394,-3.9645,-3.9821,-4.0025,-3.9687,-3.9438,-3.9648,-3.9395,-3.8608,-3.8566,-3.8916,-3.9112,-3.9181,-3.9096,-3.9111,-3.9223,-3.9237,-3.9079,-3.9021,-3.8953,-3.8973,-3.904,-3.9114,-3.9099,-3.9187,-3.9349,-3.9457,-3.9658,-3.9849,-4.0237,-4.0431,-4.0431,-4.0416,-4.047,-4.0489,-4.0489,-4.0489,-4.0489,-4.0489,-4.0489,-4.0489,-4.0489,-4.0558,-4.0854,-4.1142,-4.1294,-4.1608,-4.2141,-4.2426,-4.252,-4.2769,-4.3183,-4.3273,-4.3393,-4.3529,-4.3798,-4.3943,-4.4001,-4.4463,-3.0182,-3.0442,-3.137,-3.1841,-3.2055,-3.2857,-3.3281,-3.3281,-3.3281,-3.3281,-3.3281,-3.3281,-3.3281,-3.3281,-3.3281,-3.3281,-3.3281,-3.3281,-3.3281,-3.3281,-3.3281,-3.3281,-3.3281,-3.3281,-3.3281,-3.3281,-3.3281,-3.3281,-3.3281,-3.3281,-3.3281,-3.3281,-3.3281,-3.3381,-3.3431,-3.3656,-3.393,-3.4458,-3.4739,-3.5017,-3.575,-3.6534,-3.7261,-3.7598,-3.79,-3.79,-3.79,-3.79,-3.79,-3.7946,-3.7933,-3.8024,-3.8207,-3.848,-3.8647,-3.8782,-3.8948,-3.9172,-3.938,-3.9645,-3.9412,-3.9474,-3.9701,-3.9859,-3.9396,-3.941,-3.9732,-4.0055,-3.9999,-3.9704,-3.9732,-4.0069,-4.0126,-3.9715,-3.9489,-3.9416,-3.9361,-3.9639,-3.9856,-3.9733,-3.9595,-3.9576,-3.9483,-3.9506,-3.9387,-3.9738,-4.0094,-4.0085,-3.9905,-4.0156,-4.0462,-4.0497,-4.0477,-4.0489,-4.0489,-4.0489,-4.0489,-4.0489,-4.0524,-4.0715,-4.0768,-4.0646,-4.099,-4.1525,-4.1771,-4.1868,-4.2173,-4.2395,-4.2614,-4.2691,-4.2691,-4.2831,-4.3075,-4.3393,-4.3794]},{"header":{"parameterUnit":"m.s-1","parameterCategory":1,"la1":31.0,"la2":29.5877,"lo1":-88.7671,"lo2":-86.6584,"dy":0.0162,"dx":0.0185,"nx":115,"ny":88,"refTime":"2024-06-19T12:00:00:Z","depth":0,"parameterNumber":3,"parameterNumberName":"V-component_of_WINDS"},"data":[0.0,0.0,0.0,0.0,0.0,0.0,0.0,0.0,0.0,0.0,0.0,0.0,0.0,0.0,0.0,0.0,0.0,0.0,0.0,0.0,0.0,0.0,0.0,0.0,0.0,0.0,0.0,0.0,0.0,0.0,0.0,0.0,0.0,0.0,0.0,0.0,0.0,0.0,0.0,0.0,0.0,0.0,0.0,0.0,0.0,0.0,0.0,0.0,0.0,0.0,0.0,0.0,0.0,0.0,0.0,0.0,0.0,0.0,0.0,0.0,0.0,0.0,0.0,0.0,0.0,0.0,0.0,0.0,0.0,0.0,0.0,0.0,0.0,0.0,0.0,0.0,0.0,0.0,0.0,0.0,0.0,0.0,0.0,0.0,0.0,0.0,0.0,0.0,0.0,0.0,0.0,0.0,0.0,0.0,0.0,0.0,0.0,0.0,0.0,0.0,0.0,0.0,0.0,0.0,0.0,0.0,0.0,0.0,0.0,0.0,0.0,0.0,0.0,0.0,0.0,0.0,0.0,0.0,0.0,0.0,0.0,0.0,0.0,0.0,0.0,0.0,0.0,0.0,0.0,0.0,0.0,0.0,0.0,0.0,0.0,0.0,0.0,0.0,0.0,0.0,0.0,0.0,0.0,0.0,0.0,0.0,0.0,0.0,0.0,0.0,0.0,0.0,0.0,0.0,0.0,0.0,0.0,0.0,0.0,0.0,0.0,0.0,0.0,0.0,0.0,0.0,0.0,0.0,0.0,0.0,0.0,0.0,0.0,0.0,0.0,0.0,0.0,0.0,0.0,0.0,0.0,0.0,0.0,0.0,0.0,0.0,0.0,0.0,0.0,0.0,0.0,0.0,0.0,0.0,0.0,0.0,0.0,0.0,0.0,0.0,0.0,0.0,0.0,0.0,0.0,0.0,0.0,0.0,0.0,0.0,0.0,0.0,0.0,0.0,0.0,0.0,0.0,0.0,0.0,0.0,0.0,0.0,0.0,0.0,0.0,0.0,0.0,0.0,0.0,0.0,0.0,0.0,0.0,0.0,0.0,0.0,0.0,0.0,0.0,0.0,0.0,0.0,0.0,0.0,0.0,0.0,0.0,0.0,0.0,0.0,0.0,0.0,0.0,0.0,0.0,0.0,0.0,0.0,0.0,0.0,0.0,0.0,0.0,0.0,0.0,0.0,0.0,0.0,0.0,0.0,0.0,0.0,0.0,0.0,0.0,0.0,0.0,0.0,0.0,0.0,0.0,0.0,0.0,0.0,0.0,0.0,0.0,0.0,0.0,0.0,0.0,0.0,0.0,0.0,0.0,0.0,0.0,0.0,0.0,0.0,0.0,0.0,0.0,0.0,0.0,0.0,0.0,0.0,0.0,0.0,0.0,0.0,0.0,0.0,0.0,0.0,0.0,0.0,0.0,0.0,0.0,0.0,0.0,0.0,0.0,0.0,0.0,0.0,0.0,0.0,0.0,0.0,0.0,0.0,0.0,0.0,0.0,0.0,0.0,0.0,0.0,0.0,0.0,0.0,0.0,0.0,0.0,0.0,0.0,0.0,0.0,0.0,0.0,0.0,0.0,0.0,0.0,0.0,0.0,0.0,0.0,0.0,0.0,0.0,0.0,0.0,0.0,0.0,0.0,0.0,0.0,0.0,0.0,0.0,0.0,0.0,0.0,0.0,0.0,0.0,0.0,0.0,0.0,0.0,0.0,0.0,0.0,0.0,0.0,0.0,0.0,0.0,0.0,0.0,0.0,0.0,0.0,0.0,0.0,0.0,0.0,0.0,0.0,0.0,0.0,0.0,0.0,0.0,0.0,0.0,0.0,0.0,0.0,0.0,0.0,0.0,0.0,0.0,0.0,0.0,0.0,0.0,0.0,0.0,0.0,0.0,0.0,0.0,0.0,0.0,0.0,0.0,0.0,0.0,0.0,0.0,0.0,0.0,0.0,0.0,0.0,0.0,0.0,0.0,0.0,0.0,0.0,0.0,0.0,0.0,0.0,0.0,0.0,0.0,0.0,0.0,0.0,0.0,0.0,0.0,0.0,0.0,0.0,0.0,0.0,0.0,0.0,0.0,0.0,0.0,0.0,0.0,0.0,0.0,0.0,0.0,0.0,0.0,0.0,0.0,0.0,0.0,0.0,0.0,0.0,0.0,0.0,0.0,0.0,0.0,0.0,0.0,0.0,0.0,0.0,0.0,0.0,0.0,0.0,0.0,0.0,0.0,0.0,0.0,0.0,0.0,0.0,0.0,0.0,0.0,0.0,0.0,0.0,0.0,0.0,0.0,0.0,0.0,0.0,0.0,0.0,0.0,0.0,0.0,0.0,0.0,0.0,0.0,0.0,0.0,0.0,0.0,0.0,0.0,0.0,0.0,0.0,0.0,0.0,0.0,0.0,0.0,0.0,0.0,0.0,0.0,0.0,0.0,0.0,0.0,0.0,0.0,0.0,0.0,0.0,0.0,0.0,0.0,0.0,0.0,0.0,0.0,0.0,0.0,0.0,0.0,0.0,0.0,0.0,0.0,0.0,0.0,0.0,0.0,0.0,0.0,0.0,0.0,0.0,0.0,0.0,0.0,0.0,0.0,0.0,0.0,0.0,0.0,0.0,0.0,0.0,0.0,0.0,0.0,0.0,0.0,0.0,0.0,0.0,0.0,0.0,0.0,0.0,0.0,0.0,0.0,0.0,0.0,0.0,0.0,0.0,0.0,0.0,0.0,0.0,0.0,0.0,0.0,0.0,0.0,0.0,0.0,0.0,0.0,0.0,0.0,0.0,0.0,0.0,0.0,0.0,0.0,0.0,0.0,0.0,0.0,0.0,0.0,0.0,0.0,0.0,0.0,0.0,0.0,0.0,0.0,0.0,0.0,0.0,0.0,0.0,0.0,0.0,0.0,0.0,0.0,0.0,0.0,0.0,0.0,0.0,0.0,0.0,0.0,0.0,0.0,0.0,0.0,0.0,0.0,0.0,0.0,0.0,0.0,0.0,0.0,0.0,0.0,0.0,0.0,0.0,0.0,0.0,0.0,0.0,0.0,0.0,0.0,0.0,0.0,0.0,0.0,0.0,0.0,0.0,0.0,0.0,0.0,0.0,0.0,0.0,0.0,0.0,0.0,0.0,0.0,0.0,0.0,0.0,0.0,0.0,0.0,0.0,0.0,0.0,0.0,0.0,0.0,0.0,0.0,0.0,0.0,0.0,0.0,0.0,0.0,0.0,0.0,0.0,0.0,0.0,0.0,0.0,0.0,0.0,0.0,0.0,0.0,0.0,0.0,0.0,0.0,0.0,0.0,0.0,0.0,0.0,0.0,0.0,0.0,0.0,0.0,0.0,0.0,0.0,0.0,0.0,0.0,0.0,0.0,0.0,0.0,0.0,0.0,0.0,0.0,0.0,0.0,0.0,0.0,0.0,0.0,0.0,0.0,0.0,0.0,0.0,0.0,0.0,0.0,0.0,0.0,0.0,0.0,0.0,0.0,0.0,0.0,0.0,0.0,0.0,0.0,0.0,0.0,0.0,0.0,0.0,0.0,0.0,0.0,0.0,0.0,0.0,0.0,0.0,0.0,0.0,0.0,0.0,0.0,0.0,0.0,0.0,0.0,0.0,0.0,0.0,0.0,0.0,0.0,0.0,0.0,0.0,0.0,0.0,0.0,0.0,0.0,0.0,0.0,0.0,0.0,0.0,0.0,0.0,0.0,0.0,0.0,0.0,0.0,0.0,0.0,0.0,0.0,0.0,0.0,0.0,0.0,0.0,0.0,0.0,0.0,0.0,0.0,0.0,0.0,0.0,0.0,0.0,0.0,0.0,0.0,0.0,0.0,0.0,0.0,0.0,0.0,0.0,0.0,0.0,0.0,0.0,0.0,0.0,0.0,0.0,0.0,0.0,0.0,0.0,0.0,0.0,0.0,0.0,0.0,0.0,0.0,0.0,0.0,0.0,0.0,0.0,0.0,0.0,0.0,0.0,0.0,0.0,0.0,0.0,0.0,0.0,0.0,0.0,0.0,0.0,0.0,0.0,0.0,0.0,0.0,0.0,0.0,0.0,0.0,0.0,0.0,0.0,0.0,0.0,0.0,0.0,0.0,0.0,0.0,0.0,0.0,0.0,0.0,0.0,0.0,0.0,0.0,0.0,0.0,0.0,0.0,0.0,0.0,0.0,0.0,0.0,0.0,0.0,0.0,0.0,0.0,0.0,0.0,0.0,0.0,0.0,0.0,0.0,0.0,0.0,0.0,0.0,0.0,0.0,0.0,1.1456,0.0,0.0,0.0,0.99,0.0,0.0,0.0,0.0,0.0,0.0,0.0,0.0,0.0,0.0,0.0,0.0,0.0,0.0,0.0,0.0,0.0,0.0,0.0,0.0,0.0,0.0,0.0,0.0,0.0,0.0,0.0,0.0,0.0,0.0,0.0,0.0,0.0,0.0,0.0,0.0,0.0,0.0,0.0,0.0,0.0,0.0,0.0,0.0,0.0,0.0,0.0,0.0,0.0,0.0,0.0,0.0,0.0,0.0,0.0,0.0,0.0,0.0,0.0,0.0,0.0,0.0,0.0,0.0,0.0,0.0,0.0,0.0,0.0,0.0,0.0,0.0,0.0,0.0,0.0,0.0,0.0,0.0,0.0,0.0,0.0,0.0,0.0,0.0,0.0,0.0,0.0,0.0,0.0,0.0,0.0,0.0,0.0,0.0,0.0,0.0,0.0,0.0,0.0,0.0,0.0,0.0,0.0,0.0,0.0,0.0,0.0,0.0,0.0,0.0,1.1411,1.142,1.1008,1.0536,1.0,0.0,0.0,0.0,0.0,0.0,0.0,0.0,0.0,0.0,0.0,0.0,0.0,0.0,0.0,0.0,0.0,0.0,0.0,0.0,0.0,0.0,0.0,0.0,0.0,0.0,0.0,0.0,0.0,0.0,0.0,0.0,0.0,0.0,0.0,0.0,0.0,0.0,0.0,0.0,0.0,0.0,0.0,0.0,0.0,0.0,0.0,0.0,0.0,0.0,0.0,0.0,0.0,0.0,0.0,0.0,0.0,0.0,0.0,0.0,0.0,0.0,0.0,0.0,0.0,0.0,0.0,0.0,0.0,0.0,0.0,0.0,0.0,0.0,0.0,0.0,0.0,0.0,0.0,0.0,0.0,0.0,0.0,0.0,0.0,0.0,0.0,0.0,0.0,0.0,0.0,0.0,0.0,0.0,0.0,0.0,0.0,0.0,0.0,0.0,0.0,0.0,0.0,0.0,0.0,0.0,0.0,0.0,0.0,0.0,0.0,0.0,0.0,1.1079,1.0491,0.9426,0.0,0.0,0.0,0.0,0.0,0.0,0.0,0.0,0.0,0.0,0.0,0.0,0.0,0.0,0.0,0.0,0.0,0.0,0.0,0.0,0.0,0.0,0.0,0.0,0.0,0.0,0.0,0.0,0.0,0.0,0.0,0.0,0.0,0.0,0.0,0.0,0.0,0.0,0.0,0.0,0.0,0.0,0.0,0.0,0.0,0.0,0.0,0.0,0.0,0.0,0.0,0.0,0.0,0.0,0.0,0.0,0.0,0.0,0.0,0.0,0.0,0.0,0.0,0.0,0.0,0.0,0.0,0.0,0.0,0.0,0.0,0.0,0.0,0.0,0.0,0.0,0.0,0.0,0.0,0.0,0.0,0.0,0.0,0.0,0.0,0.0,0.0,0.0,0.0,0.0,0.0,0.0,0.0,0.0,0.0,0.0,0.0,0.0,0.0,0.0,0.0,0.0,0.0,0.0,0.0,0.0,0.0,0.0,0.0,0.0,1.0918,1.0646,1.0294,0.0,0.725,0.0,0.0,0.0,0.0,0.0,0.0,0.0,0.0,0.0,0.0,0.0,0.0,0.0,0.0,0.0,0.0,0.0,0.0,0.0,0.0,0.0,0.0,0.0,0.0,0.0,0.0,0.0,0.0,0.0,0.0,0.0,0.0,0.0,0.0,0.0,0.0,0.0,0.0,0.0,0.0,0.0,0.0,0.0,0.0,0.0,0.0,0.0,0.0,0.0,0.0,0.0,0.0,0.0,0.0,0.0,0.0,0.0,0.0,0.0,0.0,0.0,0.0,0.0,0.0,0.0,0.0,0.0,0.0,0.0,0.0,0.0,0.0,0.0,0.0,0.0,0.0,0.0,0.0,0.0,0.0,0.0,0.0,0.0,0.0,0.0,0.0,0.0,0.0,0.0,0.0,0.0,0.0,0.0,0.0,0.0,0.0,0.0,0.0,0.0,0.0,0.0,0.0,0.0,0.0,0.0,0.0,0.0,0.0,0.0,0.0,1.0453,1.0184,0.9348,0.8245,0.0,0.0,0.0,0.0,0.0,0.0,0.0,0.0,0.0,0.0,0.0,0.0,0.0,0.0,0.0,0.0,0.0,0.0,0.0,0.0,0.0,0.0,0.0,0.0,0.0,0.0,0.0,0.0,0.0,0.0,0.0,0.0,0.0,0.0,0.0,0.0,0.0,0.0,0.0,0.0,0.0,0.0,0.0,0.0,0.0,0.0,0.0,0.0,0.0,0.0,0.0,0.0,0.0,0.0,0.0,0.0,0.0,0.0,0.0,0.0,0.0,0.0,0.0,0.0,0.0,0.0,0.0,0.0,0.0,0.0,0.0,0.0,0.0,0.0,0.0,0.0,0.0,0.0,0.0,0.0,0.0,0.0,0.0,0.0,0.0,0.0,0.0,0.0,0.0,0.0,0.0,0.0,0.0,0.0,0.0,0.0,0.0,0.0,0.0,0.0,0.0,0.0,0.0,0.0,0.0,0.0,0.0,0.0,0.0,0.0,1.0362,0.9953,0.9386,0.8084,0.7003,0.6289,0.0,0.0,0.0,0.0,0.0,0.0,0.0,0.0,0.0,0.0,0.0,0.0,0.0,0.0,0.0,0.0,0.0,0.0,0.0,0.0,0.0,0.0,0.0,0.0,0.0,0.0,0.0,0.0,0.0,0.0,0.0,0.0,0.0,0.0,0.0,0.0,0.0,0.0,0.0,0.0,0.0,0.0,0.0,0.0,0.0,0.0,0.0,0.0,0.0,0.0,0.0,0.0,0.0,0.0,0.0,0.0,0.0,0.0,0.0,0.0,0.0,0.0,0.0,0.0,0.0,0.0,0.0,0.0,0.0,0.0,0.0,0.0,0.0,0.0,0.0,0.0,0.0,0.0,0.0,0.0,0.0,0.0,0.0,0.0,0.0,0.0,0.0,0.0,0.0,0.0,0.0,0.0,0.0,0.0,0.0,0.0,0.0,0.0,0.0,0.0,0.0,0.0,0.0,0.0,0.0,0.0,0.0,0.0,0.9944,0.9921,0.9362,0.8204,0.6474,0.531,0.0,0.0,0.0,0.0,0.0,0.0,0.0,0.0,0.0,0.0,0.0,0.0,0.0,0.0,0.0,0.0,0.0,0.0,0.0,0.0,0.0,0.0,0.0,0.0,0.0,0.0,0.0,0.0,0.0,0.0,0.0,0.0,0.0,0.0,0.0,0.0,0.0,0.0,0.0,0.0,0.0,0.0,0.0,0.0,0.0,0.0,0.0,0.0,0.0,0.0,0.0,0.0,0.0,0.0,0.0,0.0,0.0,0.0,0.0,0.0,0.0,0.0,0.0,0.0,0.0,0.0,0.0,0.0,0.0,0.0,0.0,0.0,0.0,0.0,0.0,0.0,0.0,0.0,0.0,0.0,0.0,0.0,0.0,0.0,0.0,0.0,0.0,0.0,0.0,0.0,0.0,0.0,0.0,0.0,0.0,0.0,0.0,0.0,0.0,0.0,0.0,0.0,0.0,0.0,0.0,0.0,0.0,0.0,0.0,1.004,0.924,0.8203,0.6898,0.5659,0.4868,0.0,0.0,0.0,0.0,0.0,0.0,0.0,0.0,0.0,0.0,0.0,0.0,0.0,0.0,0.0,0.0,0.0,0.0,0.0,0.0,0.0,0.0,0.0,0.0,0.0,0.0,0.0,0.0,0.0,0.0,0.0,0.0,0.0,0.0,0.0,0.0,0.0,0.0,0.0,0.0,0.0,0.0,0.0,0.0,0.0,0.0,0.0,0.0,0.0,0.0,0.0,0.0,0.0,0.0,0.0,0.0,0.0,0.0,0.0,0.0,0.0,0.0,0.0,0.0,0.0,0.0,0.0,0.0,0.0,0.0,0.0,0.0,0.0,0.0,0.0,0.0,0.0,0.0,0.0,0.0,0.0,0.0,0.0,0.0,0.0,0.0,0.0,0.0,0.0,0.0,0.0,0.0,0.0,0.0,0.0,0.0,0.0,0.0,0.0,0.0,0.0,0.0,0.0,0.0,0.0,0.0,0.0,0.0,0.0,0.9824,0.0,0.7469,0.6176,0.5245,0.4449,0.0,0.0,0.0,0.0,0.0,0.0,0.0,0.0,0.0,0.0,0.0,0.0,0.0,0.0,0.0,0.0,0.0,0.0,0.0,0.0,0.0,0.0,0.0,0.0,0.0,0.0,0.0,0.0,0.0,0.0,0.0,0.0,0.0,0.0,0.0,0.0,0.0,0.0,0.0,0.0,0.0,0.0,0.0,0.0,0.0,0.0,0.0,0.0,0.0,0.0,0.0,0.0,0.0,0.0,0.0,0.0,0.0,0.0,0.0,0.0,0.0,0.0,0.0,0.0,0.0,0.0,0.0,0.0,0.0,0.0,0.0,0.0,0.0,0.0,0.0,0.0,0.0,0.0,0.0,0.0,0.0,0.0,0.0,0.0,0.0,0.0,0.0,0.0,0.0,0.0,0.0,0.0,0.0,0.0,0.0,0.0,0.0,0.0,0.0,0.0,0.0,0.0,0.0,0.0,0.0,0.0,0.0,0.0,0.9451,0.9149,0.8309,0.7225,0.5998,0.5016,0.399,0.0,0.0,0.0,0.0,0.0,0.0,0.0,0.0,0.0,0.0,0.0,0.0,0.0,0.0,0.0,0.0,0.0,0.0,0.0,0.0,0.0,0.0,0.0,0.0,0.0,0.0,0.0,0.0,0.0,0.0,0.0,0.0,0.0,0.0,0.0,0.0,0.0,0.0,0.0,0.0,0.0,0.0,0.0,0.0,0.0,0.0,0.0,0.0,0.0,0.0,0.0,0.0,0.0,0.0,0.0,0.0,0.0,0.0,0.0,0.0,0.0,0.0,0.0,0.0,0.0,0.0,0.0,0.0,0.0,0.0,0.0,0.0,0.0,0.0,0.0,0.0,0.0,0.0,0.0,0.0,0.0,0.0,0.0,0.0,0.0,0.0,0.0,0.0,0.0,0.0,0.0,0.0,0.0,0.0,0.0,0.0,0.0,0.0,0.0,0.0,0.0,0.0,0.0,0.0,0.0,0.0,0.0,0.0,0.0,0.7415,0.7506,0.6462,0.4129,0.4064,0.3657,0.0,0.0,0.0,0.0,0.0,0.0,0.0,0.0,0.0,0.0,0.0,0.0,0.0,0.0,0.0,0.0,0.0,0.0,0.0,0.0,0.0,0.0,0.0,0.0,0.0,0.0,0.0,0.0,0.0,0.0,0.0,0.0,0.0,0.0,0.0,0.0,0.0,0.0,0.0,0.0,0.0,0.0,0.0,0.0,0.0,0.0,0.0,0.0,0.0,0.0,0.0,0.0,0.0,0.0,0.0,0.0,0.0,0.0,0.0,0.0,0.0,0.0,0.0,0.0,0.0,0.0,0.0,0.0,0.0,0.0,0.0,0.0,0.0,0.0,0.0,0.0,0.0,0.0,0.0,0.0,0.0,0.0,0.0,0.0,0.0,0.0,0.0,0.0,0.0,0.0,0.0,0.0,0.0,0.0,0.0,0.0,0.0,0.0,0.0,0.0,0.0,0.0,0.0,0.0,0.0,0.0,0.0,0.0,0.0,0.7381,0.8,0.7186,0.4598,0.4825,0.4322,0.2853,0.0,0.0,0.0,0.0,0.0,0.0,0.0,0.0,0.0,0.0,0.0,0.0,0.0,0.0,0.0,0.0,0.0,0.0,0.0,0.0,0.0,0.0,0.0,0.0,0.0,0.0,0.0,0.0,0.0,0.0,0.0,0.0,0.0,0.0,0.0,0.0,0.0,0.0,0.0,0.0,0.0,0.0,0.0,0.0,0.0,0.0,0.0,0.0,0.0,0.0,0.0,0.0,0.0,0.0,0.0,0.0,0.0,0.0,0.0,0.0,0.0,0.0,0.0,0.0,0.0,0.0,0.0,0.0,0.0,0.0,0.0,0.0,0.0,0.0,0.0,0.0,0.0,0.0,0.0,0.0,0.0,0.0,0.0,0.0,0.0,0.0,0.0,0.0,0.0,0.0,0.0,0.0,0.0,0.0,0.0,0.0,0.0,0.0,0.0,0.0,0.0,0.0,0.0,0.0,0.0,0.0,0.0,0.0,0.8647,0.9404,0.886,0.6798,0.6711,0.5548,0.0,0.0,0.0,0.0,0.0,0.0,0.0,0.0,0.0,0.0,0.0,0.0,0.0,0.0,0.0,0.0,0.0,0.0,0.0,0.0,0.0,0.0,0.0,0.0,0.0,0.0,0.0,0.0,0.0,0.0,0.0,0.0,0.0,0.0,0.0,0.0,0.0,0.0,0.0,0.0,0.0,0.0,0.0,0.0,0.0,0.0,0.0,0.0,0.0,0.0,0.0,0.0,0.0,0.0,0.0,0.0,0.0,0.0,0.0,0.0,0.0,0.0,0.0,0.0,0.0,0.0,0.0,0.0,0.0,0.0,0.0,0.0,0.0,0.0,0.0,0.0,0.0,0.0,0.0,0.0,0.0,0.0,0.0,0.0,0.0,0.0,0.0,0.0,0.0,0.0,0.0,0.0,0.0,0.0,0.0,0.0,0.0,0.0,0.0,0.0,0.0,0.0,0.0,0.0,0.0,0.0,0.0,0.0,0.0,0.8726,0.9037,0.8139,0.5963,0.5313,0.4285,0.0,0.0,0.0,0.0,0.0,0.0,0.0,0.0,0.0,0.0,0.0,0.0,0.0,0.0,0.0,0.0,0.0,0.0,0.0,0.0,0.0,0.0,0.0,0.0,0.0,0.0,0.0,0.0,0.0,0.0,0.0,0.0,0.0,0.0,0.0,0.0,0.0,0.0,0.0,0.0,0.0,0.0,0.0,0.0,0.0,0.0,0.0,0.0,0.0,0.0,0.0,0.0,0.0,0.0,0.0,0.0,0.0,0.0,0.0,0.0,0.0,0.0,0.0,0.0,0.0,0.0,0.0,0.0,0.0,0.0,0.0,0.0,0.0,0.0,0.0,0.0,0.0,0.0,0.0,0.0,0.0,0.0,0.0,0.0,0.0,0.0,0.0,0.0,0.0,0.0,0.0,0.0,0.0,0.0,0.0,0.0,0.0,0.0,0.0,0.0,0.0,0.0,0.0,0.0,0.0,0.0,0.0,0.0,0.9965,0.8868,0.8679,0.7657,0.5766,0.5118,0.4206,0.0,0.0,0.0,0.0,0.0,0.0,0.0,0.0,0.0,0.0,0.0,0.0,0.0,0.0,0.0,0.0,0.0,0.0,0.0,0.0,0.0,0.0,0.0,0.0,0.0,0.0,0.0,0.0,0.0,0.0,0.0,0.0,0.0,0.0,0.0,0.0,0.0,0.0,0.0,0.0,0.0,0.0,0.0,0.0,0.0,0.0,0.0,0.0,0.0,0.0,0.0,0.0,0.0,0.0,0.0,0.0,0.0,0.0,0.0,0.0,0.0,0.0,0.0,0.0,0.0,0.0,0.0,0.0,0.0,0.0,0.0,0.0,0.0,0.0,0.0,0.0,0.0,0.0,0.0,0.0,0.0,0.0,0.0,0.0,0.0,0.0,0.0,0.0,0.0,0.0,0.0,0.0,0.0,0.0,0.0,0.0,0.0,0.0,0.0,0.0,0.0,0.0,0.0,0.0,0.0,0.0,0.0,0.0,1.0156,0.8968,0.8294,0.7252,0.5835,0.5471,0.4543,0.0,0.0,0.0,0.0,0.0,0.0,0.0,0.0,0.0,0.0,0.0,0.0,0.0,0.0,0.0,0.0,0.0,0.0,0.0,0.0,0.0,0.0,0.0,0.0,0.0,0.0,0.0,0.0,0.0,0.0,0.0,0.0,0.0,0.0,0.0,0.0,0.0,0.0,0.0,0.0,0.0,0.0,0.0,0.0,0.0,0.0,0.0,0.0,0.0,0.0,0.0,0.0,0.0,0.0,0.0,0.0,0.0,0.0,0.0,0.0,0.0,0.0,0.0,0.0,0.0,0.0,0.0,0.0,0.0,0.0,0.0,0.0,0.0,0.0,0.0,0.0,0.0,0.0,0.0,0.0,0.0,0.0,0.0,0.0,0.0,0.0,0.0,0.0,0.0,0.0,0.0,0.0,0.0,0.0,0.0,0.0,0.0,0.0,0.0,0.0,0.0,0.0,0.0,0.0,0.0,0.0,0.0,0.0,0.9874,0.7875,0.7939,0.6892,0.4473,0.4139,0.3615,0.0,0.0,0.0,0.0,0.0,0.0,0.0,0.0,0.0,0.0,0.0,0.0,0.0,0.0,0.0,0.0,0.0,0.0,0.0,0.0,0.0,0.0,0.0,0.0,0.0,0.0,0.0,0.0,0.0,0.0,0.0,0.0,0.0,0.0,0.0,0.0,0.0,0.0,0.0,0.0,0.0,0.0,0.0,0.0,0.0,0.0,0.0,0.0,0.3337,0.0,0.0,0.0,0.0,0.0,0.0,0.0,0.0,0.0,0.0,0.0,0.0,0.0,0.0,0.0,0.0,0.0,0.0,0.0,0.0,0.0,0.0,0.0,0.0,0.0,0.0,0.0,0.0,0.0,0.0,0.0,0.0,0.0,0.0,0.0,0.0,0.0,0.0,0.0,0.0,0.0,0.0,0.0,0.0,0.0,0.0,0.0,0.0,0.0,0.0,0.0,0.0,0.0,0.0,0.0,0.0,0.0,0.0,0.0,1.0228,0.8627,0.8282,0.7125,0.5201,0.4139,0.3338,0.0,0.0,0.0,0.0,0.0,0.0,0.0,0.0,0.0,0.0,0.0,0.0,0.0,0.0,0.0,0.0,0.0,0.0,0.0,0.0,0.0,0.0,0.0,0.0,0.0,0.0,0.0,0.0,0.0,0.0,0.0,0.0,0.0,0.0,0.0,0.0,0.0,0.0,0.0,0.0,0.0,0.0,0.0,0.0,0.0,0.0,0.0,0.0,0.0,0.0,0.0,0.0,0.0,0.0,0.0,0.0,0.0,0.0,0.0,0.0,0.0,0.0,0.0,0.0,0.0,0.0,0.0,0.0,0.0,0.0,0.0,0.0,0.0,0.0,0.0,0.0,0.0,0.0,0.0,0.0,0.0,0.0,0.0,0.0,0.0,0.0,0.0,0.0,0.0,0.0,0.0,0.0,0.0,0.0,0.0,0.0,0.0,0.0,0.0,0.0,0.0,0.0,0.0,0.0,0.0,0.0,0.0,1.0811,1.0678,0.997,0.8753,0.7532,0.625,0.4598,0.3365,0.2711,0.0,0.0,0.0,0.0,0.0,0.0,0.0,0.0,0.0,0.0,0.0,0.0,0.0,0.0,0.0,0.0,0.0,0.0,0.0,0.0,0.0,0.0,0.0,0.0,0.0,0.0,0.0,0.0,0.0,0.0,0.0,0.0,0.0,0.0,0.0,0.0,0.0,0.0,0.706,0.4961,0.0,0.0,0.0,0.0,0.0,0.0,0.0,0.0,0.3291,0.0,0.0,0.0,0.0,0.0,0.0,0.0,0.0,0.0,0.0,0.0,0.0,0.0,0.0,0.0,0.0,0.0,0.0,0.0,0.0,0.0,0.0,0.0,0.0,0.0,0.0,0.0,0.0,0.0,0.0,0.0,0.0,0.0,0.0,0.0,0.0,0.0,0.0,0.0,0.0,0.0,0.0,0.0,0.0,0.0,0.0,0.0,0.0,0.0,0.0,0.0,0.0,0.0,0.0,0.0,0.0,1.1181,1.1052,1.0735,1.0139,0.901,0.7594,0.6011,0.4488,0.3347,0.2666,0.0,0.0,0.0,0.0,0.0,0.0,0.0,0.0,0.0,0.0,0.0,0.0,0.0,0.0,0.0,0.0,0.0,0.0,0.0,0.0,0.0,0.0,0.0,0.0,0.0,0.0,0.0,0.0,0.0,0.0,0.0,0.0,0.0,0.0,0.0,0.0,0.0,0.0,0.0,0.6462,0.5322,0.0,0.0,0.0,0.0,0.0,0.0,0.0,0.0,0.3116,0.0,0.0,0.0,0.0,0.0,0.0,0.0,0.0,0.0,0.0,0.0,0.0,0.0,0.0,0.0,0.0,0.0,0.0,0.0,0.0,0.0,0.0,0.0,0.0,0.0,0.0,0.0,0.0,0.0,0.0,0.0,0.0,0.0,0.0,0.0,0.0,0.0,0.0,0.0,0.0,0.0,0.0,0.0,0.0,0.0,0.0,0.0,0.0,0.0,0.0,0.0,0.0,0.0,0.0,0.0,1.0916,1.1201,1.1263,1.1058,0.9255,0.788,0.7024,0.4867,0.3326,0.0,0.0,0.0,0.0,0.0,0.0,0.0,0.0,0.0,0.0,0.0,0.0,0.0,0.0,0.0,0.0,0.0,0.0,0.0,0.0,0.0,0.0,0.0,0.0,0.0,0.0,0.0,0.0,0.0,0.0,0.0,0.0,0.0,0.0,0.0,0.0,0.0,0.0,0.0,0.0,0.6736,0.5261,0.534,0.0,0.0,0.0,0.0,0.0,0.0,0.3277,0.3096,0.0,0.0,0.0,0.0,0.0,0.0,0.0,0.0,0.0,0.0,0.0,0.0,0.0,0.0,0.0,0.0,0.0,0.0,0.0,0.0,0.0,0.0,0.0,0.0,0.0,0.0,0.0,0.0,0.0,0.0,0.0,0.0,0.0,0.0,0.0,0.0,0.0,0.0,0.0,0.0,0.0,0.0,0.0,0.0,0.0,0.0,0.0,0.0,0.0,0.0,0.0,0.0,0.0,0.0,0.0,1.0728,1.1304,1.1762,1.1991,0.9663,0.8265,0.7982,0.5384,0.356,0.0,0.0,0.0,0.0,0.0,0.0,0.0,0.0,0.0,0.0,0.0,0.0,0.0,0.0,0.0,0.0,0.0,0.0,0.0,0.0,0.0,0.0,0.0,0.0,0.0,0.0,0.0,0.0,0.0,0.0,0.0,0.0,0.0,0.0,0.0,0.0,0.0,0.0,0.0,0.0,0.0,0.4924,0.565,0.4883,0.0,0.0,0.0,0.0,0.3489,0.3303,0.0,0.0,0.0,0.0,0.0,0.0,0.0,0.0,0.0,0.0,0.0,0.0,0.0,0.0,0.0,0.0,0.0,0.0,0.0,0.0,0.0,0.0,0.0,0.0,0.0,0.0,0.0,0.0,0.0,0.0,0.0,0.0,0.0,0.0,0.0,0.0,0.0,0.0,0.0,0.0,0.0,0.0,0.0,0.0,0.0,0.0,0.0,0.0,0.0,0.0,0.0,0.0,0.0,0.0,0.0,0.0,1.1429,1.1285,1.1568,1.2335,1.0443,0.886,0.7791,0.6014,0.4276,0.0,0.0,0.0,0.0,0.0,0.0,0.0,0.0,0.0,0.0,0.0,0.0,0.0,0.0,0.0,0.0,0.0,0.0,0.0,0.0,0.0,0.0,0.0,0.0,0.0,0.0,0.0,0.0,0.0,0.0,0.0,0.0,0.0,0.0,0.0,0.0,0.0,0.0,0.0,0.0,0.0,0.5005,0.4162,0.3834,0.3678,0.0,0.0,0.3732,0.3721,0.3558,0.0,0.0,0.0,0.0,0.0,0.0,0.0,0.0,0.0,0.0,0.0,0.0,0.0,0.0,0.0,0.0,0.0,0.0,0.0,0.0,0.0,0.0,0.0,0.0,0.0,0.0,0.0,0.0,0.0,0.0,0.0,0.0,0.0,0.0,0.0,0.0,0.0,0.0,0.0,0.0,0.0,0.0,0.0,0.0,0.0,0.0,0.0,0.0,0.0,0.0,0.0,0.0,0.0,0.0,0.0,1.0803,1.1259,1.1413,1.165,1.1963,1.0296,0.9133,0.8604,0.7031,0.5367,0.0,0.0,0.0,0.0,0.0,0.0,0.0,0.0,0.0,0.0,0.0,0.0,0.0,0.0,0.0,0.0,0.0,0.0,0.0,0.0,0.0,0.0,0.0,0.0,0.0,0.0,0.0,0.0,0.0,0.0,0.0,0.0,0.0,0.0,0.0,0.0,0.0,0.0,0.0,0.0,0.0,0.0,0.4183,0.4142,0.0,0.0,0.0,0.3703,0.3627,0.0,0.0,0.0,0.0,0.0,0.0,0.0,0.0,0.0,0.0,0.0,0.0,0.0,0.0,0.0,0.0,0.0,0.0,0.0,0.0,0.0,0.0,0.0,0.0,0.0,0.0,0.0,0.0,0.0,0.0,0.0,0.0,0.0,0.0,0.0,0.0,0.0,0.0,0.0,0.0,0.0,0.0,0.0,0.0,0.0,0.0,0.0,0.0,0.0,0.0,0.0,0.0,0.0,0.0,0.0,0.0,0.0,1.1111,1.1581,1.185,1.1901,1.0498,0.9609,0.935,0.8032,0.0,0.0,0.0,0.0,0.0,0.0,0.0,0.0,0.0,0.0,0.0,0.0,0.0,0.0,0.0,0.0,0.0,0.0,0.0,0.0,0.0,0.0,0.0,0.0,0.0,0.0,0.0,0.3992,0.0,0.0,0.0,0.0,0.0,0.0,0.0,0.0,0.0,0.0,0.0,0.0,0.0,0.0,0.4536,0.4424,0.4562,0.4515,0.0,0.0,0.3726,0.3606,0.3577,0.3488,0.0,0.0,0.0,0.0,0.0,0.0,0.0,0.0,0.0,0.0,0.0,0.0,0.0,0.0,0.0,0.0,0.0,0.0,0.0,0.0,0.0,0.0,0.0,0.0,0.0,0.0,0.0,0.0,0.0,0.0,0.0,0.0,0.0,0.0,0.0,0.0,0.0,0.0,0.0,0.0,0.0,0.0,0.0,0.0,0.0,0.0,0.0,0.0,0.0,0.0,0.0,0.0,0.0,0.0,1.1051,1.1474,1.182,1.2159,1.2456,1.1509,1.052,0.9589,0.9006,0.7415,0.0,0.0,0.0,0.0,0.0,0.0,0.0,0.0,0.0,0.0,0.0,0.0,0.0,0.0,0.0,0.0,0.0,0.0,0.0,0.0,0.0,0.0,0.0,0.0,0.0,0.0,0.0,0.0,0.0,0.0,0.0,0.0,0.0,0.0,0.0,0.0,0.0,0.0,0.0,0.0,0.0,0.4536,0.4424,0.4606,0.4608,0.0,0.3862,0.3842,0.3888,0.3833,0.3739,0.3275,0.0,0.0,0.0,0.0,0.0,0.0,0.0,0.0,0.0,0.0,0.0,0.0,0.0,0.0,0.0,0.0,0.0,0.0,0.0,0.0,0.0,0.0,0.0,0.0,0.0,0.0,0.0,0.0,0.0,0.0,0.0,0.0,0.0,0.0,0.0,0.0,0.0,0.0,0.0,0.0,0.0,0.0,0.0,0.0,0.0,0.0,0.0,0.0,0.0,0.0,0.0,0.0,0.0,1.0839,1.1142,1.1682,1.2083,1.2224,1.1698,1.1105,1.0556,1.0225,0.9042,0.0,0.0,0.0,0.0,0.0,0.0,0.0,0.0,0.0,0.0,0.0,0.0,0.0,0.0,0.0,0.0,0.0,0.0,0.0,0.0,0.0,0.0,0.0,0.0,0.0,0.0,0.0,0.0,0.5299,0.5421,0.5327,0.0,0.0,0.0,0.0,0.0,0.0,0.0,0.0,0.0,0.0,0.5691,0.5236,0.4945,0.0,0.0,0.4139,0.3866,0.3815,0.3798,0.3758,0.3352,0.3317,0.0,0.0,0.0,0.0,0.0,0.0,0.0,0.0,0.0,0.0,0.0,0.0,0.0,0.0,0.0,0.0,0.0,0.0,0.0,0.0,0.0,0.0,0.0,0.0,0.0,0.0,0.0,0.0,0.0,0.0,0.0,0.0,0.0,0.0,0.0,0.0,0.0,0.0,0.0,0.0,0.0,0.0,0.0,0.0,0.0,0.0,0.0,0.0,0.0,0.0,0.0,0.0,1.0707,1.0986,1.1731,1.2114,1.211,1.1837,1.1623,1.1345,1.1116,1.012,0.0,0.0,0.0,0.0,0.0,0.0,0.0,0.0,0.0,0.0,0.0,0.0,0.0,0.0,0.0,0.0,0.0,0.0,0.0,0.0,0.0,0.0,0.0,0.0,0.0,0.0,0.0,0.0,0.57,0.5901,0.5901,0.0,0.0,0.0,0.0,0.0,0.0,0.0,0.0,0.0,0.0,0.6441,0.5899,0.5407,0.4979,0.4722,0.4172,0.3786,0.3661,0.3703,0.3679,0.3496,0.0,0.0,0.0,0.0,0.0,0.0,0.0,0.0,0.0,0.0,0.0,0.0,0.0,0.0,0.0,0.0,0.0,0.0,0.0,0.0,0.0,0.0,0.0,0.0,0.0,0.0,0.0,1.4272,0.0,0.0,1.423,0.0,0.0,0.0,0.0,0.0,0.0,0.0,0.0,0.0,0.0,0.0,0.0,0.0,0.0,0.0,0.0,0.0,0.0,0.0,0.0,0.0,0.0,1.082,1.1189,1.1958,1.2382,1.2382,1.211,1.1946,1.1946,1.1396,1.0343,0.8836,0.0,0.0,0.0,0.0,0.0,0.0,0.0,0.0,0.0,0.0,0.0,0.0,0.0,0.0,0.0,0.0,0.0,0.0,0.0,0.0,0.0,0.0,0.0,0.0,0.0,0.0,0.5757,0.5836,0.5901,0.0,0.0,0.0,0.0,0.0,0.0,0.0,0.0,0.0,0.792,0.7333,0.6556,0.6247,0.5853,0.5319,0.4562,0.3935,0.3526,0.3638,0.3639,0.3658,0.0,0.0,0.0,0.0,0.0,0.0,0.0,0.0,0.0,0.0,0.0,0.0,0.0,0.0,0.0,0.0,0.0,0.0,0.0,0.0,0.0,0.0,0.0,0.0,0.0,0.0,0.0,1.5997,1.5576,0.0,0.0,0.0,0.0,0.0,0.0,0.0,0.0,0.0,0.0,0.0,1.6447,1.7321,0.0,0.0,0.0,0.0,0.0,0.0,0.0,0.0,0.0,0.0,0.0,0.0,1.0716,1.1023,1.1897,1.2382,1.2382,1.2332,1.2169,1.2001,1.1787,1.0775,0.8844,0.0,0.0,0.0,0.0,0.0,0.0,0.0,0.0,0.0,0.0,0.0,0.0,0.0,0.0,0.0,0.0,0.0,0.0,0.0,0.0,0.0,0.0,0.0,0.0,0.0,0.6748,0.0,0.0,0.0,0.0,0.0,0.0,0.0,0.0,0.0,0.0,0.0,0.8195,0.7624,0.7625,0.7485,0.693,0.6347,0.5933,0.0,0.0,0.0,0.0,0.0,0.0,0.0,0.0,0.0,0.0,0.0,0.0,0.0,0.0,0.091,0.0155,-0.0865,-0.1578,-0.1355,0.0,0.0,0.0,0.0,0.0,0.0,0.0,0.0,0.0,0.0,0.0,0.0,0.0,0.0,1.749,0.0,1.6794,0.0,0.0,0.0,0.0,0.0,0.0,0.0,0.0,1.8457,1.9008,1.8093,1.8999,1.9034,0.0,1.7957,1.6692,0.0,0.0,0.0,0.0,0.0,0.0,0.0,0.0,1.1112,1.1264,1.2134,1.2494,1.2332,1.2278,1.2192,1.1956,1.178,1.0945,0.9434,0.8738,0.815,0.0,0.0,0.0,0.0,0.0,0.0,0.0,0.0,0.0,0.0,0.0,0.0,0.0,0.0,0.0,0.0,0.0,0.0,0.0,0.0,0.0,0.0,0.0,0.6988,0.0,0.0,0.0,0.0,0.0,0.0,0.0,0.0,0.0,0.7327,0.8138,0.8455,0.7753,0.7811,0.7703,0.7205,0.0,0.0,0.0,0.0,0.0,0.0,0.0,0.3636,0.3364,0.3409,0.3197,0.2478,0.2616,0.2744,0.2464,0.0,0.0,0.0697,-0.0426,-0.1237,-0.1373,-0.16,-0.1777,-0.1817,-0.1809,-0.1795,0.0,0.0,0.0,0.0,0.0,0.0,0.0,0.0,1.9161,1.9042,0.0,1.7982,0.0,0.0,0.0,0.0,0.0,1.8245,0.0,0.0,2.0342,2.0726,2.0408,2.0424,2.0424,2.0358,1.9235,1.8615,1.8222,1.5953,0.0,0.0,0.0,0.0,0.0,0.0,1.1849,1.1947,1.2653,1.2722,1.2196,1.209,1.2039,1.178,1.1378,1.0883,1.0422,1.0057,0.9725,0.9288,0.7944,0.0,0.0,0.0,0.0,0.0,0.0,0.0,0.0,0.0,0.0,0.0,0.0,0.0,0.0,0.0,0.0,0.0,0.0,0.0,0.0,0.741,0.0,0.0,0.0,0.0,0.0,0.0,0.0,0.0,0.0,0.0,0.792,0.7449,0.7393,0.8295,0.0,0.0,0.0,0.0,0.6105,0.5703,0.5199,0.4653,0.4156,0.4234,0.4176,0.3737,0.0,0.0,0.2827,0.3212,0.3381,0.2586,0.2454,0.229,0.2142,0.073,-0.0393,-0.0619,-0.124,-0.1745,-0.1802,-0.1815,-0.181,2.0645,0.0,0.0,0.0,0.0,1.9511,1.9725,2.0234,2.0035,1.986,1.9734,1.9104,0.0,0.0,0.0,0.0,0.0,0.0,1.8431,1.9103,2.009,2.0631,2.0782,2.0976,2.1095,2.1087,2.0778,2.0581,2.0471,1.8969,1.6642,1.3566,0.0,0.0,0.0,0.0,1.2448,1.2819,1.3085,1.3085,1.2717,1.2298,1.2035,1.1822,1.1369,1.1038,1.0879,1.048,1.007,0.9734,0.9194,0.0,0.0,0.0,0.0,0.0,0.0,0.0,0.0,0.0,0.0,0.0,0.0,0.0,0.0,0.0,0.0,0.0,0.0,0.0,0.8812,0.839,0.8155,0.0,0.0,0.0,0.0,0.0,0.0,0.0,0.0,0.0,0.7296,0.7711,0.7834,0.0,0.0,0.6768,0.6613,0.6512,0.6508,0.6438,0.5969,0.0,0.5685,0.5339,0.5029,0.4888,0.4657,0.4303,0.405,0.3899,0.3726,0.3484,0.3438,0.3201,0.2462,0.0884,-0.0292,-0.053,-0.1241,-0.19,-0.1919,-0.1924,-0.1924,2.1711,2.1016,2.0458,2.0305,2.0472,2.0345,2.0726,2.1409,2.1131,2.1024,2.092,2.0249,1.9686,1.9201,1.8966,0.0,0.0,0.0,1.9462,2.0323,2.0738,2.1115,2.153,2.1742,2.1702,2.1546,2.1174,2.1078,2.1182,1.9918,1.814,1.5858,0.0,0.0,1.285,1.3072,1.3297,1.3612,1.376,1.3593,1.2971,1.2235,1.1869,1.1766,1.1387,1.1143,1.1138,1.087,1.0643,1.0407,1.008,0.9687,0.0,0.0,0.0,0.0,0.0,0.0,0.0,0.0,0.0,0.0,0.0,0.9446,0.907,0.0,0.0,0.0,0.9975,1.0147,0.9892,0.9359,0.0,0.0,0.0,0.0,0.0,0.0,0.0,0.7788,0.7535,0.7196,0.6955,0.7389,0.7576,0.7056,0.6869,0.6736,0.6665,0.0,0.6774,0.6798,0.6537,0.6333,0.6344,0.5999,0.5768,0.56,0.533,0.5044,0.5138,0.4843,0.4682,0.4685,0.4685,0.4499,0.3943,0.2547,0.1021,-0.0182,-0.0912,-0.1466,-0.1911,-0.2038,-0.2038,2.2447,2.2007,2.0777,2.0708,2.1396,2.1171,2.1828,2.2959,2.2439,2.2351,2.2575,2.163,2.1296,2.142,2.0904,0.0,2.1616,2.1099,2.1459,2.2519,2.1987,2.203,2.2476,2.2476,2.2207,2.1684,2.0955,2.0692,2.0805,1.9476,1.8796,1.8848,1.6882,1.5592,1.5093,1.4746,1.4535,1.4445,1.4642,1.4154,1.3014,1.2101,1.1674,1.1784,1.142,1.1217,1.1194,1.1194,1.1194,1.1179,1.0626,1.0283,1.0016,0.0,0.0,0.0,0.0,0.0,0.0,0.0,0.0,0.0,0.0,0.0,0.0,0.0,0.0,1.0369,1.0627,0.0,1.1092,1.0429,0.0,0.0,0.0,0.9082,0.9509,0.9407,0.9054,0.8351,0.0,0.0,0.7026,0.6923,0.6993,0.7277,0.7116,0.697,0.6972,0.6964,0.6945,0.6839,0.6836,0.6733,0.6454,0.6444,0.6411,0.6165,0.5893,0.5798,0.592,0.5835,0.5906,0.5786,0.5847,0.5847,0.5847,0.4977,0.3569,0.0615,-0.0246,-0.0739,-0.1729,-0.1977,-0.1977,2.3639,2.326,2.2906,2.2443,2.1908,2.2522,2.2953,2.3302,2.3582,2.3712,2.3779,2.358,2.3205,2.2741,2.2343,2.2402,2.2782,2.2356,2.2417,2.2912,2.2503,2.2384,2.2476,2.2476,2.2281,2.1876,2.1661,2.1271,2.0663,2.0338,1.9686,1.8824,1.7945,1.6989,1.5964,1.6001,1.6194,1.631,1.5532,1.439,1.3062,1.2605,1.2113,1.159,1.1496,1.1364,1.1203,1.1194,1.1194,1.1189,1.0909,1.0679,1.0462,0.9536,0.0,0.0,0.0,0.0,0.0,0.0,0.0,0.0,0.0,1.0024,0.9702,0.0,1.0504,0.0,1.2015,1.2706,1.2939,1.2339,0.0,0.0,1.087,1.0339,1.1713,1.0466,0.9625,0.9951,0.9584,0.8912,0.8059,0.7952,0.7753,0.7332,0.6997,0.6844,0.6847,0.6929,0.6975,0.6961,0.7086,0.7193,0.7195,0.728,0.7342,0.7305,0.6815,0.645,0.6533,0.617,0.5908,0.5908,0.5908,0.5908,0.5908,0.5661,0.5046,0.3446,0.1662,-0.0185,-0.1667,-0.1791,-0.173,2.4216,2.3752,2.4078,2.3448,2.2317,2.3103,2.359,2.3787,2.3897,2.3843,2.3742,2.4242,2.4279,2.407,2.4103,2.4188,2.4154,2.3475,2.3423,2.3785,2.2987,2.2725,2.2924,2.2756,2.2465,2.2013,2.2004,2.1602,2.0933,2.0684,2.0336,1.9821,1.933,1.871,1.7824,1.6961,1.6428,1.6244,1.5965,1.5552,1.503,1.4452,1.3596,1.2504,1.2203,1.1722,1.0849,1.0868,1.0834,1.0702,1.0627,1.0569,1.0341,0.9677,0.9322,0.0,0.0,0.0,0.0,0.0,0.0,0.0,0.0,0.0,0.0,0.0,1.1693,1.2327,1.3073,1.3534,1.3556,1.3243,1.313,1.3483,1.2495,1.2218,1.3283,1.2346,1.1621,1.1571,1.1273,1.0683,0.9865,0.9276,0.8825,0.841,0.7641,0.7123,0.7018,0.7076,0.7114,0.7122,0.7217,0.7342,0.757,0.7657,0.772,0.7761,0.7433,0.7173,0.7221,0.6972,0.6766,0.6764,0.6766,0.6766,0.6766,0.6766,0.6396,0.5044,0.3689,0.1968,-0.0185,-0.0987,-0.1359,2.4883,2.4288,2.4887,2.4338,2.3073,2.3696,2.3927,2.3975,2.3711,2.3522,2.3471,2.4323,2.4933,2.5353,2.5827,2.5911,2.5509,2.4526,2.4362,2.4739,2.3431,2.3026,2.3398,2.3068,2.2623,2.2126,2.2126,2.1816,2.1251,2.0839,2.074,2.09,2.0475,1.9996,1.9542,1.757,1.6243,1.5622,1.6386,1.6927,1.7199,1.6388,1.516,1.3637,1.3229,1.2346,1.079,1.0796,1.0632,1.0284,1.03,1.0293,1.0151,0.9686,0.9478,0.0,0.9188,0.0,0.0,0.0,0.0,0.0,0.0,0.0,0.0,1.3013,1.3281,1.3726,1.3978,1.4091,1.3857,1.3846,1.3918,1.411,1.4084,1.4108,1.4298,1.4223,1.3894,1.3068,1.296,1.263,1.1738,1.0773,1.0178,0.9684,0.8692,0.7852,0.7371,0.7257,0.7207,0.7229,0.7296,0.7486,0.7671,0.7725,0.7761,0.7837,0.7793,0.7761,0.7847,0.7867,0.7872,0.7872,0.7811,0.7811,0.7933,0.7872,0.7373,0.6006,0.545,0.4228,0.1598,0.0123,-0.0678,2.7762,2.7069,2.7166,2.6686,2.5756,2.5311,2.4277,2.2997,2.3372,2.4058,2.4932,2.5179,2.5625,2.6291,2.6408,2.6435,2.6325,2.5487,2.4984,2.4748,2.3775,2.3229,2.3023,2.294,2.2683,2.2271,2.2244,2.1851,2.1028,2.0982,2.0596,2.0019,1.9521,1.8835,1.8006,0.0,0.0,0.0,1.785,1.742,1.5948,1.5676,1.4869,1.3419,1.3778,0.0,1.3017,1.2354,1.1847,1.1546,1.0902,0.0,0.0,0.0,0.0,0.0,0.0,0.0,0.0,0.0,0.0,0.0,1.3307,1.3445,1.3534,1.4202,1.4632,1.4613,1.5129,1.5613,1.5767,1.5779,1.5725,1.5512,1.5068,1.4829,1.4815,1.4493,1.4116,1.3948,1.3948,1.3565,1.2738,1.2358,1.1596,1.0233,0.9578,0.8975,0.8042,0.754,0.7248,0.729,0.7475,0.7671,0.7818,0.7831,0.7897,0.7864,0.7858,0.7847,0.7864,0.7933,0.7933,0.7933,0.7933,0.7869,0.7928,0.7933,0.7768,0.7328,0.6399,0.4725,0.1656,0.1037,0.0607,2.888,0.0,2.8455,2.7955,0.0,2.6817,2.5553,2.374,2.4018,2.4611,2.5405,2.5221,2.547,2.5968,2.5784,2.5702,2.5656,2.4849,2.4363,2.4134,2.3279,2.2794,2.2593,2.24,2.219,2.1998,2.1989,2.1789,2.1374,2.1132,2.0898,2.0637,2.0138,1.982,1.9663,1.9882,1.955,1.8766,1.9097,1.8877,1.8202,1.8024,1.7246,1.5827,1.5896,0.0,0.0,0.0,0.0,0.0,0.0,0.0,0.0,0.0,0.0,1.2641,1.2623,1.2488,1.2315,1.3193,1.3913,1.431,1.51,1.5334,1.4826,1.5593,1.5923,1.5589,1.5905,1.6079,1.6085,1.6091,1.6036,1.591,1.5624,1.5464,1.541,1.519,1.5024,1.503,1.5024,1.4863,1.4374,1.3776,1.3122,1.2087,1.1328,1.0672,0.9959,0.8589,0.7609,0.7626,0.7632,0.7739,0.7906,0.7933,0.793,0.7933,0.7933,0.7933,0.7933,0.7933,0.7933,0.7928,0.7828,0.7788,0.7782,0.7741,0.7679,0.7565,0.7074,0.5892,0.36,0.2391,0.1432,2.946,2.9355,2.9303,2.8845,2.8117,2.8046,2.6993,2.5314,0.0,0.0,0.0,2.4895,2.4996,2.5405,2.5106,2.4959,2.484,2.4106,2.3636,2.3453,2.2657,2.2245,2.2163,2.1842,2.1733,2.1797,2.1797,2.1787,2.1797,2.1419,2.1318,2.1467,2.107,2.1178,2.1752,2.1695,2.1162,2.0263,2.0021,2.0089,2.0499,2.0319,1.9518,1.8157,1.8045,1.7234,1.5775,1.5698,1.5518,1.5149,1.4515,1.4493,1.5184,1.4643,1.4361,1.4607,1.4686,1.4518,1.3998,1.4769,1.5381,1.567,1.6598,1.6863,1.6151,1.6712,1.6875,1.635,1.629,1.6193,1.5982,1.5958,1.5982,1.6024,1.6036,1.6042,1.6036,1.6036,1.6006,1.603,1.6006,1.6012,1.5869,1.5158,1.4445,1.4169,1.3103,1.2273,1.1868,0.9994,0.8373,0.811,0.8056,0.8013,0.8085,0.8085,0.8027,0.8074,0.7997,0.7991,0.7928,0.7928,0.7928,0.7788,0.7728,0.7679,0.7663,0.76,0.7513,0.7489,0.7486,0.7127,0.5938,0.4017,0.2394,3.0836,3.0235,3.0224,2.9724,2.8923,2.855,2.8025,2.7172,2.4747,2.3941,2.4395,2.4698,2.4996,2.5433,2.5718,2.5653,2.5262,2.4821,2.4225,2.3462,2.2657,2.2099,2.1778,2.1723,2.187,2.2226,2.219,2.2199,2.2199,2.2144,2.1971,2.1671,2.1221,2.1162,2.1408,2.1319,2.1312,2.1443,2.0417,1.9664,1.9208,1.909,1.8652,1.7935,1.8434,1.8489,1.8049,1.7296,1.6739,1.6514,1.5651,1.5419,1.589,1.5752,1.5761,1.6322,1.66,1.6413,1.5628,1.6583,1.7119,1.693,1.7203,1.728,1.6966,1.7026,1.6863,1.635,1.6296,1.6266,1.6278,1.6223,1.632,1.6525,1.6579,1.6585,1.6555,1.6549,1.6549,1.6543,1.6585,1.6471,1.6266,1.6066,1.5568,1.4773,1.4233,1.3648,1.2718,1.1082,0.9533,0.8638,0.8602,0.869,0.8641,0.8627,0.8453,0.8498,0.8352,0.8246,0.8007,0.8007,0.7948,0.7637,0.7624,0.7548,0.7546,0.7535,0.7462,0.7385,0.7361,0.722,0.6853,0.565,0.4156,3.2229,3.1913,3.1924,3.1699,3.1224,2.9846,2.9113,2.865,2.65,2.5334,2.5095,2.4655,2.4587,2.4725,2.4445,2.4235,2.4033,2.3409,2.2933,2.2501,2.2135,2.1989,2.2061,2.2007,2.2227,2.2602,2.262,2.262,2.2602,2.2391,2.2181,2.2034,2.2044,2.1962,2.1787,2.2175,2.2255,2.2114,2.1002,2.029,1.9973,1.9974,1.976,1.9465,1.976,1.9914,1.9809,1.9359,1.9098,1.9049,1.8201,1.8039,1.8665,1.8196,1.8055,1.8307,1.8483,1.8198,1.7316,1.7462,1.7465,1.7159,1.7201,1.7286,1.731,1.7177,1.6923,1.6555,1.6507,1.6507,1.6507,1.6507,1.6561,1.6688,1.67,1.67,1.67,1.67,1.67,1.67,1.67,1.6646,1.6525,1.6507,1.6396,1.5768,1.5609,1.5155,1.4172,1.3403,1.2151,1.0321,0.9909,0.9516,0.8934,0.8692,0.8563,0.8499,0.8438,0.8344,0.8221,0.8218,0.8157,0.8038,0.7933,0.7887,0.7881,0.7821,0.77,0.7497,0.7466,0.7432,0.7168,0.6262,0.4839,3.3208,3.3208,3.3208,3.3208,3.3005,3.1283,3.0411,3.0057,2.8503,2.7356,2.6507,2.539,2.4777,2.4489,2.3916,2.3627,2.342,2.2646,2.2311,2.2307,2.2084,2.2179,2.2455,2.2502,2.2815,2.3288,2.3136,2.3136,2.3231,2.2796,2.2455,2.2346,2.2702,2.2706,2.2319,2.2988,2.3088,2.2627,2.1717,2.1173,2.1078,2.0968,2.0917,2.0925,2.0917,2.0925,2.0925,2.0925,2.0925,2.0873,2.03,2.0248,2.0822,2.03,1.999,1.999,1.999,1.9576,1.875,1.8177,1.7731,1.7547,1.7647,1.7689,1.7689,1.7615,1.7297,1.6895,1.6785,1.6791,1.6791,1.6791,1.6815,1.6863,1.6875,1.6905,1.6881,1.6875,1.6875,1.6875,1.6875,1.6875,1.6797,1.673,1.6566,1.6446,1.6616,1.6284,1.5513,1.5449,1.4431,1.2615,1.1383,1.0584,0.9337,0.8918,0.8743,0.8591,0.8548,0.8517,0.8456,0.8411,0.8356,0.8275,0.8214,0.81,0.8138,0.8074,0.7902,0.773,0.7674,0.7598,0.7282,0.6523,0.5386,3.3208,3.3208,3.3258,3.3208,3.3128,3.2479,3.194,3.1363,3.0122,2.9269,2.8704,2.7494,2.6415,2.566,2.5821,2.5691,2.529,2.448,2.4079,2.4039,2.3352,2.2993,2.3178,2.3214,2.3786,2.4677,2.4011,2.3954,2.4479,2.3802,2.3043,2.241,2.2702,2.2913,2.2844,2.3144,2.3261,2.3229,2.2677,2.2123,2.1623,2.1121,2.0925,2.0925,2.0925,2.0925,2.0925,2.0925,2.0925,2.0925,2.0814,2.0822,2.0873,2.0822,2.0763,2.0763,2.0771,2.0462,1.9643,1.9021,1.8683,1.8665,1.9084,1.9104,1.8433,1.8583,1.8256,1.7404,1.7114,1.705,1.7056,1.7056,1.7141,1.7316,1.7358,1.7412,1.7376,1.7412,1.7412,1.7412,1.7334,1.7322,1.705,1.6839,1.6525,1.6187,1.6477,1.6578,1.6212,1.6225,1.601,1.4432,1.2838,1.1465,1.0748,0.9849,0.9282,0.9117,0.8957,0.8749,0.8578,0.8509,0.8422,0.8329,0.8162,0.8143,0.8081,0.7995,0.8048,0.7986,0.7919,0.7837,0.7454,0.6991,0.6244,3.4139,3.4139,3.4139,3.3941,3.3624,3.3184,3.281,3.2518,3.1759,3.1272,3.1064,3.055,2.8964,2.6573,2.6786,2.6497,2.5706,2.5723,2.5554,2.5303,2.5231,2.5364,2.5574,2.5645,2.5945,2.6286,2.5879,2.5688,2.5668,2.5166,2.4361,2.353,2.3758,2.3607,2.2968,2.3269,2.3286,2.306,2.2779,2.2498,2.2276,2.166,2.1224,2.0925,2.0925,2.0925,2.0925,2.0925,2.0925,2.0925,2.0925,2.0925,2.0925,2.0925,2.0925,2.0925,2.0925,2.0712,2.0189,1.9941,1.9776,1.9727,1.9984,2.0073,2.0172,2.0273,1.9962,1.9024,1.7999,1.7322,1.7322,1.7322,1.7364,1.7461,1.7485,1.7485,1.7485,1.7485,1.7485,1.7479,1.7346,1.7219,1.7086,1.6863,1.6622,1.641,1.6579,1.6604,1.6549,1.664,1.6386,1.5656,1.4291,1.272,1.1398,1.0609,0.9905,0.9266,0.8981,0.8826,0.8823,0.8768,0.866,0.8546,0.8494,0.8491,0.8553,0.8491,0.8488,0.8355,0.8005,0.7774,0.7378,0.7214,0.6902,3.4775,3.4775,3.4775,3.458,3.419,3.3669,3.3457,3.335,3.2901,3.2735,3.2735,3.2735,3.1125,2.8585,2.8225,2.761,2.6835,2.6987,2.6911,2.6693,2.6986,2.7252,2.7508,2.7532,2.7686,2.7751,2.75,2.7132,2.6683,2.6286,2.5585,2.4781,2.4912,2.442,2.3411,2.3623,2.3537,2.2986,2.2904,2.2806,2.2527,2.2287,2.1878,2.1369,2.1318,2.1318,2.1326,2.1165,2.1173,2.1326,2.1224,2.1173,2.1318,2.1326,2.1318,2.1326,2.1318,2.1267,2.1046,2.1046,2.104,2.1003,2.1045,2.1221,2.1449,2.1649,2.1413,2.0544,1.9432,1.8674,1.7778,1.7772,1.7778,1.7772,1.7719,1.776,1.7674,1.7658,1.7711,1.7518,1.7447,1.7248,1.6995,1.6744,1.6525,1.6435,1.6441,1.6477,1.6477,1.6447,1.6386,1.6211,1.5407,1.4198,1.2257,1.1471,1.0857,1.0197,0.9864,0.9478,0.932,0.921,0.8838,0.8701,0.8851,0.8817,0.8618,0.8682,0.8736,0.8522,0.8183,0.7826,0.7628,0.7523,0.7398,3.4775,3.4775,3.4775,3.4775,3.4739,3.4186,3.3959,3.3923,3.3514,3.3274,3.331,3.3298,3.2592,3.1362,3.0532,2.9785,2.9122,2.8464,2.8323,2.8494,2.8255,2.8095,2.8094,2.821,2.868,2.9176,2.8505,2.7782,2.73,2.6858,2.6305,2.5865,2.5839,2.5208,2.4224,2.4343,2.4023,2.3083,2.3301,2.3078,2.2414,2.2863,2.2926,2.2458,2.2426,2.2316,2.2291,2.192,2.1869,2.2367,2.192,2.1869,2.2325,2.2375,2.2384,2.2375,2.2375,2.2384,2.2367,2.2325,2.2392,2.2452,2.2664,2.2634,2.2079,2.2497,2.2409,2.1463,2.153,2.0772,1.8958,1.8564,1.8473,1.8415,1.835,1.8165,1.8008,1.8051,1.802,1.7654,1.766,1.7491,1.6851,1.6478,1.6308,1.6102,1.6005,1.603,1.6114,1.603,1.6071,1.6011,1.5827,1.5434,1.424,1.3029,1.2405,1.1714,1.0895,1.0605,1.0237,0.9845,0.9275,0.8791,0.8825,0.8767,0.8608,0.857,0.8635,0.8521,0.8338,0.8051,0.7868,0.7815,0.7703,3.4775,3.4775,3.4775,3.4775,3.4751,3.457,3.451,3.4474,3.4366,3.427,3.4282,3.427,3.3693,3.2695,3.2374,3.1333,2.9976,3.0198,3.0327,3.019,3.0308,3.0409,3.0433,3.0461,3.0419,3.0306,3.0,2.9589,2.9119,2.8677,2.7977,2.7066,2.6687,2.5783,2.457,2.4424,2.415,2.3582,2.3877,2.3922,2.3551,2.3674,2.3632,2.3459,2.2816,2.2245,2.1775,2.2012,2.2173,2.2134,2.2139,2.2274,2.2476,2.2476,2.2476,2.2476,2.2476,2.2627,2.2929,2.3029,2.3179,2.3546,2.3722,2.3785,2.3752,2.393,2.3832,2.3286,2.3015,2.2316,2.1223,2.0102,1.955,1.9472,1.8705,1.8167,1.8008,1.7881,1.7742,1.7564,1.7495,1.7192,1.6873,1.6621,1.6524,1.6443,1.6411,1.6418,1.6418,1.6411,1.6358,1.6418,1.6418,1.6205,1.5678,1.4385,1.3403,1.2639,1.1969,1.1729,1.1382,1.065,1.0038,0.9405,0.9236,0.8769,0.8618,0.8577,0.8598,0.8547,0.8358,0.8292,0.8137,0.8096,0.7971,3.4775,3.4775,3.4775,3.4775,3.4775,3.4775,3.4775,3.4775,3.4775,3.4775,3.4799,3.4607,3.409,3.3356,3.3104,3.2202,3.0759,3.138,3.1512,3.1235,3.1548,3.1705,3.1705,3.1705,3.1528,3.1172,3.1172,3.0892,3.0442,3.0125,2.9342,2.8229,2.7742,2.6682,2.5248,2.4883,2.4483,2.4005,2.4165,2.4345,2.4231,2.4293,2.4202,2.3922,2.3299,2.2611,2.1852,2.2186,2.2429,2.2406,2.2403,2.2516,2.2787,2.2968,2.3029,2.3029,2.3088,2.3188,2.3538,2.3596,2.3746,2.4152,2.4211,2.4349,2.4615,2.4702,2.463,2.4421,2.4316,2.3927,2.3274,2.2135,2.116,2.0696,1.9478,1.8655,1.8512,1.8148,1.7841,1.765,1.737,1.7073,1.6893,1.6802,1.6683,1.667,1.667,1.667,1.667,1.667,1.667,1.667,1.6677,1.6571,1.6268,1.5417,1.4807,1.4105,1.3116,1.2861,1.2356,1.1571,1.0782,1.0144,0.9576,0.8985,0.8723,0.8634,0.8567,0.8509,0.8574,0.8535,0.8438,0.8427,0.8329,3.4823,3.4823,3.4775,3.4775,3.4775,3.4775,3.4763,3.4715,3.4727,3.4667,3.4571,3.4186,3.3729,3.3236,3.2779,3.2178,3.1681,3.1669,3.1681,3.1645,3.1693,3.1705,3.1705,3.1705,3.1717,3.1617,3.1673,3.1395,3.0904,3.0791,3.0266,2.9427,2.8824,2.7723,2.6185,2.5752,2.502,2.4372,2.4432,2.4321,2.3961,2.4605,2.4566,2.3984,2.3884,2.3532,2.2878,2.2422,2.2524,2.3133,2.259,2.2563,2.3332,2.3748,2.4125,2.4044,2.4102,2.4152,2.4152,2.4102,2.4102,2.4211,2.4211,2.422,2.4321,2.4578,2.4725,2.4769,2.4942,2.5151,2.4961,2.4009,2.2921,2.1934,2.0706,1.9914,1.9539,1.8939,1.8364,1.7961,1.7542,1.7258,1.7126,1.7008,1.6836,1.6829,1.6836,1.6829,1.6836,1.6836,1.6776,1.6783,1.6829,1.6876,1.6674,1.6428,1.6156,1.5706,1.4657,1.3996,1.3393,1.2655,1.1667,1.0939,1.0014,0.9482,0.9066,0.8973,0.8634,0.8564,0.8652,0.8733,0.8659,0.8621,0.8652,3.5066,3.503,3.4884,3.4775,3.4775,3.4775,3.4595,3.4258,3.4234,3.4042,3.3777,3.3597,3.3236,3.2815,3.2563,3.219,3.1741,3.1705,3.1705,3.1705,3.1705,3.1705,3.1705,3.1705,3.1705,3.1705,3.1705,3.1629,3.1395,3.1083,3.0393,2.9494,2.8953,2.8114,2.6944,2.6448,2.5972,2.5728,2.5498,2.5328,2.5211,2.5047,2.4821,2.4538,2.4126,2.3737,2.3491,2.2954,2.2662,2.274,2.2671,2.2935,2.3425,2.3608,2.3859,2.4165,2.4211,2.4211,2.4202,2.4211,2.4211,2.4211,2.4211,2.4211,2.4211,2.4321,2.4542,2.4675,2.4707,2.467,2.4789,2.4421,2.3675,2.3104,2.1756,2.0575,1.981,1.8726,1.7936,1.7749,1.7589,1.749,1.7483,1.7371,1.7371,1.7312,1.7312,1.7259,1.7318,1.7265,1.7318,1.7318,1.7298,1.7081,1.6879,1.6646,1.633,1.6,1.5319,1.4683,1.4208,1.3598,1.2592,1.1676,1.0755,1.0137,0.9719,0.9293,0.9037,0.8769,0.8808,0.8866,0.8849,0.876,0.874,3.5548,3.581,3.5295,3.5295,3.5511,3.5247,3.4823,3.4315,3.4279,3.4035,3.3611,3.3344,3.3032,3.2626,3.2421,3.2087,3.1729,3.1705,3.1705,3.1705,3.1705,3.1705,3.1705,3.1705,3.1705,3.1705,3.1705,3.1705,3.1693,3.1168,3.0494,2.9697,2.9184,2.8472,2.7539,2.7204,2.6937,2.6531,2.6218,2.6052,2.5853,2.5506,2.5295,2.5158,2.4594,2.4231,2.4163,2.3573,2.3216,2.3133,2.3223,2.3373,2.3485,2.3369,2.3398,2.3666,2.384,2.3914,2.3941,2.411,2.4211,2.4211,2.4211,2.4211,2.4211,2.4211,2.4349,2.4496,2.4376,2.4312,2.4496,2.4385,2.4108,2.3831,2.2593,2.1322,2.0286,1.9419,1.8952,1.8997,1.893,1.8826,1.8819,1.8356,1.8258,1.8199,1.7838,1.7589,1.7589,1.7589,1.7635,1.7588,1.7383,1.7225,1.7068,1.6793,1.641,1.6087,1.5688,1.5216,1.4739,1.4292,1.3507,1.258,1.1709,1.1311,1.0919,1.0141,0.9649,0.9428,0.9159,0.8849,0.8771,0.8682,0.8598,3.632,3.6926,3.6156,3.6307,3.6879,3.6178,3.5476,3.4866,3.4817,3.4401,3.3826,3.3244,3.2971,3.2658,3.2249,3.1954,3.1749,3.1705,3.1705,3.1705,3.1705,3.1705,3.1705,3.1705,3.1705,3.1705,3.1705,3.1705,3.1681,3.1192,3.0627,3.0157,2.9676,2.9016,2.8328,2.8085,2.7645,2.7058,2.6745,2.6474,2.6181,2.5937,2.5979,2.5979,2.5423,2.5126,2.5041,2.4581,2.4193,2.4281,2.3978,2.3772,2.3501,2.3131,2.3027,2.3146,2.3327,2.3425,2.3544,2.3849,2.411,2.411,2.4165,2.4211,2.4211,2.4211,2.422,2.4275,2.4229,2.4211,2.4248,2.422,2.4198,2.4062,2.3066,2.1962,2.1157,2.0842,2.0526,2.0629,2.0834,2.0834,2.0526,1.9797,1.9435,1.9176,1.861,1.8304,1.7891,1.7937,1.7726,1.7573,1.7367,1.7134,1.6939,1.6656,1.6328,1.6081,1.5774,1.5537,1.5183,1.4801,1.4692,1.3797,1.2917,1.2533,1.2111,1.1491,1.0724,1.0358,0.9813,0.9071,0.8665,0.8591,0.8521,3.8094,3.8275,3.7854,3.7808,3.8009,3.775,3.6703,3.5333,3.5283,3.4456,3.3118,3.2671,3.2709,3.2497,3.2242,3.195,3.1981,3.1837,3.1705,3.1705,3.1705,3.1705,3.1705,3.1705,3.1705,3.1705,3.1705,3.1705,3.1669,3.1139,3.0771,3.0651,3.0127,2.9798,2.9529,2.9145,2.8916,2.856,2.7897,2.7527,2.7315,2.6677,2.6539,2.6809,2.6696,2.6601,2.6573,2.6423,2.5443,2.4071,2.3897,2.3974,2.4088,2.3651,2.3423,2.3587,2.3289,2.3068,2.3133,2.3444,2.3703,2.3749,2.3996,2.4202,2.4211,2.4211,2.4211,2.4211,2.4211,2.4211,2.4211,2.4211,2.4211,2.4053,2.3238,2.2476,2.2064,2.1395,2.0885,2.0885,2.0987,2.1089,2.1038,2.0723,2.0475,2.0372,2.0055,1.9561,1.8917,1.8495,1.8355,1.7567,1.7192,1.6951,1.6687,1.646,1.6204,1.5954,1.58,1.5686,1.5433,1.5182,1.5376,1.5383,1.4498,1.3951,1.3678,1.3234,1.2403,1.1538,1.0679,1.001,0.8984,0.8593,0.8432,3.9169,3.9508,3.8979,3.8979,3.9231,3.889,3.779,3.645,3.6179,3.5318,3.3994,3.3771,3.3687,3.3602,3.3475,3.3207,3.2963,3.2864,3.2587,3.2145,3.2145,3.1981,3.1793,3.1705,3.1705,3.1705,3.1705,3.1705,3.156,3.0927,3.0687,3.0723,3.035,3.0098,3.0062,3.0114,2.978,2.9374,2.8815,2.8518,2.8272,2.7562,2.7505,2.7706,2.7744,2.755,2.7506,2.73,2.6505,2.5453,2.5009,2.4912,2.5056,2.4324,2.4014,2.4172,2.3532,2.3112,2.3131,2.3341,2.348,2.3572,2.3923,2.4165,2.4211,2.4211,2.4211,2.4211,2.4211,2.4211,2.4211,2.4211,2.4211,2.4102,2.3596,2.3238,2.3179,2.2728,2.2367,2.2308,2.2308,2.2308,2.2257,2.1903,2.165,2.1454,2.1038,2.0417,1.9806,1.9389,1.8826,1.8036,1.7197,1.681,1.6592,1.6342,1.6415,1.6144,1.6175,1.599,1.5888,1.574,1.5896,1.6061,1.5673,1.5373,1.5082,1.4674,1.3868,1.293,1.1935,1.0839,0.9861,0.9135,0.8922,4.0,4.0703,3.9855,4.0,4.0546,3.9773,3.874,3.7696,3.7395,3.6618,3.5588,3.5548,3.5224,3.5332,3.4897,3.4884,3.4347,3.4181,3.3674,3.3189,3.2871,3.2655,3.2176,3.2176,3.2133,3.2089,3.1881,3.1837,3.1676,3.0815,3.0494,3.0742,3.041,3.0146,3.0242,3.0639,3.0424,2.9834,2.9643,2.9437,2.9087,2.8534,2.8418,2.8765,2.8579,2.8468,2.8317,2.7974,2.7538,2.748,2.6749,2.629,2.6135,2.5232,2.4786,2.4612,2.4135,2.3691,2.3703,2.3934,2.3908,2.4051,2.437,2.4387,2.4431,2.4326,2.4256,2.4202,2.4187,2.4128,2.4211,2.4211,2.4211,2.4152,2.4152,2.4152,2.4211,2.4211,2.4211,2.4192,2.4134,2.4088,2.3935,2.3352,2.2608,2.2412,2.1954,2.1362,2.07,2.0098,1.938,1.8489,1.7626,1.6708,1.6474,1.6249,1.6395,1.6446,1.662,1.6583,1.6467,1.6405,1.6381,1.6375,1.6418,1.648,1.6489,1.5914,1.5108,1.4274,1.323,1.1992,1.0845,1.0294,0.9937,4.1591,4.1758,4.1549,4.1591,4.163,4.1004,3.988,3.8572,3.8028,3.7039,3.5898,3.5655,3.5655,3.5588,3.5548,3.5224,3.5129,3.4979,3.4485,3.4082,3.3943,3.3729,3.336,3.3275,3.3288,3.3116,3.2698,3.2494,3.221,3.1405,3.0802,3.0874,3.079,3.0506,3.0314,3.1043,3.1228,3.0666,3.057,3.0484,3.026,2.9546,2.9334,2.973,2.9641,2.985,3.0095,2.9773,2.9499,2.9089,2.8022,2.7147,2.6971,2.6324,2.5937,2.5696,2.5147,2.4708,2.4854,2.5255,2.5601,2.5202,2.5635,2.5985,2.4874,2.468,2.4506,2.4239,2.3927,2.3968,2.4159,2.4192,2.4214,2.4205,2.4165,2.4183,2.4211,2.4211,2.4211,2.4156,2.3895,2.3794,2.4119,2.3639,2.3224,2.3246,2.2846,2.2324,2.1607,2.0783,1.9966,1.9096,1.8182,1.7344,1.6759,1.6525,1.6496,1.6693,1.6914,1.7068,1.7,1.6923,1.695,1.7114,1.7324,1.7358,1.7213,1.7054,1.6246,1.5399,1.4473,1.3319,1.2261,1.1631,1.0832,4.2092,4.2092,4.2092,4.2092,4.1976,4.1381,4.0458,3.945,3.8796,3.7866,3.7007,3.683,3.6816,3.683,3.6713,3.6596,3.6241,3.5722,3.5346,3.5102,3.5061,3.4869,3.4649,3.4662,3.4634,3.3852,3.3386,3.3172,3.285,3.2098,3.1534,3.1625,3.1227,3.097,3.0898,3.1416,3.1536,3.1356,3.1284,3.1296,3.1124,3.0563,3.0191,3.0416,3.0501,3.0657,3.0783,3.0338,3.0122,2.9858,2.913,2.8533,2.838,2.7792,2.7375,2.7175,2.6221,2.5673,2.5816,2.5862,2.5941,2.5784,2.6364,2.6253,2.5795,2.5462,2.5237,2.4969,2.4698,2.4497,2.4279,2.4259,2.4219,2.4073,2.4073,2.4088,2.4146,2.4202,2.4211,2.4128,2.3822,2.3721,2.3666,2.3444,2.327,2.3024,2.3015,2.2488,2.1996,2.1229,2.061,1.9747,1.8871,1.805,1.7305,1.6869,1.6616,1.6874,1.7233,1.7315,1.7369,1.7363,1.7402,1.7502,1.7569,1.7575,1.7424,1.7378,1.7206,1.6485,1.5594,1.4579,1.3718,1.2957,1.208,4.2092,4.2092,4.2092,4.2092,4.199,4.1381,4.0728,4.0021,3.9465,3.8659,3.8252,3.8202,3.7962,3.8127,3.8089,3.7938,3.7519,3.6911,3.6373,3.6215,3.6215,3.5896,3.5669,3.575,3.5467,3.4105,3.3882,3.3882,3.353,3.2803,3.2372,3.2536,3.1933,3.1486,3.1629,3.1833,3.1741,3.1484,3.1548,3.1633,3.1609,3.1192,3.1011,3.0999,3.1043,3.1055,3.1043,3.073,3.0398,3.0326,3.0326,3.0326,3.0097,2.9445,2.874,2.8663,2.747,2.6911,2.673,2.6594,2.6475,2.6184,2.6628,2.6636,2.6506,2.6331,2.6141,2.6048,2.5831,2.5501,2.4641,2.4603,2.4402,2.4105,2.3999,2.4033,2.4073,2.4125,2.4128,2.4137,2.3712,2.3398,2.3316,2.3169,2.2977,2.2803,2.2803,2.2683,2.2206,2.1741,2.114,2.0595,1.9799,1.8988,1.8261,1.7753,1.7475,1.7452,1.7763,1.7625,1.7681,1.7542,1.7502,1.7535,1.7582,1.7589,1.7589,1.7536,1.7345,1.7187,1.671,1.571,1.4924,1.4254,1.3346,4.2092,4.2092,4.2092,4.2092,4.1976,4.1381,4.0713,4.006,3.9465,3.8826,3.8275,3.8202,3.8202,3.8202,3.8202,3.8165,3.7976,3.7658,3.7505,3.7289,3.7211,3.6886,3.6403,3.6338,3.5965,3.5426,3.484,3.4551,3.4371,3.3821,3.3266,3.3033,3.3001,3.2616,3.1911,3.1969,3.208,3.1648,3.17,3.1837,3.1833,3.176,3.162,3.162,3.1608,3.1544,3.1536,3.1476,3.144,3.144,3.1452,3.1416,3.1132,3.0361,2.9744,2.9213,2.8786,2.8257,2.8017,2.8333,2.8357,2.8292,2.8268,2.7972,2.7338,2.6925,2.6863,2.6963,2.6942,2.666,2.5538,2.5421,2.4982,2.4536,2.4259,2.4174,2.3937,2.388,2.3962,2.4045,2.354,2.3098,2.31,2.2935,2.2668,2.2529,2.2483,2.2502,2.2281,2.2026,2.1726,2.13,2.0837,2.0029,1.924,1.8848,1.852,1.8462,1.8457,1.8025,1.7943,1.7687,1.7589,1.7635,1.7635,1.7589,1.7589,1.7589,1.7575,1.7384,1.7126,1.679,1.6061,1.5233,1.4655,4.2092,4.2092,4.2092,4.1889,4.1555,4.125,4.0713,4.006,3.9465,3.903,3.8681,3.8376,3.8202,3.8202,3.8202,3.8202,3.8202,3.8202,3.8089,3.7915,3.7877,3.761,3.7007,3.6811,3.6457,3.6005,3.5507,3.5223,3.5182,3.4551,3.409,3.3874,3.3821,3.3237,3.2735,3.2937,3.2867,3.2388,3.229,3.2394,3.2643,3.2686,3.2612,3.2264,3.2189,3.2057,3.1761,3.1705,3.1705,3.1693,3.1693,3.1705,3.1548,3.1247,3.0651,3.0134,2.9629,2.9232,2.8907,2.8979,2.8659,2.8555,2.8799,2.8602,2.8049,2.7778,2.7658,2.7588,2.76,2.728,2.6204,2.6302,2.5915,2.5162,2.4867,2.4606,2.4249,2.4108,2.4165,2.4163,2.3561,2.3223,2.3028,2.2805,2.2398,2.2241,2.2224,2.2272,2.2382,2.2291,2.2181,2.1997,2.1664,2.1216,2.0492,2.0035,1.9767,1.9687,1.9302,1.8873,1.8617,1.8513,1.7996,1.7628,1.7635,1.7793,1.7589,1.7589,1.7589,1.7562,1.7269,1.6979,1.6735,1.6284,1.5646,4.2092,4.2092,4.2092,4.1787,4.1352,4.1308,4.0844,4.0104,3.9596,3.9218,3.8928,3.8478,3.8202,3.8202,3.8202,3.8202,3.8202,3.8202,3.8202,3.8165,3.8165,3.7953,3.7572,3.7264,3.6929,3.6496,3.6204,3.5871,3.5548,3.5141,3.4922,3.4746,3.4317,3.3995,3.3927,3.3859,3.3882,3.3556,3.3258,3.3215,3.3543,3.367,3.3471,3.2957,3.2871,3.2581,3.2057,3.2013,3.1837,3.1749,3.1705,3.1705,3.1705,3.1705,3.15,3.1007,3.0122,2.9689,2.9376,2.9184,2.9063,2.9027,2.8883,2.8819,2.8903,2.8908,2.8786,2.8279,2.833,2.7955,2.7106,2.7128,2.6832,2.6225,2.5805,2.5619,2.5311,2.5166,2.5175,2.4796,2.3868,2.3434,2.3336,2.2734,2.2398,2.2419,2.2412,2.263,2.2732,2.2686,2.2649,2.259,2.2413,2.2249,2.177,2.1336,2.1119,2.1063,2.0535,1.9989,1.9746,1.9531,1.8968,1.8401,1.8146,1.8251,1.7943,1.7641,1.7589,1.7522,1.7407,1.7188,1.6963,1.6803,1.6371,4.2092,4.2092,4.2092,4.2049,4.1932,4.1932,4.1236,4.0191,4.0002,3.9334,3.8565,3.826,3.8202,3.8202,3.8202,3.8202,3.8202,3.8202,3.8202,3.8202,3.8202,3.8014,3.7649,3.7572,3.7264,3.6954,3.6836,3.6389,3.5951,3.5669,3.5548,3.5467,3.5345,3.5168,3.4634,3.4592,3.4246,3.3839,3.367,3.367,3.3755,3.3797,3.3768,3.3641,3.3556,3.3258,3.2667,3.2494,3.2276,3.1793,3.1705,3.1705,3.1705,3.1705,3.1693,3.1476,3.1023,3.0494,3.0074,2.9797,2.9713,2.9689,2.9749,2.9869,2.9809,2.9989,2.987,2.9234,2.9474,2.9133,2.8099,2.7804,2.7527,2.7327,2.7104,2.7048,2.6843,2.637,2.6361,2.609,2.5389,2.4376,2.3777,2.3041,2.2416,2.2529,2.2674,2.2914,2.3177,2.3261,2.3223,2.3217,2.3268,2.3093,2.293,2.2475,2.2329,2.2308,2.1853,2.1234,2.0877,2.0562,2.0055,1.9539,1.9228,1.8662,1.8199,1.7891,1.7687,1.7542,1.7501,1.7373,1.7219,1.7058,1.6904,4.2407,4.2092,4.2092,4.1874,4.1584,4.1918,4.1555,4.0728,4.0234,3.9799,3.9175,3.8463,3.8202,3.8202,3.8202,3.8202,3.8202,3.8202,3.8202,3.8202,3.8202,3.8089,3.7901,3.7725,3.7457,3.7341,3.7109,3.6875,3.6443,3.6165,3.6018,3.5723,3.571,3.5548,3.5276,3.5277,3.5141,3.4922,3.484,3.462,3.4468,3.4592,3.4634,3.4301,3.4272,3.3882,3.3386,3.284,3.2624,3.2189,3.1969,3.1705,3.1705,3.1705,3.1705,3.1681,3.1512,3.1103,3.0633,3.0278,3.0182,3.0122,3.0122,3.005,3.0146,3.0302,3.0374,2.9833,3.0242,2.9964,2.9413,2.9423,2.9054,2.8748,2.8441,2.8199,2.8055,2.7821,2.7519,2.7215,2.6932,2.6041,2.5019,2.3994,2.3428,2.3227,2.3348,2.3453,2.3843,2.4154,2.4046,2.3936,2.3941,2.3944,2.3785,2.3529,2.3421,2.3388,2.3388,2.2719,2.2064,2.1599,2.1132,2.0672,2.0261,1.9591,1.8715,1.8101,1.7793,1.7687,1.7582,1.7507,1.738,1.7233,1.7058,4.297,4.2514,4.2257,4.1816,4.1395,4.1889,4.1599,4.08,4.0307,3.9915,3.9436,3.8609,3.8202,3.8202,3.8202,3.8202,3.8202,3.8202,3.8202,3.8202,3.8202,3.8202,3.8089,3.7877,3.7763,3.7739,3.7558,3.7289,3.707,3.685,3.6457,3.5898,3.5938,3.5926,3.594,3.5913,3.5845,3.5859,3.5845,3.5533,3.5127,3.5372,3.5291,3.5087,3.4881,3.462,3.3966,3.3598,3.3258,3.2828,3.2568,3.2307,3.2101,3.2057,3.1881,3.1793,3.1633,3.1488,3.1139,3.085,3.0573,3.0482,3.0482,3.0639,3.0621,3.0482,3.0362,3.0326,3.0567,3.0518,3.0314,3.0368,3.0157,2.9808,2.9729,2.9392,2.9161,2.9127,2.9204,2.9157,2.8786,2.8098,2.6909,2.5386,2.4567,2.4167,2.4059,2.4092,2.4364,2.4753,2.4654,2.445,2.4438,2.4445,2.4375,2.4322,2.4341,2.4251,2.4251,2.4003,2.3179,2.2719,2.2417,2.1954,2.1395,2.0672,1.9849,1.8871,1.7891,1.774,1.7589,1.7589,1.7541,1.7393,1.7233,4.381,4.3654,4.2596,4.2146,4.2058,4.2078,4.1392,4.043,4.0172,3.946,3.858,3.8246,3.8202,3.8202,3.8202,3.8202,3.8202,3.8202,3.8202,3.8202,3.8202,3.8202,3.8165,3.8142,3.8104,3.8104,3.8039,3.7902,3.7677,3.7638,3.7077,3.647,3.6377,3.6441,3.6552,3.6634,3.6565,3.6579,3.6551,3.6252,3.5845,3.5764,3.571,3.5683,3.5575,3.5304,3.4675,3.4439,3.4134,3.3628,3.3373,3.3086,3.2698,3.2667,3.245,3.2013,3.1881,3.1753,3.152,3.1452,3.1548,3.156,3.15,3.1368,3.132,3.15,3.1356,3.0934,3.0987,3.0747,3.0398,3.0194,3.057,3.0632,3.066,3.0655,3.0596,3.0847,3.0868,3.1012,3.0546,2.969,2.9033,2.7569,2.6282,2.5813,2.5189,2.5226,2.489,2.5119,2.4982,2.4835,2.4845,2.4815,2.4815,2.4735,2.4538,2.444,2.4399,2.435,2.4044,2.3737,2.3379,2.3029,2.2409,2.1743,2.103,2.021,1.9287,1.8101,1.7635,1.7845,1.774,1.7541,1.74,4.422,4.3849,4.3394,4.3195,4.318,4.2777,4.2065,4.119,4.0386,3.9335,3.824,3.8202,3.8202,3.8202,3.8202,3.8202,3.8202,3.8202,3.8202,3.8202,3.8202,3.8202,3.8202,3.8246,3.8202,3.8318,3.8513,3.8498,3.802,3.8284,3.7892,3.7381,3.6985,3.7095,3.7271,3.7497,3.7441,3.7203,3.7175,3.6957,3.6821,3.6415,3.6252,3.6252,3.5805,3.5616,3.5304,3.4895,3.4592,3.4301,3.3966,3.3628,3.3386,3.3343,3.2957,3.245,3.232,3.2145,3.1837,3.1749,3.1705,3.1705,3.1693,3.1705,3.1705,3.1705,3.1645,3.1452,3.1356,3.1151,3.1175,3.1115,3.124,3.1324,3.144,3.1512,3.1585,3.1681,3.1649,3.1408,3.134,3.0976,3.0416,2.9755,2.8545,2.748,2.6832,2.6245,2.6001,2.5616,2.5518,2.5323,2.5274,2.5079,2.503,2.4883,2.4726,2.4637,2.4548,2.4498,2.4489,2.439,2.4035,2.3777,2.3529,2.292,2.2308,2.165,2.057,1.9183,1.8513,1.8349,1.8094,1.7845,1.7743,4.4843,4.4465,4.448,4.4113,4.3578,4.3084,4.2417,4.1594,4.0719,3.9691,3.8708,3.8694,3.8598,3.8501,3.8478,3.8315,3.8277,3.8202,3.8202,3.8289,3.8405,3.8463,3.8492,3.8522,3.8609,3.8623,3.8812,3.8817,3.8208,3.8884,3.8654,3.8208,3.7862,3.7983,3.8136,3.8533,3.8459,3.8082,3.7799,3.7607,3.7445,3.6917,3.6564,3.6456,3.6008,3.5696,3.5548,3.5291,3.5087,3.4881,3.4634,3.4259,3.4079,3.3924,3.3628,3.3258,3.2957,3.2742,3.2394,3.1869,3.1749,3.1705,3.1705,3.1705,3.1705,3.1705,3.1669,3.1681,3.1681,3.1705,3.1705,3.1597,3.1548,3.1573,3.1585,3.1645,3.1657,3.1705,3.1705,3.1637,3.1569,3.15,3.132,3.0669,2.9669,2.8564,2.7893,2.7406,2.7148,2.6744,2.6225,2.5994,2.5713,2.5421,2.5177,2.5079,2.503,2.4932,2.4843,2.4794,2.4686,2.4637,2.4627,2.4381,2.4183,2.3985,2.3578,2.3011,2.1641,2.0107,1.9694,1.9332,1.9383,1.9235,1.8715,4.5735,4.5771,4.5698,4.4651,4.3198,4.2955,4.2272,4.1416,4.0934,4.0398,3.9737,3.9713,3.9538,3.9207,3.9179,3.8929,3.8736,3.8543,3.8529,3.875,3.9293,3.9308,3.9208,3.9232,3.911,3.9184,3.9262,3.903,3.8318,3.9189,3.9267,3.9199,3.9073,3.9057,3.893,3.9603,3.9652,3.9124,3.8669,3.8297,3.7915,3.7302,3.692,3.6743,3.6171,3.59,3.5642,3.5737,3.5602,3.544,3.5426,3.5087,3.4744,3.4662,3.433,3.3755,3.3713,3.3628,3.3488,3.2394,3.1969,3.1837,3.1837,3.1705,3.1705,3.1705,3.1705,3.1705,3.1705,3.1705,3.1705,3.1705,3.1705,3.1705,3.1705,3.1705,3.1705,3.1705,3.1705,3.1705,3.1705,3.1705,3.1705,3.1403,3.0508,2.9625,2.8925,2.8495,2.8226,2.7804,2.72,2.6877,2.6504,2.6129,2.5839,2.5479,2.5284,2.5235,2.5137,2.5039,2.499,2.4932,2.4932,2.4883,2.4784,2.4538,2.4489,2.4332,2.2953,2.1684,2.0834,2.0526,2.0621,2.0467,1.9797,4.592,4.6104,4.59,4.5164,4.4159,4.4076,4.3614,4.2756,4.158,4.0578,4.0011,3.9889,4.0173,4.0109,3.9922,3.983,4.0029,4.0059,4.0059,4.0113,4.0659,4.071,4.052,4.0079,3.9668,3.9435,3.9465,3.9518,3.8913,3.9784,4.0002,3.9973,4.0151,4.0219,4.0171,4.0492,4.0661,4.025,3.998,3.9826,3.9448,3.8393,3.7648,3.7607,3.6798,3.6198,3.5913,3.613,3.613,3.5899,3.5859,3.567,3.5412,3.5358,3.5031,3.4509,3.4343,3.4121,3.3839,3.3159,3.2828,3.2481,3.2057,3.1881,3.1705,3.1705,3.1705,3.1705,3.1705,3.1705,3.1705,3.1705,3.1705,3.1705,3.1705,3.1705,3.1705,3.1705,3.1705,3.1705,3.1705,3.1705,3.1705,3.1705,3.1003,3.0633,3.0022,2.928,2.8923,2.8588,2.8168,2.784,2.7521,2.701,2.659,2.6177,2.581,2.5713,2.5528,2.5284,2.5235,2.5235,2.5186,2.5186,2.5137,2.5088,2.4883,2.4637,2.4282,2.337,2.2358,2.1497,2.1285,2.1081,2.0629,4.6156,4.612,4.6028,4.5631,4.508,4.4828,4.4268,4.3317,4.1875,4.0913,4.0639,4.0743,4.0977,4.1148,4.1107,4.0883,4.138,4.1359,4.1307,4.145,4.2028,4.1972,4.1656,4.1287,4.0946,4.045,4.0349,4.0393,3.9567,4.0568,4.0771,4.0684,4.1091,4.1175,4.1173,4.1238,4.1213,4.0845,4.066,4.0532,4.0167,3.9522,3.8797,3.845,3.7772,3.6906,3.6646,3.6606,3.6661,3.6348,3.6253,3.6185,3.6103,3.5927,3.5669,3.5262,3.5217,3.5105,3.4921,3.4471,3.408,3.3513,3.2785,3.2307,3.2133,3.2101,3.1881,3.1793,3.1749,3.1705,3.1705,3.1705,3.1705,3.1705,3.1705,3.1705,3.1705,3.1705,3.1705,3.1705,3.1705,3.1705,3.1705,3.1705,3.1472,3.1282,3.1092,3.0362,2.9669,2.9429,2.9189,2.8958,2.8484,2.7981,2.7426,2.6877,2.6552,2.6284,2.6052,2.581,2.5538,2.5489,2.544,2.544,2.543,2.5333,2.5088,2.4784,2.4529,2.4125,2.347,2.271,2.2106,2.1903,2.17,4.649,4.5936,4.6175,4.6068,4.5701,4.5001,4.3987,4.274,4.1982,4.1617,4.1666,4.2244,4.2366,4.2144,4.259,4.2592,4.2328,4.227,4.227,4.2469,4.31,4.3075,4.3076,4.2811,4.2258,4.204,4.1852,4.1385,4.0431,4.1316,4.154,4.1357,4.1846,4.1927,4.1823,4.1632,4.148,4.1354,4.1185,4.1043,4.0802,4.0168,3.9718,3.9339,3.8668,3.8041,3.7779,3.7686,3.7509,3.7346,3.7386,3.7041,3.6809,3.6632,3.6252,3.6089,3.6333,3.6385,3.6342,3.5825,3.5394,3.4798,3.4221,3.3522,3.2914,3.2624,3.2276,3.1969,3.1837,3.1749,3.1705,3.1705,3.1705,3.1705,3.1705,3.1705,3.1705,3.1705,3.1705,3.1705,3.1705,3.1705,3.1705,3.1705,3.1705,3.1617,3.1427,3.1383,3.0734,3.0453,3.0215,3.0079,2.9567,2.8901,2.8355,2.7804,2.7474,2.7247,2.6754,2.6476,2.61,2.582,2.582,2.582,2.5723,2.5586,2.5333,2.5137,2.4932,2.4529,2.4125,2.3877,2.327,2.3379,2.3229,4.6754,4.658,4.6372,4.6104,4.5697,4.5017,4.4176,4.3374,4.2679,4.2363,4.2378,4.2584,4.3113,4.3843,4.3603,4.3651,4.3783,4.3923,4.3923,4.4153,4.4398,4.4462,4.4266,4.387,4.3334,4.2933,4.2673,4.2582,4.2391,4.2725,4.2694,4.2588,4.2611,4.2526,4.2242,4.1968,4.1912,4.1829,4.1647,4.1564,4.1351,4.0783,4.05,4.0104,3.9657,3.9122,3.876,3.8918,3.8671,3.8145,3.8048,3.7634,3.6673,3.6985,3.7052,3.7038,3.716,3.7228,3.7214,3.7045,3.6623,3.6057,3.5702,3.4824,3.3922,3.3086,3.2754,3.245,3.2176,3.2089,3.2089,3.2045,3.2045,3.2057,3.2013,3.1881,3.1837,3.1749,3.1749,3.1705,3.1705,3.1705,3.1705,3.1705,3.1705,3.1705,3.1705,3.1705,3.1617,3.1238,3.1048,3.0869,3.0543,2.9886,2.9418,2.8912,2.8541,2.8168,2.7673,2.7258,2.6972,2.6696,2.637,2.6052,2.5771,2.5684,2.5635,2.544,2.5186,2.5079,2.4775,2.4637,2.4489,2.4341,2.4251,4.7048,4.6652,4.6582,4.6262,4.5717,4.5017,4.4448,4.4022,4.339,4.309,4.3155,4.3406,4.3943,4.4508,4.4571,4.4741,4.5056,4.5036,4.5036,4.5162,4.5586,4.541,4.5081,4.4783,4.4363,4.3941,4.3647,4.3594,4.3564,4.3608,4.3585,4.3334,4.3379,4.301,4.2662,4.2459,4.2284,4.216,4.2051,4.2092,4.1794,4.1454,4.1256,4.0974,4.0556,4.0101,3.979,4.0092,3.9618,3.9186,3.9117,3.8685,3.7687,3.7655,3.7745,3.7675,3.7824,3.7838,3.7838,3.7851,3.7363,3.6877,3.6619,3.5827,3.4899,3.4092,3.3586,3.3116,3.2815,3.2556,3.2513,3.2513,3.2513,3.2525,3.2351,3.2145,3.1969,3.1837,3.1749,3.1705,3.1705,3.1705,3.1705,3.1705,3.1705,3.1705,3.1705,3.1705,3.1705,3.1572,3.1472,3.1383,3.1149,3.0767,3.0351,2.9932,2.9555,2.9096,2.8541,2.8121,2.784,2.7284,2.6733,2.6187,2.5732,2.5684,2.5732,2.5586,2.544,2.5333,2.5235,2.5039,2.4784,2.4538,2.444,4.7252,4.6321,4.6668,4.6385,4.5749,4.5112,4.4828,4.4717,4.4161,4.3832,4.3911,4.4401,4.467,4.495,4.5286,4.5523,4.5634,4.5634,4.5618,4.5792,4.576,4.5698,4.5735,4.5703,4.5185,4.4952,4.4765,4.4551,4.4197,4.4236,4.4312,4.4004,4.395,4.3639,4.314,4.3076,4.285,4.2392,4.2325,4.2284,4.2133,4.2022,4.2078,4.1906,4.1517,4.1111,4.1016,4.0812,4.0481,4.0571,4.0449,4.0054,3.9239,3.829,3.8228,3.8331,3.8521,3.8491,3.8491,3.8491,3.7881,3.727,3.67,3.6413,3.5797,3.4739,3.4105,3.3874,3.3547,3.3485,3.3449,3.3669,3.3745,3.3519,3.3289,3.2829,3.2388,3.2113,3.1749,3.1705,3.1705,3.1705,3.1705,3.1705,3.1705,3.1705,3.1705,3.1705,3.1705,3.1705,3.1705,3.1705,3.1516,3.1282,3.1193,3.0824,3.0486,3.0022,2.951,2.9096,2.8866,2.8028,2.701,2.66,2.6235,2.5868,2.5771,2.5684,2.5635,2.5586,2.5489,2.5382,2.5137,2.4833,2.4587,4.6842,4.6285,4.6136,4.5936,4.5792,4.5634,4.5523,4.5539,4.5412,4.4954,4.4575,4.4685,4.5033,4.5491,4.5665,4.5807,4.5807,4.5807,4.5807,4.5807,4.5807,4.5807,4.5807,4.5807,4.5646,4.5646,4.552,4.5395,4.5173,4.5136,4.5046,4.4639,4.4548,4.4297,4.3717,4.3678,4.3379,4.2795,4.2769,4.2541,4.2201,4.2133,4.2078,4.2049,4.1816,4.1773,4.1732,4.172,4.143,4.128,4.1197,4.0887,4.0335,3.928,3.9121,3.9434,3.927,3.9169,3.9095,3.9027,3.8534,3.8003,3.7541,3.7311,3.6626,3.543,3.4739,3.458,3.45,3.4495,3.4547,3.4822,3.4963,3.4645,3.4216,3.353,3.2903,3.2376,3.1837,3.1793,3.1793,3.1793,3.1793,3.1749,3.1705,3.1705,3.1705,3.1705,3.1705,3.1705,3.1705,3.1705,3.1705,3.1572,3.1572,3.1472,3.1092,3.1092,3.0779,3.0362,2.9897,2.9015,2.8028,2.7332,2.6829,2.6648,2.6332,2.5771,2.5732,2.5868,2.5635,2.5538,2.544,2.5245,2.4892,4.6791,4.6301,4.6104,4.592,4.5807,4.5807,4.5807,4.5807,4.5807,4.5602,4.5203,4.5238,4.5444,4.5807,4.5807,4.5807,4.5807,4.5807,4.5807,4.5807,4.5807,4.5807,4.5807,4.5807,4.5771,4.5807,4.5807,4.5771,4.5807,4.5771,4.5484,4.5231,4.5194,4.4918,4.4373,4.4259,4.3989,4.3418,4.3403,4.3076,4.25,4.2325,4.2133,4.2092,4.2092,4.2092,4.2092,4.2092,4.1953,4.1647,4.1522,4.1311,4.0859,4.0223,4.0023,4.0131,4.0055,3.9821,3.9703,3.9475,3.9144,3.8428,3.8152,3.7783,3.6984,3.5988,3.6241,3.6138,3.6151,3.6111,3.6125,3.6353,3.6366,3.6135,3.5273,3.4482,3.376,3.3086,3.2859,3.2815,3.2742,3.2568,3.2537,3.2276,3.2145,3.1705,3.1705,3.1761,3.1761,3.1705,3.1705,3.1705,3.1705,3.1705,3.1661,3.1661,3.1572,3.1661,3.1705,3.1003,3.026,2.9749,2.9096,2.8308,2.7793,2.7709,2.7305,2.6658,2.637,2.6552,2.6139,2.5684,2.5684,2.5674,2.5284,4.7118,4.6515,4.6426,4.6211,4.592,4.5807,4.5807,4.5807,4.5807,4.5807,4.5744,4.5744,4.5807,4.5807,4.5807,4.5807,4.5807,4.5807,4.5807,4.5807,4.5807,4.5807,4.5807,4.5807,4.5807,4.5807,4.5807,4.5807,4.5807,4.5807,4.5807,4.5807,4.5698,4.5484,4.5104,4.4865,4.4655,4.4182,4.395,4.3639,4.3115,4.2555,4.2284,4.216,4.2092,4.2092,4.2092,4.2092,4.2092,4.1953,4.1745,4.1606,4.1396,4.0958,4.0788,4.0744,4.0616,4.0343,4.017,3.9938,3.917,3.8503,3.8456,3.8043,3.7284,3.7243,3.7499,3.7605,3.759,3.7509,3.7522,3.763,3.7644,3.7329,3.6308,3.546,3.4708,3.4012,3.3926,3.3913,3.3692,3.3533,3.3255,3.2983,3.263,3.215,3.1874,3.1874,3.1862,3.1761,3.1705,3.1705,3.1705,3.1705,3.1705,3.1705,3.1705,3.1705,3.1617,3.1137,3.0722,3.0486,3.0022,2.9235,2.8819,2.868,2.8308,2.7709,2.7568,2.7379,2.72,2.6839,2.66,2.6504,2.58,4.7721,4.7556,4.6949,4.6655,4.6531,4.6064,4.5807,4.5807,4.5807,4.5807,4.5807,4.5807,4.5807,4.5807,4.5807,4.5807,4.5807,4.5807,4.5807,4.5807,4.5807,4.5807,4.5807,4.5807,4.5807,4.5807,4.5807,4.5807,4.5807,4.5807,4.5807,4.5807,4.5807,4.5735,4.5698,4.5484,4.5231,4.4805,4.4564,4.432,4.3756,4.3155,4.2581,4.231,4.2092,4.2092,4.2092,4.2092,4.2092,4.2051,4.2036,4.1953,4.1787,4.1536,4.1354,4.1227,4.1043,4.083,4.0602,4.0343,3.9585,3.9302,3.9184,3.8744,3.8295,3.8224,3.8453,3.8597,3.8542,3.8258,3.8285,3.861,3.8664,3.7936,3.7066,3.6515,3.591,3.5457,3.5184,3.4999,3.48,3.4555,3.4246,3.404,3.3789,3.3345,3.2978,3.2897,3.2531,3.2157,3.1898,3.1854,3.191,3.1705,3.1705,3.1705,3.1705,3.1705,3.1661,3.1383,3.1282,3.1472,3.0958,3.017,2.9795,2.9658,2.9189,2.8866,2.8541,2.8391,2.8391,2.8215,2.784,2.7379,2.6771]}]]